Darstellungsparameter: Aktuell verwendete Einstellungen:
Skalierung der Graphiken ... ?
xyx+y,   Skalierungsfaktor:      Skalierung: Modus: x, Faktor: 1
Darstellungszeitraum ... ?
Vom - - bis: - -   Zeitraum: 12.03.2020 - 25.03.2020
Min/Max/Avg-Anzeige ... ?
Zeige MMA aktuell
Zeige MMA Monat
Zeige MMA alles
Zeige --A aktuell
Zeige --A Monat
Zeige --A alles
Keine MMA-Anzeige
MMA:
Keine MMA-Graphiken
MMA-Basis: 12.03.2020 - 25.03.2020
Quicknavigation für Darstellung... ?
Tage:      1T, 2T, 3T, 5T -1T -2T -3T -5T +1T +2T +3T +5T
Wochen: 1W, 2W, 3W -1W -2W -3W +1W +2W +3W
Monate: 1M, 3M, 6M -1M -3M -6M +1M +3M +6M
Jahre:    1J, 3J, 5J, 10J -1J -3J -5J -10J +1J +3J +5J +10J
Nutze für die Darstellung ... ?
Originaldaten oder Mittelwerte auf ...
Stundenbasis Tagesbasis Wochenbasis
Monatsbasis Jahresbasis      Datenbasis: Original-Daten
Darstellen als:
Statistik (Auto) Statistik J:M      Darstellung:
Zur Graphik,    zurück zur Übersicht aller Sensoren.
 
Tabellarische Datenbersicht: ?
 
Sensor: Nr:Datum:Temp:Feuchte:
Aussen-T/F 1 12-03-2020 00:09:17 13.6 C 34 %
2 12-03-2020 00:19:17 13.6 C 34 %
3 12-03-2020 00:29:17 13.6 C 34 %
4 12-03-2020 00:39:18 13.7 C 34 %
5 12-03-2020 00:49:17 13.8 C 34 %
6 12-03-2020 00:59:17 13.9 C 34 %
7 12-03-2020 01:09:18 13.9 C 34 %
8 12-03-2020 01:19:17 13.8 C 34 %
9 12-03-2020 01:29:17 13.9 C 34 %
10 12-03-2020 01:39:18 13.8 C 34 %
11 12-03-2020 01:49:17 13.7 C 34 %
12 12-03-2020 01:59:17 13.8 C 34 %
13 12-03-2020 02:09:18 13.7 C 34 %
14 12-03-2020 02:19:17 13.7 C 34 %
15 12-03-2020 02:29:18 13.6 C 34 %
16 12-03-2020 02:39:18 13.6 C 33 %
17 12-03-2020 02:49:18 13.6 C 33 %
18 12-03-2020 02:59:18 13.5 C 33 %
19 12-03-2020 03:09:18 13.5 C 33 %
20 12-03-2020 03:19:18 13.5 C 32 %
21 12-03-2020 03:29:18 13.5 C 32 %
22 12-03-2020 03:39:17 13.4 C 32 %
23 12-03-2020 03:49:17 13.2 C 32 %
24 12-03-2020 03:59:17 13.1 C 32 %
25 12-03-2020 04:09:17 13.1 C 32 %
Sensor: Nr:Datum:Temp:Feuchte:
Aussen-T/F 26 12-03-2020 04:19:17 13.1 C 32 %
27 12-03-2020 04:29:17 13 C 32 %
28 12-03-2020 04:39:17 13 C 32 %
29 12-03-2020 04:49:17 13 C 32 %
30 12-03-2020 04:59:17 13 C 32 %
31 12-03-2020 05:09:17 12.7 C 33 %
32 12-03-2020 05:19:17 12.7 C 33 %
33 12-03-2020 05:29:17 12.6 C 34 %
34 12-03-2020 05:39:18 12.5 C 34 %
35 12-03-2020 05:49:17 12.5 C 34 %
36 12-03-2020 05:59:17 12.3 C 34 %
37 12-03-2020 06:09:18 12.2 C 34 %
38 12-03-2020 06:19:18 12.1 C 34 %
39 12-03-2020 06:29:18 12 C 34 %
40 12-03-2020 06:39:18 12 C 35 %
41 12-03-2020 06:49:17 12 C 35 %
42 12-03-2020 06:59:17 11.9 C 35 %
43 12-03-2020 07:09:18 11.9 C 35 %
44 12-03-2020 07:19:18 12 C 35 %
45 12-03-2020 07:29:18 12 C 35 %
46 12-03-2020 07:39:18 12 C 35 %
47 12-03-2020 07:49:17 11.2 C 38 %
48 12-03-2020 07:59:17 11 C 39 %
49 12-03-2020 08:09:18 10.8 C 41 %
50 12-03-2020 08:19:18 10.7 C 42 %
Sensor: Nr:Datum:Temp:Feuchte:
Aussen-T/F 51 12-03-2020 08:29:18 10.4 C 40 %
52 12-03-2020 08:39:18 10.1 C 39 %
53 12-03-2020 08:49:17 10.4 C 38 %
54 12-03-2020 08:59:17 10.2 C 38 %
55 12-03-2020 09:09:18 10.4 C 38 %
56 12-03-2020 09:19:17 10.5 C 37 %
57 12-03-2020 09:29:17 10.9 C 36 %
58 12-03-2020 09:39:17 10.8 C 36 %
59 12-03-2020 09:49:18 11 C 36 %
60 12-03-2020 09:59:18 11.5 C 35 %
61 12-03-2020 10:09:18 11.7 C 34 %
62 12-03-2020 10:19:17 11.5 C 34 %
63 12-03-2020 10:29:17 11.5 C 34 %
64 12-03-2020 10:39:17 11.8 C 33 %
65 12-03-2020 10:49:17 11.3 C 33 %
66 12-03-2020 10:59:17 11.3 C 32 %
67 12-03-2020 11:09:18 11.6 C 28 %
68 12-03-2020 11:19:17 11.5 C 27 %
69 12-03-2020 11:29:17 11.7 C 26 %
70 12-03-2020 11:39:17 11.9 C 23 %
71 12-03-2020 11:49:18 11.9 C 20 %
72 12-03-2020 11:59:18 12.3 C 20 %
73 12-03-2020 12:09:18 12.2 C 20 %
74 12-03-2020 12:19:18 12.4 C 20 %
75 12-03-2020 12:29:18 12.8 C 20 %
Sensor: Nr:Datum:Temp:Feuchte:
Aussen-T/F 76 12-03-2020 12:39:17 12.4 C 20 %
77 12-03-2020 12:49:17 12.1 C 20 %
78 12-03-2020 12:59:18 12 C 20 %
79 12-03-2020 13:09:18 12.2 C 20 %
80 12-03-2020 13:19:17 12.3 C 20 %
81 12-03-2020 13:29:17 12.3 C 20 %
82 12-03-2020 13:39:17 12.7 C 20 %
83 12-03-2020 13:49:17 12.5 C 20 %
84 12-03-2020 13:59:17 12.4 C 20 %
85 12-03-2020 14:09:17 12.2 C 20 %
86 12-03-2020 14:19:17 12.2 C 20 %
87 12-03-2020 14:29:18 12.2 C 20 %
88 12-03-2020 14:39:18 13.4 C 20 %
89 12-03-2020 14:49:17 13 C 20 %
90 12-03-2020 14:59:17 11.8 C 20 %
91 12-03-2020 15:09:17 11.9 C 20 %
92 12-03-2020 15:19:17 11.8 C 20 %
93 12-03-2020 15:29:18 11.9 C 20 %
94 12-03-2020 15:39:18 11.8 C 20 %
95 12-03-2020 15:49:17 11.7 C 20 %
96 12-03-2020 15:59:18 11.6 C 20 %
97 12-03-2020 16:09:18 11.5 C 20 %
98 12-03-2020 16:19:18 11.7 C 20 %
99 12-03-2020 16:29:18 11.7 C 20 %
100 12-03-2020 16:39:18 12.4 C 20 %
Sensor: Nr:Datum:Temp:Feuchte:
Aussen-T/F 101 12-03-2020 16:49:17 11.8 C 20 %
102 12-03-2020 16:59:17 11.5 C 20 %
103 12-03-2020 17:09:17 11.5 C 20 %
104 12-03-2020 17:19:17 11.5 C 20 %
105 12-03-2020 17:29:17 11.2 C 20 %
106 12-03-2020 17:39:18 10.9 C 20 %
107 12-03-2020 17:49:17 11 C 20 %
108 12-03-2020 17:59:18 10.8 C 22 %
109 12-03-2020 18:09:18 10.3 C 25 %
110 12-03-2020 18:19:18 9.8 C 27 %
111 12-03-2020 18:29:18 9.3 C 30 %
112 12-03-2020 18:39:17 8.7 C 31 %
113 12-03-2020 18:49:17 7.9 C 33 %
114 12-03-2020 18:59:17 7.6 C 35 %
115 12-03-2020 19:09:17 7.5 C 34 %
116 12-03-2020 19:19:17 7 C 35 %
117 12-03-2020 19:29:17 6.6 C 36 %
118 12-03-2020 19:39:17 6.5 C 36 %
119 12-03-2020 19:49:17 7.1 C 35 %
120 12-03-2020 19:59:17 6.8 C 35 %
121 12-03-2020 20:09:17 7.6 C 35 %
122 12-03-2020 20:19:17 7.3 C 35 %
123 12-03-2020 20:29:17 6.8 C 35 %
124 12-03-2020 20:39:17 6.8 C 36 %
125 12-03-2020 20:49:17 6.4 C 36 %
Sensor: Nr:Datum:Temp:Feuchte:
Aussen-T/F 126 12-03-2020 20:59:17 6.7 C 36 %
127 12-03-2020 21:09:17 6.3 C 36 %
128 12-03-2020 21:19:17 7.2 C 35 %
129 12-03-2020 21:29:17 7.6 C 35 %
130 12-03-2020 21:39:18 7.4 C 35 %
131 12-03-2020 21:49:17 7.4 C 35 %
132 12-03-2020 21:59:17 7.6 C 35 %
133 12-03-2020 22:09:18 7.6 C 35 %
134 12-03-2020 22:19:18 7.1 C 35 %
135 12-03-2020 22:29:18 7.2 C 35 %
136 12-03-2020 22:39:18 7.5 C 35 %
137 12-03-2020 22:49:17 7.6 C 35 %
138 12-03-2020 22:59:17 7.3 C 35 %
139 12-03-2020 23:09:17 7.2 C 35 %
140 12-03-2020 23:19:17 7 C 35 %
141 12-03-2020 23:29:18 6.2 C 35 %
142 12-03-2020 23:39:18 6.7 C 34 %
143 12-03-2020 23:49:17 6.5 C 34 %
144 12-03-2020 23:59:17 6.4 C 32 %
145 13-03-2020 00:09:17 6.5 C 32 %
146 13-03-2020 00:19:17 6.5 C 32 %
147 13-03-2020 00:29:17 6.1 C 32 %
148 13-03-2020 00:39:17 6.2 C 32 %
149 13-03-2020 00:49:17 6 C 32 %
150 13-03-2020 00:59:17 5.9 C 33 %
Sensor: Nr:Datum:Temp:Feuchte:
Aussen-T/F 151 13-03-2020 01:09:17 5.4 C 33 %
152 13-03-2020 01:19:17 5.4 C 33 %
153 13-03-2020 01:29:17 5.1 C 34 %
154 13-03-2020 01:39:17 5.2 C 34 %
155 13-03-2020 01:49:17 5.2 C 33 %
156 13-03-2020 01:59:17 5.2 C 33 %
157 13-03-2020 02:09:17 4.8 C 35 %
158 13-03-2020 02:19:17 5 C 34 %
159 13-03-2020 02:29:17 5.1 C 34 %
160 13-03-2020 02:39:18 5.1 C 34 %
161 13-03-2020 02:49:17 5.1 C 34 %
162 13-03-2020 02:59:17 5.1 C 34 %
163 13-03-2020 03:09:17 5 C 34 %
164 13-03-2020 03:19:17 5.2 C 34 %
165 13-03-2020 03:29:17 5.2 C 34 %
166 13-03-2020 03:39:18 5.1 C 34 %
167 13-03-2020 03:49:17 5.1 C 34 %
168 13-03-2020 03:59:17 5.2 C 34 %
169 13-03-2020 04:09:17 5 C 34 %
170 13-03-2020 04:19:17 4.9 C 35 %
171 13-03-2020 04:29:17 5.1 C 35 %
172 13-03-2020 04:39:17 5.1 C 35 %
173 13-03-2020 04:49:17 5 C 34 %
174 13-03-2020 04:59:17 5.2 C 34 %
175 13-03-2020 05:09:17 5.2 C 34 %
Sensor: Nr:Datum:Temp:Feuchte:
Aussen-T/F 176 13-03-2020 05:19:17 5.6 C 34 %
177 13-03-2020 05:29:17 5.4 C 34 %
178 13-03-2020 05:39:17 5.4 C 34 %
179 13-03-2020 05:49:18 5.4 C 34 %
180 13-03-2020 05:59:18 5.4 C 34 %
181 13-03-2020 06:09:18 5.6 C 34 %
182 13-03-2020 06:19:17 5.7 C 34 %
183 13-03-2020 06:29:17 5.4 C 34 %
184 13-03-2020 06:39:17 5.4 C 35 %
185 13-03-2020 06:49:17 5.3 C 34 %
186 13-03-2020 06:59:17 5.4 C 35 %
187 13-03-2020 07:09:17 5.3 C 35 %
188 13-03-2020 07:19:17 5.4 C 35 %
189 13-03-2020 07:29:17 5.6 C 35 %
190 13-03-2020 07:39:17 5.7 C 35 %
191 13-03-2020 07:49:18 5.7 C 35 %
192 13-03-2020 07:59:18 5.7 C 35 %
193 13-03-2020 08:09:17 5.8 C 35 %
194 13-03-2020 08:19:17 6 C 35 %
195 13-03-2020 08:29:17 5.9 C 35 %
196 13-03-2020 08:39:18 6 C 35 %
197 13-03-2020 08:49:17 6.2 C 35 %
198 13-03-2020 08:59:17 6.4 C 34 %
199 13-03-2020 09:09:17 6.5 C 35 %
200 13-03-2020 09:19:17 6.9 C 34 %
Sensor: Nr:Datum:Temp:Feuchte:
Aussen-T/F 201 13-03-2020 09:29:17 7.1 C 33 %
202 13-03-2020 09:39:18 7.1 C 33 %
203 13-03-2020 09:49:17 6.6 C 34 %
204 13-03-2020 09:59:17 7.1 C 33 %
205 13-03-2020 10:09:18 7.5 C 33 %
206 13-03-2020 10:19:17 8.5 C 32 %
207 13-03-2020 10:29:17 8.1 C 32 %
208 13-03-2020 10:39:18 8 C 32 %
209 13-03-2020 10:49:17 7.6 C 33 %
210 13-03-2020 10:59:17 7.4 C 35 %
211 13-03-2020 11:09:17 8.9 C 33 %
212 13-03-2020 11:19:17 9.1 C 31 %
213 13-03-2020 11:29:17 8 C 32 %
214 13-03-2020 11:39:17 7.3 C 35 %
215 13-03-2020 11:49:18 7.4 C 35 %
216 13-03-2020 11:59:18 8.2 C 33 %
217 13-03-2020 12:09:18 8.9 C 32 %
218 13-03-2020 12:19:18 9.7 C 29 %
219 13-03-2020 12:29:18 9 C 30 %
220 13-03-2020 12:39:18 9.6 C 30 %
221 13-03-2020 12:49:18 9 C 31 %
222 13-03-2020 12:59:18 8.8 C 31 %
223 13-03-2020 13:09:18 8.4 C 32 %
224 13-03-2020 13:19:18 8.6 C 33 %
225 13-03-2020 13:29:18 9.5 C 31 %
Sensor: Nr:Datum:Temp:Feuchte:
Aussen-T/F 226 13-03-2020 13:39:18 9.9 C 30 %
227 13-03-2020 13:49:17 9.7 C 30 %
228 13-03-2020 13:59:17 9.6 C 30 %
229 13-03-2020 14:09:18 9.3 C 30 %
230 13-03-2020 14:19:18 9.4 C 30 %
231 13-03-2020 14:29:18 8.9 C 32 %
232 13-03-2020 14:39:18 9.5 C 31 %
233 13-03-2020 14:49:18 10.3 C 28 %
234 13-03-2020 14:59:18 10.1 C 28 %
235 13-03-2020 15:09:18 9.5 C 29 %
236 13-03-2020 15:19:17 9.3 C 29 %
237 13-03-2020 15:29:17 10.1 C 27 %
238 13-03-2020 15:39:18 10.4 C 26 %
239 13-03-2020 15:49:18 10.4 C 26 %
240 13-03-2020 15:59:18 10.1 C 27 %
241 13-03-2020 16:09:18 10 C 27 %
242 13-03-2020 16:19:17 9.8 C 27 %
243 13-03-2020 16:29:17 9.1 C 29 %
244 13-03-2020 16:39:17 9 C 30 %
245 13-03-2020 16:49:17 10 C 27 %
246 13-03-2020 16:59:17 9.3 C 30 %
247 13-03-2020 17:09:17 9.1 C 30 %
248 13-03-2020 17:19:18 9.1 C 30 %
249 13-03-2020 17:29:18 9.3 C 30 %
250 13-03-2020 17:39:17 9.4 C 29 %
Sensor: Nr:Datum:Temp:Feuchte:
Aussen-T/F 251 13-03-2020 17:49:18 9.5 C 30 %
252 13-03-2020 17:59:18 9.1 C 31 %
253 13-03-2020 18:09:18 8.7 C 31 %
254 13-03-2020 18:19:17 8.6 C 31 %
255 13-03-2020 18:29:17 8.4 C 31 %
256 13-03-2020 18:39:17 8.2 C 31 %
257 13-03-2020 18:49:17 8.1 C 32 %
258 13-03-2020 18:59:17 8 C 32 %
259 13-03-2020 19:09:17 7.8 C 33 %
260 13-03-2020 19:19:17 7.3 C 35 %
261 13-03-2020 19:29:17 7.3 C 35 %
262 13-03-2020 19:39:18 7.3 C 35 %
263 13-03-2020 19:49:17 7.3 C 35 %
264 13-03-2020 19:59:18 7 C 35 %
265 13-03-2020 20:09:18 6.7 C 36 %
266 13-03-2020 20:19:17 6.7 C 36 %
267 13-03-2020 20:29:17 6.9 C 36 %
268 13-03-2020 20:39:17 6.4 C 36 %
269 13-03-2020 20:49:17 6.3 C 37 %
270 13-03-2020 20:59:17 6.2 C 37 %
271 13-03-2020 21:09:18 5.8 C 38 %
272 13-03-2020 21:19:18 5.8 C 38 %
273 13-03-2020 21:29:18 5.8 C 38 %
274 13-03-2020 21:39:18 6.2 C 37 %
275 13-03-2020 21:49:17 5.7 C 38 %
Sensor: Nr:Datum:Temp:Feuchte:
Aussen-T/F 276 13-03-2020 21:59:17 5.8 C 38 %
277 13-03-2020 22:09:18 5.4 C 39 %
278 13-03-2020 22:19:17 5.6 C 39 %
279 13-03-2020 22:29:18 5.4 C 39 %
280 13-03-2020 22:39:18 5.5 C 40 %
281 13-03-2020 22:49:17 5.7 C 39 %
282 13-03-2020 22:59:17 5.8 C 39 %
283 13-03-2020 23:09:18 5.6 C 39 %
284 13-03-2020 23:19:17 5.6 C 39 %
285 13-03-2020 23:29:17 5.5 C 40 %
286 13-03-2020 23:39:17 5.4 C 40 %
287 13-03-2020 23:49:17 5.4 C 40 %
288 13-03-2020 23:59:17 4.8 C 41 %
289 14-03-2020 00:09:17 4.8 C 41 %
290 14-03-2020 00:19:18 4.6 C 41 %
291 14-03-2020 00:29:18 4.4 C 41 %
292 14-03-2020 00:39:18 3.7 C 42 %
293 14-03-2020 00:49:17 3.5 C 44 %
294 14-03-2020 00:59:17 3 C 43 %
295 14-03-2020 01:09:18 2.6 C 45 %
296 14-03-2020 01:19:17 2.4 C 46 %
297 14-03-2020 01:29:18 2 C 45 %
298 14-03-2020 01:39:18 2 C 46 %
299 14-03-2020 01:49:17 2.4 C 48 %
300 14-03-2020 01:59:18 2.8 C 49 %
Sensor: Nr:Datum:Temp:Feuchte:
Aussen-T/F 301 14-03-2020 02:09:18 3.3 C 47 %
302 14-03-2020 02:19:18 3.6 C 46 %
303 14-03-2020 02:29:18 3.3 C 45 %
304 14-03-2020 02:39:18 3 C 45 %
305 14-03-2020 02:49:18 2.8 C 45 %
306 14-03-2020 02:59:18 2.3 C 46 %
307 14-03-2020 03:09:18 2.2 C 46 %
308 14-03-2020 03:19:17 1.5 C 47 %
309 14-03-2020 03:29:17 1.3 C 47 %
310 14-03-2020 03:39:17 1.4 C 48 %
311 14-03-2020 03:49:18 1.5 C 48 %
312 14-03-2020 03:59:18 1.5 C 49 %
313 14-03-2020 04:09:17 1.7 C 49 %
314 14-03-2020 04:19:17 1.6 C 48 %
315 14-03-2020 04:29:17 1.6 C 49 %
316 14-03-2020 04:39:17 1.5 C 48 %
317 14-03-2020 04:49:17 1.3 C 48 %
318 14-03-2020 04:59:17 1.3 C 48 %
319 14-03-2020 05:09:17 1.3 C 49 %
320 14-03-2020 05:19:17 1.1 C 48 %
321 14-03-2020 05:29:17 0.8 C 49 %
322 14-03-2020 05:39:18 0.9 C 50 %
323 14-03-2020 05:49:17 1.3 C 49 %
324 14-03-2020 05:59:17 0.5 C 49 %
325 14-03-2020 06:09:18 0.3 C 49 %
Sensor: Nr:Datum:Temp:Feuchte:
Aussen-T/F 326 14-03-2020 06:19:18 0.6 C 50 %
327 14-03-2020 06:29:18 0.4 C 49 %
328 14-03-2020 06:39:18 0.4 C 50 %
329 14-03-2020 06:49:17 0.8 C 50 %
330 14-03-2020 06:59:17 0.8 C 50 %
331 14-03-2020 07:09:17 0.7 C 50 %
332 14-03-2020 07:19:17 0.8 C 50 %
333 14-03-2020 07:29:17 0.6 C 49 %
334 14-03-2020 07:39:18 0.6 C 49 %
335 14-03-2020 07:49:17 0.8 C 49 %
336 14-03-2020 07:59:17 0.8 C 50 %
337 14-03-2020 08:09:17 1 C 48 %
338 14-03-2020 08:19:17 1.4 C 49 %
339 14-03-2020 08:29:17 1.7 C 49 %
340 14-03-2020 08:39:18 1.9 C 49 %
341 14-03-2020 08:49:17 2.2 C 48 %
342 14-03-2020 08:59:17 2.5 C 48 %
343 14-03-2020 09:09:17 2.8 C 48 %
344 14-03-2020 09:19:17 3.4 C 46 %
345 14-03-2020 09:29:17 3.7 C 45 %
346 14-03-2020 09:39:18 4.1 C 43 %
347 14-03-2020 09:49:17 4.5 C 43 %
348 14-03-2020 09:59:17 5 C 41 %
349 14-03-2020 10:09:18 5.7 C 41 %
350 14-03-2020 10:19:18 6 C 39 %
Sensor: Nr:Datum:Temp:Feuchte:
Aussen-T/F 351 14-03-2020 10:29:18 6.8 C 40 %
352 14-03-2020 10:39:18 7.7 C 38 %
353 14-03-2020 10:49:17 7.7 C 37 %
354 14-03-2020 10:59:17 8.4 C 36 %
355 14-03-2020 11:09:18 9 C 35 %
356 14-03-2020 11:19:18 10.4 C 34 %
357 14-03-2020 11:29:18 11 C 31 %
358 14-03-2020 11:39:18 10.4 C 31 %
359 14-03-2020 11:49:17 10.1 C 32 %
360 14-03-2020 11:59:17 11.3 C 31 %
361 14-03-2020 12:09:18 13 C 27 %
362 14-03-2020 12:19:17 12.4 C 27 %
363 14-03-2020 12:29:18 12 C 27 %
364 14-03-2020 12:39:18 11.3 C 28 %
365 14-03-2020 12:49:17 11.5 C 28 %
366 14-03-2020 12:59:17 13.1 C 26 %
367 14-03-2020 13:09:18 12.9 C 25 %
368 14-03-2020 13:19:17 13 C 22 %
369 14-03-2020 13:29:17 13.3 C 23 %
370 14-03-2020 13:39:17 12.5 C 22 %
371 14-03-2020 13:49:17 12.4 C 22 %
372 14-03-2020 13:59:17 13.8 C 21 %
373 14-03-2020 14:09:18 12.3 C 22 %
374 14-03-2020 14:19:17 12.5 C 21 %
375 14-03-2020 14:29:17 14 C 20 %
Sensor: Nr:Datum:Temp:Feuchte:
Aussen-T/F 376 14-03-2020 14:39:17 13.7 C 20 %
377 14-03-2020 14:49:18 12.3 C 20 %
378 14-03-2020 14:59:18 11.6 C 23 %
379 14-03-2020 15:09:18 11.4 C 22 %
380 14-03-2020 15:19:17 12.1 C 21 %
381 14-03-2020 15:29:17 12.1 C 20 %
382 14-03-2020 15:39:18 11.7 C 21 %
383 14-03-2020 15:49:17 12 C 20 %
384 14-03-2020 15:59:17 11.8 C 21 %
385 14-03-2020 16:09:18 11.2 C 23 %
386 14-03-2020 16:19:17 10.6 C 25 %
387 14-03-2020 16:29:17 10.4 C 26 %
388 14-03-2020 16:39:18 9.9 C 26 %
389 14-03-2020 16:49:18 10.1 C 26 %
390 14-03-2020 16:59:18 9.8 C 27 %
391 14-03-2020 17:09:18 10.3 C 26 %
392 14-03-2020 17:19:17 10.3 C 26 %
393 14-03-2020 17:29:17 10.7 C 26 %
394 14-03-2020 17:39:17 9.6 C 27 %
395 14-03-2020 17:49:17 9.3 C 28 %
396 14-03-2020 17:59:17 8.6 C 30 %
397 14-03-2020 18:09:17 8.1 C 31 %
398 14-03-2020 18:19:17 7.3 C 33 %
399 14-03-2020 18:29:17 7.1 C 33 %
400 14-03-2020 18:39:17 6.3 C 36 %
Sensor: Nr:Datum:Temp:Feuchte:
Aussen-T/F 401 14-03-2020 18:49:17 5.9 C 37 %
402 14-03-2020 18:59:17 5.9 C 38 %
403 14-03-2020 19:09:17 5.3 C 38 %
404 14-03-2020 19:19:17 5.5 C 39 %
405 14-03-2020 19:29:17 5.1 C 39 %
406 14-03-2020 19:39:17 5.6 C 39 %
407 14-03-2020 19:49:17 5.2 C 39 %
408 14-03-2020 19:59:17 5.3 C 39 %
409 14-03-2020 20:09:18 5.3 C 39 %
410 14-03-2020 20:19:18 5.3 C 39 %
411 14-03-2020 20:29:18 5.3 C 39 %
412 14-03-2020 20:39:18 5.6 C 39 %
413 14-03-2020 20:49:17 5.5 C 39 %
414 14-03-2020 20:59:18 5.7 C 39 %
415 14-03-2020 21:09:18 5.7 C 39 %
416 14-03-2020 21:19:18 5.7 C 39 %
417 14-03-2020 21:29:18 5.6 C 38 %
418 14-03-2020 21:39:17 5.1 C 39 %
419 14-03-2020 21:49:18 5.2 C 39 %
420 14-03-2020 21:59:18 5 C 39 %
421 14-03-2020 22:09:18 5 C 39 %
422 14-03-2020 22:19:17 5 C 39 %
423 14-03-2020 22:29:17 5 C 39 %
424 14-03-2020 22:39:18 5.1 C 39 %
425 14-03-2020 22:49:18 4.8 C 40 %
Sensor: Nr:Datum:Temp:Feuchte:
Aussen-T/F 426 14-03-2020 22:59:18 5.1 C 39 %
427 14-03-2020 23:09:17 5.5 C 39 %
428 14-03-2020 23:19:17 5.7 C 39 %
429 14-03-2020 23:29:17 5.6 C 40 %
430 14-03-2020 23:39:17 5.6 C 39 %
431 14-03-2020 23:49:18 5.8 C 40 %
432 14-03-2020 23:59:18 5.8 C 40 %
433 15-03-2020 00:09:18 5.9 C 39 %
434 15-03-2020 00:19:17 5.8 C 39 %
435 15-03-2020 00:29:17 6.1 C 37 %
436 15-03-2020 00:39:18 6 C 38 %
437 15-03-2020 00:49:18 5.6 C 39 %
438 15-03-2020 00:59:18 5.3 C 39 %
439 15-03-2020 01:09:17 5.1 C 40 %
440 15-03-2020 01:19:18 5.1 C 39 %
441 15-03-2020 01:29:18 5.5 C 39 %
442 15-03-2020 01:39:17 5.2 C 40 %
443 15-03-2020 01:49:17 5.2 C 40 %
444 15-03-2020 01:59:17 5.2 C 40 %
445 15-03-2020 02:09:17 5.1 C 40 %
446 15-03-2020 02:19:17 5.1 C 40 %
447 15-03-2020 02:29:17 4.8 C 40 %
448 15-03-2020 02:39:18 4.5 C 40 %
449 15-03-2020 02:49:17 4.9 C 40 %
450 15-03-2020 02:59:17 5 C 40 %
Sensor: Nr:Datum:Temp:Feuchte:
Aussen-T/F 451 15-03-2020 03:09:17 4.8 C 40 %
452 15-03-2020 03:19:17 4.2 C 40 %
453 15-03-2020 03:29:17 4 C 40 %
454 15-03-2020 03:39:18 4 C 40 %
455 15-03-2020 03:49:17 3.8 C 41 %
456 15-03-2020 03:59:17 3.7 C 42 %
457 15-03-2020 04:09:18 3.7 C 41 %
458 15-03-2020 04:19:18 3.9 C 41 %
459 15-03-2020 04:29:18 3.7 C 41 %
460 15-03-2020 04:39:18 3.8 C 41 %
461 15-03-2020 04:49:17 3.7 C 41 %
462 15-03-2020 04:59:18 3.5 C 41 %
463 15-03-2020 05:09:18 3.5 C 41 %
464 15-03-2020 05:19:17 3.3 C 41 %
465 15-03-2020 05:29:18 3.2 C 41 %
466 15-03-2020 05:39:18 3 C 41 %
467 15-03-2020 05:49:17 3.1 C 41 %
468 15-03-2020 05:59:17 3.1 C 41 %
469 15-03-2020 06:09:18 3.1 C 41 %
470 15-03-2020 06:19:17 3.1 C 41 %
471 15-03-2020 06:29:17 2.9 C 43 %
472 15-03-2020 06:39:18 3.3 C 41 %
473 15-03-2020 06:49:18 3.6 C 41 %
474 15-03-2020 06:59:18 3.3 C 41 %
475 15-03-2020 07:09:18 3 C 42 %
Sensor: Nr:Datum:Temp:Feuchte:
Aussen-T/F 476 15-03-2020 07:19:18 3.1 C 42 %
477 15-03-2020 07:29:18 3.6 C 41 %
478 15-03-2020 07:39:18 3.6 C 41 %
479 15-03-2020 07:49:18 3.5 C 41 %
480 15-03-2020 07:59:18 4 C 41 %
481 15-03-2020 08:09:18 4.8 C 40 %
482 15-03-2020 08:19:18 5.4 C 39 %
483 15-03-2020 08:29:18 5.7 C 39 %
484 15-03-2020 08:39:18 5.9 C 38 %
485 15-03-2020 08:49:17 6.4 C 38 %
486 15-03-2020 08:59:17 6.7 C 38 %
487 15-03-2020 09:09:18 6.8 C 37 %
488 15-03-2020 09:19:18 6.9 C 38 %
489 15-03-2020 09:29:18 7.1 C 37 %
490 15-03-2020 09:39:18 7.8 C 36 %
491 15-03-2020 09:49:18 9.2 C 33 %
492 15-03-2020 09:59:18 9.9 C 32 %
493 15-03-2020 10:09:18 9.9 C 31 %
494 15-03-2020 10:19:18 9.8 C 32 %
495 15-03-2020 10:29:18 10 C 32 %
496 15-03-2020 10:39:18 10.8 C 31 %
497 15-03-2020 10:49:17 11.8 C 29 %
498 15-03-2020 10:59:17 12.5 C 27 %
499 15-03-2020 11:09:17 13.4 C 25 %
500 15-03-2020 11:19:17 14.7 C 23 %
Sensor: Nr:Datum:Temp:Feuchte:
Aussen-T/F 501 15-03-2020 11:29:17 16 C 20 %
502 15-03-2020 11:39:18 15.5 C 20 %
503 15-03-2020 11:49:17 14.9 C 20 %
504 15-03-2020 11:59:18 15.2 C 20 %
505 15-03-2020 12:09:18 14.5 C 20 %
506 15-03-2020 12:19:18 14.1 C 20 %
507 15-03-2020 12:29:18 14.4 C 20 %
508 15-03-2020 12:39:18 14.7 C 20 %
509 15-03-2020 12:49:17 15.2 C 20 %
510 15-03-2020 12:59:17 15.4 C 20 %
511 15-03-2020 13:09:18 14.8 C 20 %
512 15-03-2020 13:19:17 17 C 20 %
513 15-03-2020 13:29:17 18.6 C 20 %
514 15-03-2020 13:39:18 17.4 C 20 %
515 15-03-2020 13:49:17 16.7 C 20 %
516 15-03-2020 13:59:17 16.2 C 20 %
517 15-03-2020 14:09:17 15.5 C 20 %
518 15-03-2020 14:19:17 16.5 C 20 %
519 15-03-2020 14:29:17 16.3 C 20 %
520 15-03-2020 14:39:18 16.6 C 20 %
521 15-03-2020 14:49:17 16.2 C 20 %
522 15-03-2020 14:59:17 16 C 20 %
523 15-03-2020 15:09:17 17.4 C 20 %
524 15-03-2020 15:19:17 20.3 C 20 %
525 15-03-2020 15:29:18 20.4 C 20 %
Sensor: Nr:Datum:Temp:Feuchte:
Aussen-T/F 526 15-03-2020 15:39:18 19.4 C 20 %
527 15-03-2020 15:49:17 20.7 C 20 %
528 15-03-2020 15:59:17 19.9 C 20 %
529 15-03-2020 16:09:17 21.2 C 20 %
530 15-03-2020 16:19:17 20.2 C 20 %
531 15-03-2020 16:29:17 20.5 C 20 %
532 15-03-2020 16:39:17 19.7 C 20 %
533 15-03-2020 16:49:18 18.1 C 20 %
534 15-03-2020 16:59:18 16.9 C 20 %
535 15-03-2020 17:09:18 16 C 20 %
536 15-03-2020 17:19:18 15.5 C 20 %
537 15-03-2020 17:29:18 15.5 C 20 %
538 15-03-2020 17:39:18 14.9 C 20 %
539 15-03-2020 17:49:18 13.8 C 20 %
540 15-03-2020 17:59:18 12.6 C 23 %
541 15-03-2020 18:09:18 12.1 C 25 %
542 15-03-2020 18:19:18 11.7 C 26 %
543 15-03-2020 18:29:18 11.1 C 27 %
544 15-03-2020 18:39:18 10.6 C 28 %
545 15-03-2020 18:49:17 10.4 C 28 %
546 15-03-2020 18:59:17 10 C 28 %
547 15-03-2020 19:09:18 9.6 C 30 %
548 15-03-2020 19:19:18 9.4 C 30 %
549 15-03-2020 19:29:18 9.2 C 31 %
550 15-03-2020 19:39:18 9.1 C 30 %
Sensor: Nr:Datum:Temp:Feuchte:
Aussen-T/F 551 15-03-2020 19:49:17 9 C 31 %
552 15-03-2020 19:59:17 8.9 C 31 %
553 15-03-2020 20:09:18 8.6 C 31 %
554 15-03-2020 20:19:17 8.5 C 32 %
555 15-03-2020 20:29:17 8.2 C 32 %
556 15-03-2020 20:39:18 8.2 C 32 %
557 15-03-2020 20:49:18 8 C 32 %
558 15-03-2020 20:59:18 7.4 C 34 %
559 15-03-2020 21:09:18 7.1 C 35 %
560 15-03-2020 21:19:17 7 C 35 %
561 15-03-2020 21:29:17 7.4 C 35 %
562 15-03-2020 21:39:17 7.5 C 35 %
563 15-03-2020 21:49:17 7.1 C 35 %
564 15-03-2020 21:59:17 6.3 C 36 %
565 15-03-2020 22:09:17 5.8 C 37 %
566 15-03-2020 22:19:17 5.4 C 37 %
567 15-03-2020 22:29:18 5 C 38 %
568 15-03-2020 22:39:17 4.7 C 40 %
569 15-03-2020 22:49:17 4.7 C 40 %
570 15-03-2020 22:59:17 4.7 C 40 %
571 15-03-2020 23:09:17 4.7 C 40 %
572 15-03-2020 23:19:17 4.6 C 40 %
573 15-03-2020 23:29:17 4.5 C 40 %
574 15-03-2020 23:39:17 4.5 C 40 %
575 15-03-2020 23:49:17 4.3 C 40 %
Sensor: Nr:Datum:Temp:Feuchte:
Aussen-T/F 576 15-03-2020 23:59:17 4.1 C 40 %
577 16-03-2020 00:09:17 4 C 40 %
578 16-03-2020 00:19:17 3.8 C 41 %
579 16-03-2020 00:29:17 3.4 C 41 %
580 16-03-2020 00:39:17 3.4 C 42 %
581 16-03-2020 00:49:17 3.3 C 42 %
582 16-03-2020 00:59:17 3.3 C 42 %
583 16-03-2020 01:09:18 2.9 C 43 %
584 16-03-2020 01:19:17 3 C 43 %
585 16-03-2020 01:29:17 3 C 42 %
586 16-03-2020 01:39:17 3.2 C 42 %
587 16-03-2020 01:49:18 2.8 C 43 %
588 16-03-2020 01:59:18 2.6 C 44 %
589 16-03-2020 02:09:17 2.7 C 45 %
590 16-03-2020 02:19:17 2.7 C 44 %
591 16-03-2020 02:29:17 2.4 C 44 %
592 16-03-2020 02:39:17 2.6 C 45 %
593 16-03-2020 02:49:17 2.8 C 45 %
594 16-03-2020 02:59:17 2.8 C 44 %
595 16-03-2020 03:09:18 2.2 C 44 %
596 16-03-2020 03:19:17 2.3 C 44 %
597 16-03-2020 03:29:17 2.2 C 45 %
598 16-03-2020 03:39:17 1.8 C 45 %
599 16-03-2020 03:49:18 2 C 46 %
600 16-03-2020 03:59:18 1.8 C 46 %
Sensor: Nr:Datum:Temp:Feuchte:
Aussen-T/F 601 16-03-2020 04:09:18 1.6 C 46 %
602 16-03-2020 04:19:18 1.7 C 46 %
603 16-03-2020 04:29:18 2 C 46 %
604 16-03-2020 04:39:18 1.5 C 46 %
605 16-03-2020 04:49:17 1.7 C 46 %
606 16-03-2020 04:59:18 1.9 C 46 %
607 16-03-2020 05:09:18 1.7 C 46 %
608 16-03-2020 05:19:18 1.7 C 46 %
609 16-03-2020 05:29:18 1.4 C 46 %
610 16-03-2020 05:39:18 1.3 C 46 %
611 16-03-2020 05:49:17 1.2 C 46 %
612 16-03-2020 05:59:17 1.3 C 47 %
613 16-03-2020 06:09:18 1.1 C 47 %
614 16-03-2020 06:19:17 0.6 C 48 %
615 16-03-2020 06:29:17 0.6 C 48 %
616 16-03-2020 06:39:17 0.6 C 48 %
617 16-03-2020 06:49:17 0.6 C 48 %
618 16-03-2020 06:59:17 0.9 C 49 %
619 16-03-2020 07:09:17 1.2 C 49 %
620 16-03-2020 07:19:17 1.1 C 47 %
621 16-03-2020 07:29:17 1 C 47 %
622 16-03-2020 07:39:17 1.4 C 49 %
623 16-03-2020 07:49:17 1.4 C 48 %
624 16-03-2020 07:59:17 1.7 C 48 %
625 16-03-2020 08:09:18 2 C 47 %
Sensor: Nr:Datum:Temp:Feuchte:
Aussen-T/F 626 16-03-2020 08:19:17 2.3 C 47 %
627 16-03-2020 08:29:18 2.4 C 46 %
628 16-03-2020 08:39:18 2.4 C 46 %
629 16-03-2020 08:49:17 2.6 C 46 %
630 16-03-2020 08:59:17 2.9 C 47 %
631 16-03-2020 09:09:18 3.4 C 46 %
632 16-03-2020 09:19:18 3.7 C 45 %
633 16-03-2020 09:29:18 4 C 45 %
634 16-03-2020 09:39:18 4.6 C 44 %
635 16-03-2020 09:49:18 5 C 43 %
636 16-03-2020 09:59:18 5.6 C 42 %
637 16-03-2020 10:09:18 6.6 C 41 %
638 16-03-2020 10:19:18 7.3 C 40 %
639 16-03-2020 10:29:18 8.3 C 39 %
640 16-03-2020 10:39:17 9.3 C 38 %
641 16-03-2020 10:49:18 10.4 C 37 %
642 16-03-2020 10:59:18 12.4 C 34 %
643 16-03-2020 11:09:17 13.3 C 32 %
644 16-03-2020 11:19:17 14.3 C 30 %
645 16-03-2020 11:29:17 15.4 C 27 %
646 16-03-2020 11:39:18 15.7 C 26 %
647 16-03-2020 11:49:17 15.6 C 25 %
648 16-03-2020 11:59:17 16.1 C 25 %
649 16-03-2020 12:09:17 16.5 C 25 %
650 16-03-2020 12:19:17 16.8 C 25 %
Sensor: Nr:Datum:Temp:Feuchte:
Aussen-T/F 651 16-03-2020 12:29:17 16.4 C 24 %
652 16-03-2020 12:39:17 16.9 C 24 %
653 16-03-2020 12:49:17 18.3 C 21 %
654 16-03-2020 12:59:17 18.7 C 20 %
655 16-03-2020 13:09:17 22.3 C 20 %
656 16-03-2020 13:19:17 21.2 C 20 %
657 16-03-2020 13:29:17 21.1 C 20 %
658 16-03-2020 13:39:17 20.6 C 20 %
659 16-03-2020 13:49:17 21.1 C 20 %
660 16-03-2020 13:59:17 19.7 C 20 %
661 16-03-2020 14:09:17 18.7 C 20 %
662 16-03-2020 14:19:17 19.7 C 20 %
663 16-03-2020 14:29:17 19.7 C 20 %
664 16-03-2020 14:39:17 20 C 20 %
665 16-03-2020 14:49:17 19.2 C 20 %
666 16-03-2020 14:59:17 20.8 C 20 %
667 16-03-2020 15:09:17 20 C 20 %
668 16-03-2020 15:19:17 19.1 C 20 %
669 16-03-2020 15:29:17 18.8 C 20 %
670 16-03-2020 15:39:18 18.8 C 20 %
671 16-03-2020 15:49:17 19 C 20 %
672 16-03-2020 15:59:17 19 C 20 %
673 16-03-2020 16:09:18 18.7 C 20 %
674 16-03-2020 16:19:18 19 C 20 %
675 16-03-2020 16:29:18 21.4 C 20 %
Sensor: Nr:Datum:Temp:Feuchte:
Aussen-T/F 676 16-03-2020 16:39:17 20.8 C 20 %
677 16-03-2020 16:49:17 20.2 C 20 %
678 16-03-2020 16:59:17 19.4 C 20 %
679 16-03-2020 17:09:17 18.4 C 20 %
680 16-03-2020 17:19:17 17.9 C 20 %
681 16-03-2020 17:29:18 17.7 C 20 %
682 16-03-2020 17:39:18 17.5 C 20 %
683 16-03-2020 17:49:17 16.8 C 21 %
684 16-03-2020 17:59:18 16 C 23 %
685 16-03-2020 18:09:18 15 C 26 %
686 16-03-2020 18:19:18 14.3 C 27 %
687 16-03-2020 18:29:18 13.7 C 29 %
688 16-03-2020 18:39:18 13.1 C 30 %
689 16-03-2020 18:49:18 12.7 C 31 %
690 16-03-2020 18:59:18 12.4 C 32 %
691 16-03-2020 19:09:18 12.1 C 32 %
692 16-03-2020 19:19:18 12.2 C 32 %
693 16-03-2020 19:29:18 12.2 C 32 %
694 16-03-2020 19:39:18 11.9 C 34 %
695 16-03-2020 19:49:17 11.5 C 34 %
696 16-03-2020 19:59:18 11 C 35 %
697 16-03-2020 20:09:18 10.7 C 36 %
698 16-03-2020 20:19:18 11.4 C 35 %
699 16-03-2020 20:29:18 10.8 C 36 %
700 16-03-2020 20:39:18 10.3 C 36 %
Sensor: Nr:Datum:Temp:Feuchte:
Aussen-T/F 701 16-03-2020 20:49:18 9.5 C 38 %
702 16-03-2020 20:59:18 10.8 C 37 %
703 16-03-2020 21:09:18 10.1 C 37 %
704 16-03-2020 21:19:17 10.3 C 38 %
705 16-03-2020 21:29:17 9.9 C 38 %
706 16-03-2020 21:39:17 9.7 C 38 %
707 16-03-2020 21:49:18 10.2 C 37 %
708 16-03-2020 21:59:18 9.9 C 38 %
709 16-03-2020 22:09:18 9.7 C 38 %
710 16-03-2020 22:19:18 9.5 C 38 %
711 16-03-2020 22:29:18 9.5 C 39 %
712 16-03-2020 22:39:18 9.2 C 38 %
713 16-03-2020 22:49:18 8.9 C 39 %
714 16-03-2020 22:59:18 9.1 C 39 %
715 16-03-2020 23:09:18 9.4 C 39 %
716 16-03-2020 23:19:17 9.4 C 39 %
717 16-03-2020 23:29:17 9.4 C 39 %
718 16-03-2020 23:39:17 9.5 C 39 %
719 16-03-2020 23:49:17 9.5 C 40 %
720 16-03-2020 23:59:17 9.5 C 39 %
721 17-03-2020 00:09:17 9.3 C 39 %
722 17-03-2020 00:19:17 9.7 C 40 %
723 17-03-2020 00:29:17 9.5 C 39 %
724 17-03-2020 00:39:18 9.3 C 39 %
725 17-03-2020 00:49:18 9.1 C 40 %
Sensor: Nr:Datum:Temp:Feuchte:
Aussen-T/F 726 17-03-2020 00:59:18 9 C 40 %
727 17-03-2020 01:09:18 9.3 C 40 %
728 17-03-2020 01:19:17 9.2 C 40 %
729 17-03-2020 01:29:17 8.9 C 40 %
730 17-03-2020 01:39:17 8.7 C 41 %
731 17-03-2020 01:49:18 8.8 C 41 %
732 17-03-2020 01:59:18 8.8 C 41 %
733 17-03-2020 02:09:18 8.7 C 41 %
734 17-03-2020 02:19:17 8.7 C 41 %
735 17-03-2020 02:29:17 8.7 C 41 %
736 17-03-2020 02:39:17 8.9 C 41 %
737 17-03-2020 02:49:17 8.9 C 41 %
738 17-03-2020 02:59:17 8.8 C 41 %
739 17-03-2020 03:09:18 8.6 C 41 %
740 17-03-2020 03:19:18 8.6 C 41 %
741 17-03-2020 03:29:18 8.4 C 41 %
742 17-03-2020 03:39:17 8.3 C 41 %
743 17-03-2020 03:49:18 8.1 C 42 %
744 17-03-2020 03:59:18 8 C 41 %
745 17-03-2020 04:09:18 8.9 C 42 %
746 17-03-2020 04:19:18 9.2 C 40 %
747 17-03-2020 04:29:18 9.3 C 40 %
748 17-03-2020 04:39:17 9 C 40 %
749 17-03-2020 04:49:18 9 C 40 %
750 17-03-2020 04:59:18 8.6 C 41 %
Sensor: Nr:Datum:Temp:Feuchte:
Aussen-T/F 751 17-03-2020 05:09:17 8.9 C 41 %
752 17-03-2020 05:19:17 9 C 40 %
753 17-03-2020 05:29:17 8.6 C 41 %
754 17-03-2020 05:39:17 8.3 C 41 %
755 17-03-2020 05:49:17 8.2 C 41 %
756 17-03-2020 05:59:18 8.2 C 41 %
757 17-03-2020 06:09:18 8.1 C 41 %
758 17-03-2020 06:19:18 8.1 C 41 %
759 17-03-2020 06:29:18 8 C 41 %
760 17-03-2020 06:39:18 8.2 C 41 %
761 17-03-2020 06:49:18 8.1 C 41 %
762 17-03-2020 06:59:18 8.2 C 41 %
763 17-03-2020 07:09:17 8.8 C 40 %
764 17-03-2020 07:19:17 9 C 40 %
765 17-03-2020 07:29:17 9.5 C 39 %
766 17-03-2020 07:39:17 9.6 C 39 %
767 17-03-2020 07:49:18 9.6 C 39 %
768 17-03-2020 07:59:18 9.8 C 38 %
769 17-03-2020 08:09:18 10.1 C 37 %
770 17-03-2020 08:19:17 10 C 37 %
771 17-03-2020 08:29:17 9.8 C 38 %
772 17-03-2020 08:39:17 9.9 C 38 %
773 17-03-2020 08:49:17 9.9 C 38 %
774 17-03-2020 08:59:17 10 C 37 %
775 17-03-2020 09:09:17 10.2 C 37 %
Sensor: Nr:Datum:Temp:Feuchte:
Aussen-T/F 776 17-03-2020 09:19:18 10.4 C 37 %
777 17-03-2020 09:29:18 10.4 C 37 %
778 17-03-2020 09:39:18 10.6 C 37 %
779 17-03-2020 09:49:17 10.6 C 37 %
780 17-03-2020 09:59:17 10.7 C 37 %
781 17-03-2020 10:09:17 10.7 C 37 %
782 17-03-2020 10:19:17 10.9 C 36 %
783 17-03-2020 10:29:17 11 C 35 %
784 17-03-2020 10:39:17 11.7 C 35 %
785 17-03-2020 10:49:17 12.4 C 33 %
786 17-03-2020 10:59:17 12.9 C 33 %
787 17-03-2020 11:09:17 13.1 C 32 %
788 17-03-2020 11:19:17 13.3 C 31 %
789 17-03-2020 11:29:17 13.3 C 31 %
790 17-03-2020 11:39:17 14.7 C 30 %
791 17-03-2020 11:49:17 14.1 C 29 %
792 17-03-2020 11:59:17 15.4 C 28 %
793 17-03-2020 12:09:17 14.5 C 29 %
794 17-03-2020 12:19:18 14.6 C 27 %
795 17-03-2020 12:29:18 15.2 C 26 %
796 17-03-2020 12:39:18 16.5 C 26 %
797 17-03-2020 12:49:18 16.6 C 24 %
798 17-03-2020 12:59:18 19.3 C 20 %
799 17-03-2020 13:09:17 18.8 C 20 %
800 17-03-2020 13:19:17 20.4 C 20 %
Sensor: Nr:Datum:Temp:Feuchte:
Aussen-T/F 801 17-03-2020 13:29:17 19.5 C 20 %
802 17-03-2020 13:39:17 18.5 C 20 %
803 17-03-2020 13:49:18 18.8 C 20 %
804 17-03-2020 13:59:18 19.3 C 20 %
805 17-03-2020 14:09:17 18.3 C 20 %
806 17-03-2020 14:19:17 18.5 C 20 %
807 17-03-2020 14:29:17 17.9 C 20 %
808 17-03-2020 14:39:18 17.1 C 20 %
809 17-03-2020 14:49:18 20.5 C 20 %
810 17-03-2020 14:59:18 22.2 C 20 %
811 17-03-2020 15:09:17 22.5 C 20 %
812 17-03-2020 15:19:17 22.1 C 20 %
813 17-03-2020 15:29:17 23.8 C 20 %
814 17-03-2020 15:39:18 23.6 C 20 %
815 17-03-2020 15:49:17 23.8 C 20 %
816 17-03-2020 15:59:17 23.9 C 20 %
817 17-03-2020 16:09:18 23.3 C 20 %
818 17-03-2020 16:19:18 21.8 C 20 %
819 17-03-2020 16:29:18 23.2 C 20 %
820 17-03-2020 16:39:17 21.4 C 20 %
821 17-03-2020 16:49:17 22.3 C 20 %
822 17-03-2020 16:59:17 20.1 C 20 %
823 17-03-2020 17:09:17 18.7 C 20 %
824 17-03-2020 17:19:18 17.7 C 20 %
825 17-03-2020 17:29:18 17.3 C 20 %
Sensor: Nr:Datum:Temp:Feuchte:
Aussen-T/F 826 17-03-2020 17:39:18 16.8 C 20 %
827 17-03-2020 17:49:17 16.1 C 22 %
828 17-03-2020 17:59:18 15.3 C 24 %
829 17-03-2020 18:09:18 14.1 C 27 %
830 17-03-2020 18:19:17 13.5 C 28 %
831 17-03-2020 18:29:17 13.2 C 29 %
832 17-03-2020 18:39:18 12.8 C 30 %
833 17-03-2020 18:49:18 12.4 C 31 %
834 17-03-2020 18:59:18 12 C 31 %
835 17-03-2020 19:09:18 11.9 C 32 %
836 17-03-2020 19:19:17 11.8 C 32 %
837 17-03-2020 19:29:17 11.1 C 33 %
838 17-03-2020 19:39:17 11 C 34 %
839 17-03-2020 19:49:17 10.4 C 35 %
840 17-03-2020 19:59:17 10.2 C 35 %
841 17-03-2020 20:09:17 9.9 C 36 %
842 17-03-2020 20:19:17 10.1 C 36 %
843 17-03-2020 20:29:17 10.7 C 35 %
844 17-03-2020 20:39:18 10.4 C 35 %
845 17-03-2020 20:49:18 9.6 C 37 %
846 17-03-2020 20:59:18 9.5 C 37 %
847 17-03-2020 21:09:18 9 C 37 %
848 17-03-2020 21:19:17 8.4 C 39 %
849 17-03-2020 21:29:17 8.4 C 39 %
850 17-03-2020 21:39:17 8.1 C 39 %
Sensor: Nr:Datum:Temp:Feuchte:
Aussen-T/F 851 17-03-2020 21:49:18 8 C 40 %
852 17-03-2020 21:59:18 7.6 C 40 %
853 17-03-2020 22:09:18 7.3 C 40 %
854 17-03-2020 22:19:18 7.2 C 41 %
855 17-03-2020 22:29:18 7 C 41 %
856 17-03-2020 22:39:17 6.9 C 41 %
857 17-03-2020 22:49:17 6.7 C 42 %
858 17-03-2020 22:59:17 6.5 C 42 %
859 17-03-2020 23:09:17 6.4 C 42 %
860 17-03-2020 23:19:17 6.3 C 42 %
861 17-03-2020 23:29:17 6.1 C 42 %
862 17-03-2020 23:39:18 6.1 C 42 %
863 17-03-2020 23:49:18 6.2 C 43 %
864 17-03-2020 23:59:18 6.3 C 43 %
865 18-03-2020 00:09:17 5.9 C 43 %
866 18-03-2020 00:19:17 5.8 C 44 %
867 18-03-2020 00:29:17 5.9 C 44 %
868 18-03-2020 00:39:17 5.8 C 44 %
869 18-03-2020 00:49:17 6 C 44 %
870 18-03-2020 00:59:17 6 C 43 %
871 18-03-2020 01:09:17 5.7 C 44 %
872 18-03-2020 01:19:17 5.6 C 44 %
873 18-03-2020 01:29:17 5.3 C 44 %
874 18-03-2020 01:39:17 5.6 C 45 %
875 18-03-2020 01:49:17 5.3 C 45 %
Sensor: Nr:Datum:Temp:Feuchte:
Aussen-T/F 876 18-03-2020 01:59:17 5.6 C 46 %
877 18-03-2020 02:09:17 5.1 C 44 %
878 18-03-2020 02:19:17 4.8 C 45 %
879 18-03-2020 02:29:17 4.8 C 45 %
880 18-03-2020 02:39:17 4.6 C 46 %
881 18-03-2020 02:49:18 4.3 C 46 %
882 18-03-2020 02:59:18 4.3 C 46 %
883 18-03-2020 03:09:18 4.2 C 46 %
884 18-03-2020 03:19:17 4.2 C 46 %
885 18-03-2020 03:29:17 4.1 C 46 %
886 18-03-2020 03:39:17 4 C 46 %
887 18-03-2020 03:49:17 3.8 C 47 %
888 18-03-2020 03:59:17 3.8 C 47 %
889 18-03-2020 04:09:17 3.8 C 47 %
890 18-03-2020 04:19:18 3.8 C 47 %
891 18-03-2020 04:29:18 3.7 C 47 %
892 18-03-2020 04:39:18 3.7 C 47 %
893 18-03-2020 04:49:18 3.6 C 47 %
894 18-03-2020 04:59:18 3.6 C 47 %
895 18-03-2020 05:09:18 3.7 C 48 %
896 18-03-2020 05:19:18 3.8 C 48 %
897 18-03-2020 05:29:18 3.3 C 47 %
898 18-03-2020 05:39:18 3.2 C 47 %
899 18-03-2020 05:49:18 3.3 C 47 %
900 18-03-2020 05:59:18 3.1 C 47 %
Sensor: Nr:Datum:Temp:Feuchte:
Aussen-T/F 901 18-03-2020 06:09:18 2.9 C 48 %
902 18-03-2020 06:19:17 3.3 C 47 %
903 18-03-2020 06:29:18 3.1 C 47 %
904 18-03-2020 06:39:18 3.1 C 47 %
905 18-03-2020 06:49:17 3.1 C 47 %
906 18-03-2020 06:59:18 3.6 C 47 %
907 18-03-2020 07:09:18 3.5 C 47 %
908 18-03-2020 07:19:17 3.4 C 47 %
909 18-03-2020 07:29:17 3.7 C 47 %
910 18-03-2020 07:39:17 3.9 C 47 %
911 18-03-2020 07:49:18 4 C 46 %
912 18-03-2020 07:59:18 4.9 C 46 %
913 18-03-2020 08:09:18 4.6 C 46 %
914 18-03-2020 08:19:18 4.5 C 46 %
915 18-03-2020 08:29:18 4.7 C 46 %
916 18-03-2020 08:39:17 5 C 45 %
917 18-03-2020 08:49:18 5.3 C 46 %
918 18-03-2020 08:59:18 5.6 C 46 %
919 18-03-2020 09:09:17 6.7 C 45 %
920 18-03-2020 09:19:17 7.1 C 45 %
921 18-03-2020 09:29:17 8.5 C 45 %
922 18-03-2020 09:39:17 9.7 C 41 %
923 18-03-2020 09:49:18 10.5 C 40 %
924 18-03-2020 09:59:18 11 C 38 %
925 18-03-2020 10:09:18 11.1 C 38 %
Sensor: Nr:Datum:Temp:Feuchte:
Aussen-T/F 926 18-03-2020 10:19:18 11.6 C 38 %
927 18-03-2020 10:29:18 11.6 C 37 %
928 18-03-2020 10:39:18 11.7 C 38 %
929 18-03-2020 10:49:18 12 C 36 %
930 18-03-2020 10:59:18 12.2 C 35 %
931 18-03-2020 11:09:18 12.7 C 35 %
932 18-03-2020 11:19:18 12.8 C 34 %
933 18-03-2020 11:29:18 13.3 C 34 %
934 18-03-2020 11:39:18 13.9 C 33 %
935 18-03-2020 11:49:17 14.7 C 32 %
936 18-03-2020 11:59:17 15.3 C 30 %
937 18-03-2020 12:09:18 15.8 C 30 %
938 18-03-2020 12:19:17 16.6 C 29 %
939 18-03-2020 12:29:18 17 C 27 %
940 18-03-2020 12:39:18 17.8 C 26 %
941 18-03-2020 12:49:17 19.1 C 25 %
942 18-03-2020 12:59:17 19.8 C 20 %
943 18-03-2020 13:09:17 21 C 20 %
944 18-03-2020 13:19:17 21.2 C 20 %
945 18-03-2020 13:29:17 19.5 C 20 %
946 18-03-2020 13:39:18 17.7 C 20 %
947 18-03-2020 13:49:17 16.6 C 22 %
948 18-03-2020 13:59:17 16 C 22 %
949 18-03-2020 14:09:17 17.6 C 21 %
950 18-03-2020 14:19:17 16.7 C 20 %
Sensor: Nr:Datum:Temp:Feuchte:
Aussen-T/F 951 18-03-2020 14:29:17 17.9 C 20 %
952 18-03-2020 14:39:18 18.5 C 20 %
953 18-03-2020 14:49:17 17.4 C 20 %
954 18-03-2020 14:59:17 17.4 C 20 %
955 18-03-2020 15:09:17 20.6 C 20 %
956 18-03-2020 15:19:18 17.9 C 20 %
957 18-03-2020 15:29:18 18.2 C 20 %
958 18-03-2020 15:39:18 17.7 C 20 %
959 18-03-2020 15:49:17 16.9 C 20 %
960 18-03-2020 15:59:17 16.7 C 21 %
961 18-03-2020 16:09:17 16.4 C 21 %
962 18-03-2020 16:19:17 16.4 C 22 %
963 18-03-2020 16:29:17 16.4 C 20 %
964 18-03-2020 16:39:17 16.5 C 20 %
965 18-03-2020 16:49:18 16.2 C 21 %
966 18-03-2020 16:59:18 16.1 C 21 %
967 18-03-2020 17:09:17 16 C 21 %
968 18-03-2020 17:19:17 16 C 21 %
969 18-03-2020 17:29:17 15.7 C 22 %
970 18-03-2020 17:39:18 16 C 20 %
971 18-03-2020 17:49:17 16.3 C 20 %
972 18-03-2020 17:59:17 15.8 C 22 %
973 18-03-2020 18:09:17 15.4 C 22 %
974 18-03-2020 18:19:17 14.7 C 26 %
975 18-03-2020 18:29:17 13.7 C 26 %
Sensor: Nr:Datum:Temp:Feuchte:
Aussen-T/F 976 18-03-2020 18:39:17 13.3 C 28 %
977 18-03-2020 18:49:17 12.7 C 30 %
978 18-03-2020 18:59:17 12 C 31 %
979 18-03-2020 19:09:17 11.7 C 32 %
980 18-03-2020 19:19:18 11.5 C 32 %
981 18-03-2020 19:29:18 10.5 C 34 %
982 18-03-2020 19:39:18 10.9 C 34 %
983 18-03-2020 19:49:18 11.1 C 34 %
984 18-03-2020 19:59:18 10.9 C 35 %
985 18-03-2020 20:09:18 10.6 C 35 %
986 18-03-2020 20:19:17 10.4 C 35 %
987 18-03-2020 20:29:17 10.4 C 35 %
988 18-03-2020 20:39:18 10 C 36 %
989 18-03-2020 20:49:17 9.7 C 37 %
990 18-03-2020 20:59:17 9.7 C 37 %
991 18-03-2020 21:09:18 9.7 C 37 %
992 18-03-2020 21:19:17 9.6 C 37 %
993 18-03-2020 21:29:17 9.4 C 37 %
994 18-03-2020 21:39:17 9 C 37 %
995 18-03-2020 21:49:17 8.7 C 38 %
996 18-03-2020 21:59:17 8.4 C 39 %
997 18-03-2020 22:09:17 8.2 C 39 %
998 18-03-2020 22:19:17 8.1 C 40 %
999 18-03-2020 22:29:17 8 C 40 %
1000 18-03-2020 22:39:17 8 C 40 %
Sensor: Nr:Datum:Temp:Feuchte:
Aussen-T/F 1001 18-03-2020 22:49:17 8.1 C 40 %
1002 18-03-2020 22:59:17 8.2 C 40 %
1003 18-03-2020 23:09:18 8.3 C 40 %
1004 18-03-2020 23:19:17 8.1 C 40 %
1005 18-03-2020 23:29:17 8 C 40 %
1006 18-03-2020 23:39:18 8 C 40 %
1007 18-03-2020 23:49:18 8.4 C 40 %
1008 18-03-2020 23:59:18 8.9 C 40 %
1009 19-03-2020 00:09:17 8.9 C 39 %
1010 19-03-2020 00:19:18 8.9 C 38 %
1011 19-03-2020 00:29:18 9 C 38 %
1012 19-03-2020 00:39:18 9 C 38 %
1013 19-03-2020 00:49:17 9.1 C 38 %
1014 19-03-2020 00:59:17 9.1 C 38 %
1015 19-03-2020 01:09:18 9 C 38 %
1016 19-03-2020 01:19:17 9.1 C 38 %
1017 19-03-2020 01:29:17 9 C 38 %
1018 19-03-2020 01:39:17 9 C 38 %
1019 19-03-2020 01:49:17 8.9 C 38 %
1020 19-03-2020 01:59:17 8.8 C 39 %
1021 19-03-2020 02:09:18 8.7 C 39 %
1022 19-03-2020 02:19:17 8.7 C 39 %
1023 19-03-2020 02:29:17 8.6 C 39 %
1024 19-03-2020 02:39:17 8.5 C 39 %
1025 19-03-2020 02:49:18 8.5 C 39 %
Sensor: Nr:Datum:Temp:Feuchte:
Aussen-T/F 1026 19-03-2020 02:59:18 8.5 C 39 %
1027 19-03-2020 03:09:18 8.5 C 39 %
1028 19-03-2020 03:19:18 8.6 C 39 %
1029 19-03-2020 03:29:18 8.5 C 39 %
1030 19-03-2020 03:39:17 8.5 C 39 %
1031 19-03-2020 03:49:18 8.4 C 39 %
1032 19-03-2020 03:59:18 8.4 C 40 %
1033 19-03-2020 04:09:18 8.4 C 40 %
1034 19-03-2020 04:19:17 8.5 C 40 %
1035 19-03-2020 04:29:17 8.5 C 39 %
1036 19-03-2020 04:39:17 8.5 C 39 %
1037 19-03-2020 04:49:18 8.5 C 39 %
1038 19-03-2020 04:59:18 8.5 C 39 %
1039 19-03-2020 05:09:18 8.6 C 39 %
1040 19-03-2020 05:19:18 8.9 C 38 %
1041 19-03-2020 05:29:18 8.7 C 39 %
1042 19-03-2020 05:39:18 8.6 C 39 %
1043 19-03-2020 05:49:17 8.5 C 39 %
1044 19-03-2020 05:59:18 8.4 C 39 %
1045 19-03-2020 06:09:18 8.4 C 39 %
1046 19-03-2020 06:19:17 8.3 C 40 %
1047 19-03-2020 06:29:17 8.2 C 39 %
1048 19-03-2020 06:39:17 8.1 C 40 %
1049 19-03-2020 06:49:17 8.1 C 40 %
1050 19-03-2020 06:59:17 8.2 C 40 %
Sensor: Nr:Datum:Temp:Feuchte:
Aussen-T/F 1051 19-03-2020 07:09:17 8.2 C 40 %
1052 19-03-2020 07:19:17 8.5 C 40 %
1053 19-03-2020 07:29:17 8.7 C 39 %
1054 19-03-2020 07:39:18 8.9 C 39 %
1055 19-03-2020 07:49:18 9.1 C 38 %
1056 19-03-2020 07:59:18 9.4 C 38 %
1057 19-03-2020 08:09:18 9.7 C 38 %
1058 19-03-2020 08:19:17 9.9 C 37 %
1059 19-03-2020 08:29:17 9.9 C 37 %
1060 19-03-2020 08:39:17 10.5 C 36 %
1061 19-03-2020 08:49:18 10.4 C 36 %
1062 19-03-2020 08:59:18 10.2 C 36 %
1063 19-03-2020 09:09:17 11.2 C 35 %
1064 19-03-2020 09:19:17 11.7 C 35 %
1065 19-03-2020 09:29:17 11.5 C 35 %
1066 19-03-2020 09:39:18 11.8 C 35 %
1067 19-03-2020 09:49:17 11.6 C 35 %
1068 19-03-2020 09:59:17 12.4 C 33 %
1069 19-03-2020 10:09:18 12.3 C 32 %
1070 19-03-2020 10:19:18 13.1 C 31 %
1071 19-03-2020 10:29:18 13.5 C 30 %
1072 19-03-2020 10:39:17 13.9 C 31 %
1073 19-03-2020 10:49:17 14.2 C 30 %
1074 19-03-2020 10:59:17 15.4 C 29 %
1075 19-03-2020 11:09:17 15.5 C 29 %
Sensor: Nr:Datum:Temp:Feuchte:
Aussen-T/F 1076 19-03-2020 11:19:17 16.4 C 26 %
1077 19-03-2020 11:29:17 17.7 C 26 %
1078 19-03-2020 11:39:17 18.5 C 24 %
1079 19-03-2020 11:49:17 15.8 C 26 %
1080 19-03-2020 11:59:17 15 C 28 %
1081 19-03-2020 12:09:17 15.2 C 28 %
1082 19-03-2020 12:19:17 15.5 C 28 %
1083 19-03-2020 12:29:17 16.8 C 26 %
1084 19-03-2020 12:39:18 18.1 C 22 %
1085 19-03-2020 12:49:17 18.6 C 20 %
1086 19-03-2020 12:59:17 17.9 C 20 %
1087 19-03-2020 13:09:18 20.4 C 20 %
1088 19-03-2020 13:19:18 25.8 C 20 %
1089 19-03-2020 13:29:18 25.6 C 20 %
1090 19-03-2020 13:39:18 19.7 C 20 %
1091 19-03-2020 13:49:17 18.8 C 20 %
1092 19-03-2020 13:59:17 18.2 C 20 %
1093 19-03-2020 14:09:17 18.7 C 20 %
1094 19-03-2020 14:19:17 18.9 C 20 %
1095 19-03-2020 14:29:17 18.8 C 20 %
1096 19-03-2020 14:39:17 18.9 C 20 %
1097 19-03-2020 14:49:17 19.3 C 20 %
1098 19-03-2020 14:59:17 19.1 C 20 %
1099 19-03-2020 15:09:18 18.5 C 20 %
1100 19-03-2020 15:19:18 19.1 C 20 %
Sensor: Nr:Datum:Temp:Feuchte:
Aussen-T/F 1101 19-03-2020 15:29:18 19.3 C 20 %
1102 19-03-2020 15:39:18 19.8 C 20 %
1103 19-03-2020 15:49:17 21.8 C 20 %
1104 19-03-2020 15:59:18 19.5 C 20 %
1105 19-03-2020 16:09:18 19.1 C 20 %
1106 19-03-2020 16:20:17 19.1 C 20 %
1107 19-03-2020 16:29:17 19.1 C 20 %
1108 19-03-2020 16:39:17 19.1 C 20 %
1109 19-03-2020 16:49:17 19.1 C 20 %
1110 19-03-2020 16:59:17 18.4 C 20 %
1111 19-03-2020 17:09:18 17.6 C 20 %
1112 19-03-2020 17:19:18 17.3 C 20 %
1113 19-03-2020 17:29:18 17 C 20 %
1114 19-03-2020 17:39:18 16.8 C 20 %
1115 19-03-2020 17:49:18 16.9 C 20 %
1116 19-03-2020 17:59:18 16.7 C 20 %
1117 19-03-2020 18:09:18 16.3 C 20 %
1118 19-03-2020 18:20:17 15.7 C 23 %
1119 19-03-2020 18:30:17 13.9 C 29 %
1120 19-03-2020 18:40:17 13.5 C 30 %
1121 19-03-2020 18:50:17 12.8 C 31 %
1122 19-03-2020 18:59:18 12.7 C 31 %
1123 19-03-2020 19:09:18 12.3 C 31 %
1124 19-03-2020 19:20:17 12.2 C 31 %
1125 19-03-2020 19:30:17 11.9 C 32 %
Sensor: Nr:Datum:Temp:Feuchte:
Aussen-T/F 1126 19-03-2020 19:40:17 11.7 C 32 %
1127 19-03-2020 19:50:17 11.7 C 33 %
1128 19-03-2020 19:59:17 11.7 C 33 %
1129 19-03-2020 20:09:17 11.7 C 33 %
1130 19-03-2020 20:29:17 11.5 C 34 %
1131 19-03-2020 20:29:17 11.6 C 34 %
1132 19-03-2020 20:39:17 12 C 33 %
1133 19-03-2020 20:49:17 11.8 C 34 %
1134 19-03-2020 20:59:17 11.5 C 35 %
1135 19-03-2020 21:09:18 12 C 33 %
1136 19-03-2020 21:20:17 11.4 C 35 %
1137 19-03-2020 21:30:17 11.3 C 35 %
1138 19-03-2020 21:40:17 10.3 C 36 %
1139 19-03-2020 21:50:17 10.7 C 36 %
1140 19-03-2020 21:59:18 10.6 C 36 %
1141 19-03-2020 22:09:18 10.1 C 37 %
1142 19-03-2020 22:19:18 9.7 C 38 %
1143 19-03-2020 22:29:18 9.8 C 38 %
1144 19-03-2020 22:39:18 9.5 C 39 %
1145 19-03-2020 22:49:18 9.4 C 39 %
1146 19-03-2020 22:59:18 9.5 C 38 %
1147 19-03-2020 23:09:18 9.5 C 38 %
1148 19-03-2020 23:20:17 9.4 C 39 %
1149 19-03-2020 23:30:17 9.2 C 39 %
1150 19-03-2020 23:40:17 9.6 C 38 %
Sensor: Nr:Datum:Temp:Feuchte:
Aussen-T/F 1151 19-03-2020 23:50:17 9.1 C 39 %
1152 19-03-2020 23:59:18 8.7 C 40 %
1153 20-03-2020 00:09:18 8.6 C 40 %
1154 20-03-2020 00:19:18 9.3 C 39 %
1155 20-03-2020 00:29:18 9.1 C 39 %
1156 20-03-2020 00:39:18 9 C 39 %
1157 20-03-2020 00:59:17 8.8 C 40 %
1158 20-03-2020 01:00:18 8.8 C 40 %
1159 20-03-2020 01:10:18 8.7 C 40 %
1160 20-03-2020 01:20:17 8.7 C 40 %
1161 20-03-2020 01:30:18 8.6 C 40 %
1162 20-03-2020 01:40:18 8.4 C 40 %
1163 20-03-2020 01:50:17 8.5 C 40 %
1164 20-03-2020 02:00:18 8.3 C 40 %
1165 20-03-2020 02:10:18 7.9 C 40 %
1166 20-03-2020 02:20:17 7.6 C 41 %
1167 20-03-2020 02:30:17 7.4 C 41 %
1168 20-03-2020 02:40:17 7.4 C 41 %
1169 20-03-2020 02:50:17 7.1 C 41 %
1170 20-03-2020 03:00:17 7.1 C 42 %
1171 20-03-2020 03:10:17 7.1 C 42 %
1172 20-03-2020 03:20:17 7.1 C 42 %
1173 20-03-2020 03:30:18 7.2 C 42 %
1174 20-03-2020 03:40:18 7.3 C 42 %
1175 20-03-2020 03:50:17 7.5 C 42 %
Sensor: Nr:Datum:Temp:Feuchte:
Aussen-T/F 1176 20-03-2020 04:00:18 7.5 C 42 %
1177 20-03-2020 04:10:18 7.7 C 42 %
1178 20-03-2020 04:20:18 7.6 C 41 %
1179 20-03-2020 04:30:18 7.4 C 42 %
1180 20-03-2020 04:40:18 7.2 C 42 %
1181 20-03-2020 04:50:17 7 C 42 %
1182 20-03-2020 05:00:18 6.9 C 43 %
1183 20-03-2020 05:10:18 6.8 C 43 %
1184 20-03-2020 05:20:17 6.5 C 43 %
1185 20-03-2020 05:30:17 6.2 C 43 %
1186 20-03-2020 05:40:17 5.9 C 44 %
1187 20-03-2020 05:50:17 5.6 C 44 %
1188 20-03-2020 06:00:17 5.4 C 45 %
1189 20-03-2020 06:10:17 5.2 C 45 %
1190 20-03-2020 06:20:17 5 C 45 %
1191 20-03-2020 06:30:17 5.1 C 46 %
1192 20-03-2020 06:40:17 5 C 46 %
1193 20-03-2020 06:50:17 5 C 46 %
1194 20-03-2020 07:00:17 5.1 C 46 %
1195 20-03-2020 07:10:17 5.3 C 46 %
1196 20-03-2020 07:20:17 5.5 C 46 %
1197 20-03-2020 07:30:17 5.6 C 46 %
1198 20-03-2020 07:40:17 5.7 C 46 %
1199 20-03-2020 07:50:18 5.8 C 46 %
1200 20-03-2020 08:00:17 6.3 C 46 %
Sensor: Nr:Datum:Temp:Feuchte:
Aussen-T/F 1201 20-03-2020 08:10:17 6.9 C 45 %
1202 20-03-2020 08:20:17 7.2 C 43 %
1203 20-03-2020 08:30:17 7.1 C 43 %
1204 20-03-2020 08:40:17 7.1 C 43 %
1205 20-03-2020 08:50:17 7.3 C 43 %
1206 20-03-2020 09:00:17 8 C 43 %
1207 20-03-2020 09:10:17 8.2 C 42 %
1208 20-03-2020 09:20:17 9.6 C 42 %
1209 20-03-2020 09:30:17 10 C 40 %
1210 20-03-2020 09:40:17 10.2 C 40 %
1211 20-03-2020 09:50:17 10.5 C 39 %
1212 20-03-2020 10:00:18 10.8 C 39 %
1213 20-03-2020 10:10:18 11.2 C 38 %
1214 20-03-2020 10:20:18 11.1 C 37 %
1215 20-03-2020 10:30:18 11 C 37 %
1216 20-03-2020 10:40:18 11.5 C 37 %
1217 20-03-2020 10:50:18 12.6 C 36 %
1218 20-03-2020 11:00:17 13.1 C 35 %
1219 20-03-2020 11:10:18 13.1 C 35 %
1220 20-03-2020 11:20:18 14.2 C 33 %
1221 20-03-2020 11:30:18 14.5 C 32 %
1222 20-03-2020 11:40:18 15.3 C 31 %
1223 20-03-2020 11:50:18 14.6 C 32 %
1224 20-03-2020 12:00:17 15.6 C 31 %
1225 20-03-2020 12:10:17 15.4 C 30 %
Sensor: Nr:Datum:Temp:Feuchte:
Aussen-T/F 1226 20-03-2020 12:20:17 15.6 C 30 %
1227 20-03-2020 12:30:18 14.4 C 31 %
1228 20-03-2020 12:40:18 14.9 C 31 %
1229 20-03-2020 12:50:18 14.9 C 31 %
1230 20-03-2020 13:00:18 14.9 C 31 %
1231 20-03-2020 13:10:18 14.9 C 31 %
1232 20-03-2020 13:20:18 14.9 C 31 %
1233 20-03-2020 13:30:18 14.9 C 31 %
1234 20-03-2020 13:40:18 14.9 C 31 %
1235 20-03-2020 13:50:17 16.4 C 26 %
1236 20-03-2020 14:00:17 16.2 C 27 %
1237 20-03-2020 14:10:17 16.6 C 26 %
1238 20-03-2020 14:20:17 16.2 C 27 %
1239 20-03-2020 14:30:18 17.4 C 26 %
1240 20-03-2020 14:40:18 17.3 C 26 %
1241 20-03-2020 14:50:18 17.9 C 25 %
1242 20-03-2020 15:00:17 17.9 C 25 %
1243 20-03-2020 15:10:17 18.1 C 25 %
1244 20-03-2020 15:20:17 17 C 25 %
1245 20-03-2020 15:30:18 17.9 C 25 %
1246 20-03-2020 15:40:18 18.5 C 25 %
1247 20-03-2020 15:50:18 17 C 25 %
1248 20-03-2020 16:00:17 16.2 C 26 %
1249 20-03-2020 16:10:17 16.1 C 26 %
1250 20-03-2020 16:20:17 15.5 C 26 %
Sensor: Nr:Datum:Temp:Feuchte:
Aussen-T/F 1251 20-03-2020 16:30:18 15.8 C 26 %
1252 20-03-2020 16:40:18 15.3 C 26 %
1253 20-03-2020 16:50:18 17 C 25 %
1254 20-03-2020 17:00:18 16.1 C 26 %
1255 20-03-2020 17:10:18 15.2 C 27 %
1256 20-03-2020 17:20:18 14.3 C 28 %
1257 20-03-2020 17:30:18 13.9 C 30 %
1258 20-03-2020 17:40:18 12.8 C 31 %
1259 20-03-2020 17:50:17 12.5 C 31 %
1260 20-03-2020 18:00:17 12.4 C 32 %
1261 20-03-2020 18:10:17 11.9 C 33 %
1262 20-03-2020 18:20:17 11.8 C 34 %
1263 20-03-2020 18:30:17 11.6 C 34 %
1264 20-03-2020 18:40:17 11.6 C 34 %
1265 20-03-2020 18:50:18 11.5 C 34 %
1266 20-03-2020 19:00:17 11.5 C 34 %
1267 20-03-2020 19:10:17 11.3 C 34 %
1268 20-03-2020 19:20:17 11.1 C 34 %
1269 20-03-2020 19:30:17 11 C 35 %
1270 20-03-2020 19:40:17 10.7 C 35 %
1271 20-03-2020 19:50:17 10.6 C 35 %
1272 20-03-2020 20:00:17 10.4 C 35 %
1273 20-03-2020 20:10:17 10.2 C 35 %
1274 20-03-2020 20:20:17 10.3 C 35 %
1275 20-03-2020 20:30:17 10.3 C 35 %
Sensor: Nr:Datum:Temp:Feuchte:
Aussen-T/F 1276 20-03-2020 20:40:17 10.2 C 35 %
1277 20-03-2020 20:50:18 10.3 C 35 %
1278 20-03-2020 21:00:18 10.1 C 35 %
1279 20-03-2020 21:10:18 9.9 C 35 %
1280 20-03-2020 21:20:17 9.5 C 35 %
1281 20-03-2020 21:30:17 9.2 C 35 %
1282 20-03-2020 21:40:17 9.1 C 35 %
1283 20-03-2020 21:50:17 8.7 C 36 %
1284 20-03-2020 22:00:17 8.5 C 36 %
1285 20-03-2020 22:10:17 8.4 C 36 %
1286 20-03-2020 22:20:18 8.3 C 36 %
1287 20-03-2020 22:30:17 8.2 C 36 %
1288 20-03-2020 22:40:18 8.1 C 36 %
1289 20-03-2020 22:50:17 8.1 C 36 %
1290 20-03-2020 23:00:18 8 C 35 %
1291 20-03-2020 23:10:18 7.9 C 36 %
1292 20-03-2020 23:20:17 7.9 C 36 %
1293 20-03-2020 23:30:18 7.9 C 35 %
1294 20-03-2020 23:40:18 7.8 C 35 %
1295 20-03-2020 23:50:18 7.7 C 35 %
1296 21-03-2020 00:00:17 7.6 C 34 %
1297 21-03-2020 00:10:17 7.6 C 34 %
1298 21-03-2020 00:20:17 7.4 C 34 %
1299 21-03-2020 00:30:17 7.3 C 34 %
1300 21-03-2020 00:40:17 7.3 C 34 %
Sensor: Nr:Datum:Temp:Feuchte:
Aussen-T/F 1301 21-03-2020 00:50:17 7.3 C 34 %
1302 21-03-2020 01:00:17 7.2 C 33 %
1303 21-03-2020 01:10:17 7.1 C 33 %
1304 21-03-2020 01:20:17 6.8 C 35 %
1305 21-03-2020 01:30:18 6.5 C 35 %
1306 21-03-2020 01:40:18 6.2 C 36 %
1307 21-03-2020 01:50:17 5.9 C 38 %
1308 21-03-2020 02:00:18 5.6 C 39 %
1309 21-03-2020 02:10:18 5.3 C 40 %
1310 21-03-2020 02:20:17 5.1 C 41 %
1311 21-03-2020 02:30:18 4.9 C 43 %
1312 21-03-2020 02:40:18 4.9 C 43 %
1313 21-03-2020 02:50:18 4.6 C 43 %
1314 21-03-2020 03:00:17 4.5 C 43 %
1315 21-03-2020 03:10:17 4.4 C 44 %
1316 21-03-2020 03:20:17 4.5 C 45 %
1317 21-03-2020 03:30:18 4.5 C 45 %
1318 21-03-2020 03:40:18 4.4 C 45 %
1319 21-03-2020 03:50:17 4.4 C 45 %
1320 21-03-2020 04:00:18 4.3 C 45 %
1321 21-03-2020 04:10:18 4.2 C 45 %
1322 21-03-2020 04:20:17 4.1 C 45 %
1323 21-03-2020 04:30:18 4.1 C 45 %
1324 21-03-2020 04:40:18 4 C 45 %
1325 21-03-2020 04:50:18 3.9 C 46 %
Sensor: Nr:Datum:Temp:Feuchte:
Aussen-T/F 1326 21-03-2020 05:00:18 3.9 C 46 %
1327 21-03-2020 05:10:18 4 C 46 %
1328 21-03-2020 05:20:18 3.9 C 47 %
1329 21-03-2020 05:30:18 3.9 C 47 %
1330 21-03-2020 05:40:18 3.9 C 47 %
1331 21-03-2020 05:50:17 4 C 46 %
1332 21-03-2020 06:00:18 4 C 47 %
1333 21-03-2020 06:10:18 3.9 C 47 %
1334 21-03-2020 06:20:17 4 C 47 %
1335 21-03-2020 06:30:18 4 C 47 %
1336 21-03-2020 06:40:18 4 C 47 %
1337 21-03-2020 06:50:17 4 C 47 %
1338 21-03-2020 07:00:17 4.1 C 47 %
1339 21-03-2020 07:10:18 4.1 C 47 %
1340 21-03-2020 07:20:18 4.1 C 47 %
1341 21-03-2020 07:30:18 4.2 C 47 %
1342 21-03-2020 07:40:18 4.3 C 47 %
1343 21-03-2020 07:50:17 4.3 C 47 %
1344 21-03-2020 08:00:18 4.4 C 47 %
1345 21-03-2020 08:10:18 4.5 C 47 %
1346 21-03-2020 08:20:17 4.5 C 46 %
1347 21-03-2020 08:30:17 4.6 C 46 %
1348 21-03-2020 08:40:17 4.7 C 46 %
1349 21-03-2020 08:50:18 4.8 C 46 %
1350 21-03-2020 09:00:18 4.7 C 46 %
Sensor: Nr:Datum:Temp:Feuchte:
Aussen-T/F 1351 21-03-2020 09:10:18 4.6 C 45 %
1352 21-03-2020 09:20:18 5.2 C 43 %
1353 21-03-2020 09:30:18 5.6 C 42 %
1354 21-03-2020 09:40:18 5.8 C 41 %
1355 21-03-2020 09:50:17 6 C 41 %
1356 21-03-2020 10:00:17 6.2 C 41 %
1357 21-03-2020 10:10:18 6.4 C 39 %
1358 21-03-2020 10:20:18 6.5 C 40 %
1359 21-03-2020 10:30:18 6.7 C 39 %
1360 21-03-2020 10:40:18 6.7 C 38 %
1361 21-03-2020 10:50:17 6.4 C 39 %
1362 21-03-2020 11:00:17 6.5 C 37 %
1363 21-03-2020 11:10:18 7.1 C 36 %
1364 21-03-2020 11:20:18 7.3 C 36 %
1365 21-03-2020 11:30:18 8.1 C 34 %
1366 21-03-2020 11:40:18 8 C 34 %
1367 21-03-2020 11:50:18 8.3 C 32 %
1368 21-03-2020 12:00:18 7.8 C 32 %
1369 21-03-2020 12:10:18 7.6 C 33 %
1370 21-03-2020 12:20:17 7.9 C 31 %
1371 21-03-2020 12:30:17 8.7 C 32 %
1372 21-03-2020 12:40:17 8.2 C 30 %
1373 21-03-2020 12:50:17 7.8 C 31 %
1374 21-03-2020 13:00:17 7.9 C 30 %
1375 21-03-2020 13:10:17 8.7 C 30 %
Sensor: Nr:Datum:Temp:Feuchte:
Aussen-T/F 1376 21-03-2020 13:20:18 8.9 C 28 %
1377 21-03-2020 13:30:18 8.5 C 28 %
1378 21-03-2020 13:40:18 8.2 C 27 %
1379 21-03-2020 13:50:17 8.4 C 27 %
1380 21-03-2020 14:00:18 8.6 C 27 %
1381 21-03-2020 14:10:18 9.1 C 26 %
1382 21-03-2020 14:20:18 8.7 C 27 %
1383 21-03-2020 14:30:18 9.1 C 25 %
1384 21-03-2020 14:40:18 11.1 C 24 %
1385 21-03-2020 14:50:17 9.8 C 23 %
1386 21-03-2020 15:00:18 11 C 20 %
1387 21-03-2020 15:10:18 10.1 C 20 %
1388 21-03-2020 15:20:17 11.2 C 20 %
1389 21-03-2020 15:30:17 11.7 C 20 %
1390 21-03-2020 15:40:17 9.4 C 20 %
1391 21-03-2020 15:50:17 8.6 C 20 %
1392 21-03-2020 16:00:18 9.4 C 20 %
1393 21-03-2020 16:10:18 9.5 C 20 %
1394 21-03-2020 16:20:17 12.1 C 20 %
1395 21-03-2020 16:30:17 12 C 20 %
1396 21-03-2020 16:40:17 13.3 C 20 %
1397 21-03-2020 16:50:17 10.9 C 20 %
1398 21-03-2020 17:00:17 9.2 C 20 %
1399 21-03-2020 17:10:17 8.9 C 20 %
1400 21-03-2020 17:20:17 8.3 C 20 %
Sensor: Nr:Datum:Temp:Feuchte:
Aussen-T/F 1401 21-03-2020 17:30:18 7.8 C 20 %
1402 21-03-2020 17:40:18 7.8 C 20 %
1403 21-03-2020 17:50:17 7.5 C 20 %
1404 21-03-2020 18:00:17 7 C 20 %
1405 21-03-2020 18:10:17 6.9 C 20 %
1406 21-03-2020 18:20:17 6.6 C 21 %
1407 21-03-2020 18:30:17 6.4 C 23 %
1408 21-03-2020 18:40:17 5.9 C 25 %
1409 21-03-2020 18:50:17 5.5 C 27 %
1410 21-03-2020 19:00:17 5.5 C 26 %
1411 21-03-2020 19:10:17 5.1 C 28 %
1412 21-03-2020 19:20:17 4.7 C 30 %
1413 21-03-2020 19:30:18 4.4 C 31 %
1414 21-03-2020 19:40:18 4.5 C 30 %
1415 21-03-2020 19:50:17 4.4 C 29 %
1416 21-03-2020 20:00:18 4.1 C 30 %
1417 21-03-2020 20:10:18 3.7 C 31 %
1418 21-03-2020 20:20:18 3.2 C 33 %
1419 21-03-2020 20:30:18 3.7 C 32 %
1420 21-03-2020 20:40:18 3.9 C 30 %
1421 21-03-2020 20:50:17 3.6 C 31 %
1422 21-03-2020 21:00:18 3.3 C 32 %
1423 21-03-2020 21:10:18 3 C 32 %
1424 21-03-2020 21:20:18 3.4 C 32 %
1425 21-03-2020 21:30:18 3.1 C 31 %
Sensor: Nr:Datum:Temp:Feuchte:
Aussen-T/F 1426 21-03-2020 21:40:18 2.9 C 32 %
1427 21-03-2020 21:50:17 2.6 C 33 %
1428 21-03-2020 22:00:17 1.9 C 36 %
1429 21-03-2020 22:10:17 2.3 C 34 %
1430 21-03-2020 22:20:17 3 C 32 %
1431 21-03-2020 22:30:18 2.7 C 32 %
1432 21-03-2020 22:40:18 2.3 C 33 %
1433 21-03-2020 22:50:18 2.7 C 32 %
1434 21-03-2020 23:00:18 2 C 34 %
1435 21-03-2020 23:10:18 2.2 C 33 %
1436 21-03-2020 23:20:18 1.6 C 35 %
1437 21-03-2020 23:30:18 1.7 C 35 %
1438 21-03-2020 23:40:18 1.8 C 35 %
1439 21-03-2020 23:50:17 1.7 C 35 %
1440 22-03-2020 00:00:18 1.4 C 35 %
1441 22-03-2020 00:10:18 1.5 C 35 %
1442 22-03-2020 00:20:17 0.9 C 37 %
1443 22-03-2020 00:30:17 0.7 C 38 %
1444 22-03-2020 00:40:17 1.2 C 36 %
1445 22-03-2020 00:50:17 0.9 C 37 %
1446 22-03-2020 01:00:18 1.5 C 35 %
1447 22-03-2020 01:10:18 1.5 C 35 %
1448 22-03-2020 01:20:18 1.1 C 35 %
1449 22-03-2020 01:30:18 1.1 C 35 %
1450 22-03-2020 01:40:18 0.9 C 36 %
Sensor: Nr:Datum:Temp:Feuchte:
Aussen-T/F 1451 22-03-2020 01:50:18 1 C 35 %
1452 22-03-2020 02:00:18 1 C 35 %
1453 22-03-2020 02:10:18 0.1 C 38 %
1454 22-03-2020 02:20:17 0.3 C 38 %
1455 22-03-2020 02:30:18 0.5 C 37 %
1456 22-03-2020 02:40:18 0.5 C 37 %
1457 22-03-2020 02:50:18 0.4 C 37 %
1458 22-03-2020 03:00:18 0.2 C 37 %
1459 22-03-2020 03:10:18 0.7 C 37 %
1460 22-03-2020 03:20:18 -0.4 C 38 %
1461 22-03-2020 03:30:18 -0.1 C 38 %
1462 22-03-2020 03:40:18 -0.4 C 39 %
1463 22-03-2020 03:50:17 -0.3 C 39 %
1464 22-03-2020 04:00:17 -0.2 C 38 %
1465 22-03-2020 04:10:17 0 C 37 %
1466 22-03-2020 04:20:17 -0.4 C 38 %
1467 22-03-2020 04:30:17 0.3 C 37 %
1468 22-03-2020 04:40:17 0.1 C 37 %
1469 22-03-2020 04:50:17 -0.2 C 38 %
1470 22-03-2020 05:00:18 0.1 C 37 %
1471 22-03-2020 05:10:18 -0.3 C 37 %
1472 22-03-2020 05:20:17 -0.4 C 37 %
1473 22-03-2020 05:30:18 -0.5 C 38 %
1474 22-03-2020 05:40:18 -0.7 C 38 %
1475 22-03-2020 05:50:17 -1 C 39 %
Sensor: Nr:Datum:Temp:Feuchte:
Aussen-T/F 1476 22-03-2020 06:00:17 -1.1 C 39 %
1477 22-03-2020 06:10:17 -0.8 C 39 %
1478 22-03-2020 06:20:17 0.1 C 37 %
1479 22-03-2020 06:30:17 -0.3 C 37 %
1480 22-03-2020 06:40:17 -0.4 C 37 %
1481 22-03-2020 06:50:18 0 C 36 %
1482 22-03-2020 07:00:18 -0.3 C 37 %
1483 22-03-2020 07:10:18 -0.2 C 37 %
1484 22-03-2020 07:20:18 -0.4 C 37 %
1485 22-03-2020 07:30:18 -0.1 C 36 %
1486 22-03-2020 07:40:18 -0.2 C 37 %
1487 22-03-2020 07:50:17 -0.1 C 36 %
1488 22-03-2020 08:00:18 -0.1 C 36 %
1489 22-03-2020 08:10:18 0.3 C 36 %
1490 22-03-2020 08:20:18 0.3 C 35 %
1491 22-03-2020 08:30:18 0.5 C 35 %
1492 22-03-2020 08:40:18 0.8 C 35 %
1493 22-03-2020 08:50:18 0.4 C 35 %
1494 22-03-2020 09:00:18 0.8 C 35 %
1495 22-03-2020 09:10:18 1.2 C 32 %
1496 22-03-2020 09:20:18 1.6 C 32 %
1497 22-03-2020 09:30:18 2.2 C 30 %
1498 22-03-2020 09:40:18 2.5 C 27 %
1499 22-03-2020 09:50:17 2.8 C 26 %
1500 22-03-2020 10:00:18 3.3 C 25 %
Sensor: Nr:Datum:Temp:Feuchte:
Aussen-T/F 1501 22-03-2020 10:10:18 3.6 C 25 %
1502 22-03-2020 10:20:18 3.9 C 20 %
1503 22-03-2020 10:30:18 4.4 C 20 %
1504 22-03-2020 10:40:18 4.6 C 20 %
1505 22-03-2020 10:50:17 5.2 C 20 %
1506 22-03-2020 11:00:18 5.5 C 20 %
1507 22-03-2020 11:10:18 6.3 C 20 %
1508 22-03-2020 11:20:17 6.5 C 20 %
1509 22-03-2020 11:30:18 6.7 C 20 %
1510 22-03-2020 11:40:18 6.7 C 20 %
1511 22-03-2020 11:50:17 6.5 C 20 %
1512 22-03-2020 12:00:18 7 C 20 %
1513 22-03-2020 12:10:18 7.4 C 20 %
1514 22-03-2020 12:20:18 7.3 C 20 %
1515 22-03-2020 12:30:17 6.9 C 20 %
1516 22-03-2020 12:40:17 8 C 20 %
1517 22-03-2020 12:50:18 8.5 C 20 %
1518 22-03-2020 13:00:18 10.1 C 20 %
1519 22-03-2020 13:10:18 11.1 C 20 %
1520 22-03-2020 13:20:17 11.9 C 20 %
1521 22-03-2020 13:30:18 11.6 C 20 %
1522 22-03-2020 13:40:18 10.9 C 20 %
1523 22-03-2020 13:50:18 10.3 C 20 %
1524 22-03-2020 14:00:17 9.6 C 20 %
1525 22-03-2020 14:10:17 10.2 C 20 %
Sensor: Nr:Datum:Temp:Feuchte:
Aussen-T/F 1526 22-03-2020 14:20:17 12.2 C 20 %
1527 22-03-2020 14:30:17 12.6 C 20 %
1528 22-03-2020 14:40:17 14.4 C 20 %
1529 22-03-2020 14:50:17 14.4 C 20 %
1530 22-03-2020 15:00:18 15 C 20 %
1531 22-03-2020 15:10:18 14.4 C 20 %
1532 22-03-2020 15:20:17 14.7 C 20 %
1533 22-03-2020 15:30:17 13.6 C 20 %
1534 22-03-2020 15:40:17 13.7 C 20 %
1535 22-03-2020 15:50:18 15.4 C 20 %
1536 22-03-2020 16:00:18 16.2 C 20 %
1537 22-03-2020 16:10:18 14.9 C 20 %
1538 22-03-2020 16:20:18 14.1 C 20 %
1539 22-03-2020 16:30:18 13.3 C 20 %
1540 22-03-2020 16:40:18 13.2 C 20 %
1541 22-03-2020 16:50:17 11.7 C 20 %
1542 22-03-2020 17:00:17 10.7 C 20 %
1543 22-03-2020 17:10:17 9.9 C 20 %
1544 22-03-2020 17:20:17 9.7 C 20 %
1545 22-03-2020 17:30:17 9.8 C 20 %
1546 22-03-2020 17:40:17 9.5 C 20 %
1547 22-03-2020 17:50:17 8.9 C 20 %
1548 22-03-2020 18:00:18 8.6 C 20 %
1549 22-03-2020 18:10:18 8.4 C 20 %
1550 22-03-2020 18:20:17 7.9 C 20 %
Sensor: Nr:Datum:Temp:Feuchte:
Aussen-T/F 1551 22-03-2020 18:30:17 7.5 C 20 %
1552 22-03-2020 18:40:17 7 C 20 %
1553 22-03-2020 18:50:17 6.5 C 20 %
1554 22-03-2020 19:00:17 5.6 C 20 %
1555 22-03-2020 19:10:17 4.9 C 21 %
1556 22-03-2020 19:20:17 5.2 C 20 %
1557 22-03-2020 19:30:17 4.3 C 26 %
1558 22-03-2020 19:40:17 3.8 C 27 %
1559 22-03-2020 19:50:18 3.7 C 28 %
1560 22-03-2020 20:00:18 3.6 C 28 %
1561 22-03-2020 20:10:18 3.6 C 27 %
1562 22-03-2020 20:20:17 3.6 C 26 %
1563 22-03-2020 20:30:17 3.2 C 26 %
1564 22-03-2020 20:40:17 3 C 26 %
1565 22-03-2020 20:50:17 2.5 C 30 %
1566 22-03-2020 21:00:17 2.9 C 26 %
1567 22-03-2020 21:10:17 2.7 C 27 %
1568 22-03-2020 21:20:17 2.3 C 30 %
1569 22-03-2020 21:30:17 2.2 C 29 %
1570 22-03-2020 21:40:17 1.8 C 30 %
1571 22-03-2020 21:50:18 1.5 C 31 %
1572 22-03-2020 22:00:18 2 C 30 %
1573 22-03-2020 22:10:18 2.5 C 26 %
1574 22-03-2020 22:20:17 1.8 C 30 %
1575 22-03-2020 22:30:17 1.5 C 29 %
Sensor: Nr:Datum:Temp:Feuchte:
Aussen-T/F 1576 22-03-2020 22:40:17 1.3 C 31 %
1577 22-03-2020 22:50:17 1.4 C 30 %
1578 22-03-2020 23:00:17 0.7 C 33 %
1579 22-03-2020 23:10:17 1.1 C 30 %
1580 22-03-2020 23:20:17 0.8 C 32 %
1581 22-03-2020 23:30:18 0.3 C 33 %
1582 22-03-2020 23:40:18 0.3 C 34 %
1583 22-03-2020 23:50:18 0.6 C 33 %
1584 23-03-2020 00:00:18 0.4 C 34 %
1585 23-03-2020 00:10:18 0 C 33 %
1586 23-03-2020 00:20:17 -0.2 C 33 %
1587 23-03-2020 00:30:17 -0.5 C 35 %
1588 23-03-2020 00:40:17 -0.7 C 36 %
1589 23-03-2020 00:50:18 -1.1 C 36 %
1590 23-03-2020 01:00:17 -0.6 C 35 %
1591 23-03-2020 01:10:17 -0.7 C 36 %
1592 23-03-2020 01:20:17 -0.9 C 35 %
1593 23-03-2020 01:30:18 -0.8 C 35 %
1594 23-03-2020 01:40:18 -1.1 C 35 %
1595 23-03-2020 01:50:18 -0.8 C 35 %
1596 23-03-2020 02:00:18 -1.1 C 35 %
1597 23-03-2020 02:10:18 -1.4 C 35 %
1598 23-03-2020 02:20:17 -1.2 C 35 %
1599 23-03-2020 02:30:17 -1.2 C 35 %
1600 23-03-2020 02:40:17 -1.2 C 35 %
Sensor: Nr:Datum:Temp:Feuchte:
Aussen-T/F 1601 23-03-2020 02:50:17 -1.3 C 35 %
1602 23-03-2020 03:00:17 -1.6 C 35 %
1603 23-03-2020 03:10:18 -1.9 C 35 %
1604 23-03-2020 03:20:18 -1.6 C 35 %
1605 23-03-2020 03:30:18 -1.7 C 35 %
1606 23-03-2020 03:40:18 -1.9 C 35 %
1607 23-03-2020 03:50:18 -1.8 C 35 %
1608 23-03-2020 04:00:18 -1.8 C 35 %
1609 23-03-2020 04:10:18 -2.1 C 35 %
1610 23-03-2020 04:20:17 -1.9 C 35 %
1611 23-03-2020 04:30:17 -2 C 35 %
1612 23-03-2020 04:40:17 -2.1 C 35 %
1613 23-03-2020 04:50:17 -2.7 C 36 %
1614 23-03-2020 05:00:18 -2.5 C 36 %
1615 23-03-2020 05:10:18 -2.4 C 36 %
1616 23-03-2020 05:20:17 -2.3 C 36 %
1617 23-03-2020 05:30:18 -2.4 C 35 %
1618 23-03-2020 05:40:18 -2.7 C 36 %
1619 23-03-2020 05:50:17 -2.7 C 36 %
1620 23-03-2020 06:00:18 -2.6 C 36 %
1621 23-03-2020 06:10:18 -2.9 C 36 %
1622 23-03-2020 06:20:17 -2.6 C 36 %
1623 23-03-2020 06:30:18 -2.8 C 36 %
1624 23-03-2020 06:40:18 -3.2 C 36 %
1625 23-03-2020 06:50:18 -3 C 36 %
Sensor: Nr:Datum:Temp:Feuchte:
Aussen-T/F 1626 23-03-2020 07:00:18 -3 C 36 %
1627 23-03-2020 07:10:18 -3.1 C 36 %
1628 23-03-2020 07:20:18 -2.5 C 35 %
1629 23-03-2020 07:30:18 -2.7 C 36 %
1630 23-03-2020 07:40:18 -2.6 C 36 %
1631 23-03-2020 07:50:18 -1.9 C 34 %
1632 23-03-2020 08:00:18 -2 C 35 %
1633 23-03-2020 08:10:18 -1.4 C 32 %
1634 23-03-2020 08:20:17 -1.1 C 31 %
1635 23-03-2020 08:30:18 -0.2 C 27 %
1636 23-03-2020 08:40:18 -0.2 C 26 %
1637 23-03-2020 08:50:18 -0.3 C 25 %
1638 23-03-2020 09:00:18 0 C 23 %
1639 23-03-2020 09:10:18 0.2 C 23 %
1640 23-03-2020 09:20:18 0.5 C 20 %
1641 23-03-2020 09:30:17 0.7 C 20 %
1642 23-03-2020 09:40:17 1.5 C 20 %
1643 23-03-2020 09:50:18 1.8 C 20 %
1644 23-03-2020 10:00:18 2.4 C 20 %
1645 23-03-2020 10:10:18 2.7 C 20 %
1646 23-03-2020 10:20:18 3 C 20 %
1647 23-03-2020 10:30:17 3.8 C 20 %
1648 23-03-2020 10:40:17 4.1 C 20 %
1649 23-03-2020 10:50:17 4.7 C 20 %
1650 23-03-2020 11:00:17 5.5 C 20 %
Sensor: Nr:Datum:Temp:Feuchte:
Aussen-T/F 1651 23-03-2020 11:10:17 5.5 C 20 %
1652 23-03-2020 11:20:17 6 C 20 %
1653 23-03-2020 11:30:18 6.7 C 20 %
1654 23-03-2020 11:40:18 6.2 C 20 %
1655 23-03-2020 11:50:17 6.3 C 20 %
1656 23-03-2020 12:00:18 7 C 20 %
1657 23-03-2020 12:10:18 7.4 C 20 %
1658 23-03-2020 12:20:18 7.8 C 20 %
1659 23-03-2020 12:30:18 7.5 C 20 %
1660 23-03-2020 12:40:18 8.1 C 20 %
1661 23-03-2020 12:50:18 8.7 C 20 %
1662 23-03-2020 13:00:17 10.4 C 20 %
1663 23-03-2020 13:10:17 10.7 C 20 %
1664 23-03-2020 13:20:17 11.9 C 20 %
1665 23-03-2020 13:30:17 11.4 C 20 %
1666 23-03-2020 13:40:17 10 C 20 %
1667 23-03-2020 13:50:17 9.8 C 20 %
1668 23-03-2020 14:00:18 9.2 C 20 %
1669 23-03-2020 14:10:18 10.5 C 20 %
1670 23-03-2020 14:20:18 12.9 C 20 %
1671 23-03-2020 14:30:18 13 C 20 %
1672 23-03-2020 14:40:18 14.2 C 20 %
1673 23-03-2020 14:50:18 14.3 C 20 %
1674 23-03-2020 15:00:18 14.3 C 20 %
1675 23-03-2020 15:10:18 14.4 C 20 %
Sensor: Nr:Datum:Temp:Feuchte:
Aussen-T/F 1676 23-03-2020 15:20:17 14.7 C 20 %
1677 23-03-2020 15:30:17 13.5 C 20 %
1678 23-03-2020 15:40:17 14.4 C 20 %
1679 23-03-2020 15:50:17 14.1 C 20 %
1680 23-03-2020 16:00:17 13.8 C 20 %
1681 23-03-2020 16:10:17 14.7 C 20 %
1682 23-03-2020 16:20:17 15.3 C 20 %
1683 23-03-2020 16:30:18 14.7 C 20 %
1684 23-03-2020 16:40:18 14.8 C 20 %
1685 23-03-2020 16:50:17 11.4 C 20 %
1686 23-03-2020 17:00:18 10.1 C 20 %
1687 23-03-2020 17:10:18 9.7 C 20 %
1688 23-03-2020 17:20:18 9.4 C 20 %
1689 23-03-2020 17:30:18 9 C 20 %
1690 23-03-2020 17:40:18 9 C 20 %
1691 23-03-2020 17:50:17 8.6 C 20 %
1692 23-03-2020 18:00:18 8.3 C 20 %
1693 23-03-2020 18:10:18 7.6 C 20 %
1694 23-03-2020 18:20:17 7.4 C 20 %
1695 23-03-2020 18:30:18 7 C 20 %
1696 23-03-2020 18:40:18 5.3 C 20 %
1697 23-03-2020 18:50:18 4.4 C 20 %
1698 23-03-2020 19:00:18 4.2 C 20 %
1699 23-03-2020 19:10:18 4.1 C 20 %
1700 23-03-2020 19:20:17 3.7 C 20 %
Sensor: Nr:Datum:Temp:Feuchte:
Aussen-T/F 1701 23-03-2020 19:30:18 3.6 C 20 %
1702 23-03-2020 19:40:18 3.4 C 20 %
1703 23-03-2020 19:50:18 2.7 C 20 %
1704 23-03-2020 20:00:17 2.9 C 20 %
1705 23-03-2020 20:10:17 2.6 C 20 %
1706 23-03-2020 20:20:17 2.5 C 20 %
1707 23-03-2020 20:30:18 2.3 C 20 %
1708 23-03-2020 20:40:18 2.4 C 20 %
1709 23-03-2020 20:50:18 2.3 C 20 %
1710 23-03-2020 21:00:18 2.1 C 20 %
1711 23-03-2020 21:10:18 0.9 C 27 %
1712 23-03-2020 21:20:17 1 C 26 %
1713 23-03-2020 21:30:18 1.1 C 28 %
1714 23-03-2020 21:40:18 0.7 C 29 %
1715 23-03-2020 21:50:18 0.2 C 30 %
1716 23-03-2020 22:00:17 -0.4 C 31 %
1717 23-03-2020 22:10:18 -0.9 C 35 %
1718 23-03-2020 22:20:18 -0.2 C 34 %
1719 23-03-2020 22:30:18 -0.9 C 35 %
1720 23-03-2020 22:40:18 -0.9 C 35 %
1721 23-03-2020 22:50:18 -1.3 C 35 %
1722 23-03-2020 23:00:18 -1.4 C 36 %
1723 23-03-2020 23:10:18 -1.6 C 36 %
1724 23-03-2020 23:20:17 -1.7 C 36 %
1725 23-03-2020 23:30:17 -1.7 C 37 %
Sensor: Nr:Datum:Temp:Feuchte:
Aussen-T/F 1726 23-03-2020 23:40:17 -1.9 C 37 %
1727 23-03-2020 23:50:18 -1.8 C 37 %
1728 24-03-2020 00:00:18 -1.9 C 36 %
1729 24-03-2020 00:10:18 -2 C 36 %
1730 24-03-2020 00:20:17 -2.2 C 36 %
1731 24-03-2020 00:30:18 -2.4 C 37 %
1732 24-03-2020 00:40:18 -2.4 C 38 %
1733 24-03-2020 00:50:18 -2.5 C 38 %
1734 24-03-2020 01:00:18 -2.3 C 37 %
1735 24-03-2020 01:10:18 -2.6 C 37 %
1736 24-03-2020 01:20:18 -2.7 C 38 %
1737 24-03-2020 01:30:18 -2.7 C 38 %
1738 24-03-2020 01:40:18 -3 C 38 %
1739 24-03-2020 01:50:18 -2.5 C 37 %
1740 24-03-2020 02:00:18 -2.6 C 38 %
1741 24-03-2020 02:10:18 -2.8 C 38 %
1742 24-03-2020 02:20:17 -3.1 C 38 %
1743 24-03-2020 02:30:17 -3.2 C 38 %
1744 24-03-2020 02:40:17 -3.3 C 38 %
1745 24-03-2020 02:50:17 -3.2 C 38 %
1746 24-03-2020 03:00:17 -3.4 C 38 %
1747 24-03-2020 03:10:17 -3.5 C 38 %
1748 24-03-2020 03:20:17 -3.6 C 39 %
1749 24-03-2020 03:30:17 -3.6 C 38 %
1750 24-03-2020 03:40:17 -3.7 C 38 %
Sensor: Nr:Datum:Temp:Feuchte:
Aussen-T/F 1751 24-03-2020 03:50:17 -3.9 C 39 %
1752 24-03-2020 04:00:18 -3.7 C 39 %
1753 24-03-2020 04:10:18 -3.9 C 38 %
1754 24-03-2020 04:20:18 -4 C 38 %
1755 24-03-2020 04:30:18 -4 C 38 %
1756 24-03-2020 04:40:18 -4 C 38 %
1757 24-03-2020 04:50:17 -3.9 C 38 %
1758 24-03-2020 05:00:17 -4.2 C 38 %
1759 24-03-2020 05:10:17 -4.3 C 39 %
1760 24-03-2020 05:20:17 -4.2 C 38 %
1761 24-03-2020 05:30:18 -4.3 C 38 %
1762 24-03-2020 05:40:18 -4.4 C 38 %
1763 24-03-2020 05:50:18 -4.6 C 39 %
1764 24-03-2020 06:00:17 -4.7 C 39 %
1765 24-03-2020 06:10:18 -4.7 C 38 %
1766 24-03-2020 06:20:17 -4.7 C 39 %
1767 24-03-2020 06:30:18 -4.7 C 38 %
1768 24-03-2020 06:40:18 -4.6 C 39 %
1769 24-03-2020 06:50:18 -4.4 C 38 %
1770 24-03-2020 07:00:18 -4.5 C 39 %
1771 24-03-2020 07:10:18 -4.4 C 39 %
1772 24-03-2020 07:20:18 -4.3 C 39 %
1773 24-03-2020 07:30:18 -4.2 C 39 %
1774 24-03-2020 07:40:18 -4 C 39 %
1775 24-03-2020 07:50:17 -3.8 C 39 %
Sensor: Nr:Datum:Temp:Feuchte:
Aussen-T/F 1776 24-03-2020 08:00:17 -3.7 C 39 %
1777 24-03-2020 08:10:17 -3.5 C 38 %
1778 24-03-2020 08:20:17 -3.3 C 38 %
1779 24-03-2020 08:30:17 -2.5 C 38 %
1780 24-03-2020 08:40:17 -2.4 C 37 %
1781 24-03-2020 08:50:17 -2 C 37 %
1782 24-03-2020 09:00:17 -1.6 C 36 %
1783 24-03-2020 09:10:17 -0.7 C 35 %
1784 24-03-2020 09:20:17 -0.2 C 34 %
1785 24-03-2020 09:30:17 0.4 C 30 %
1786 24-03-2020 09:40:17 1 C 27 %
1787 24-03-2020 09:50:18 1.7 C 23 %
1788 24-03-2020 10:00:18 3 C 20 %
1789 24-03-2020 10:10:18 3.3 C 20 %
1790 24-03-2020 10:20:17 3.9 C 20 %
1791 24-03-2020 10:30:17 4.3 C 20 %
1792 24-03-2020 10:40:17 4.7 C 20 %
1793 24-03-2020 10:50:17 5.7 C 20 %
1794 24-03-2020 11:00:18 5.7 C 20 %
1795 24-03-2020 11:10:18 6.4 C 20 %
1796 24-03-2020 11:20:17 6.9 C 20 %
1797 24-03-2020 11:30:17 7.9 C 20 %
1798 24-03-2020 11:40:17 7.2 C 20 %
1799 24-03-2020 11:50:18 6.8 C 20 %
1800 24-03-2020 12:00:18 7.8 C 20 %
Sensor: Nr:Datum:Temp:Feuchte:
Aussen-T/F 1801 24-03-2020 12:10:18 8.6 C 20 %
1802 24-03-2020 12:20:17 8.2 C 20 %
1803 24-03-2020 12:30:17 8.2 C 20 %
1804 24-03-2020 12:40:17 9 C 20 %
1805 24-03-2020 12:50:17 9.2 C 20 %
1806 24-03-2020 13:00:18 10.4 C 20 %
1807 24-03-2020 13:10:18 11.7 C 20 %
1808 24-03-2020 13:20:17 12.5 C 20 %
1809 24-03-2020 13:30:17 13 C 20 %
1810 24-03-2020 13:40:17 11.9 C 20 %
1811 24-03-2020 13:50:18 11 C 20 %
1812 24-03-2020 14:00:17 10.8 C 20 %
1813 24-03-2020 14:10:17 11.3 C 20 %
1814 24-03-2020 14:20:17 13.7 C 20 %
1815 24-03-2020 14:30:17 12.2 C 20 %
1816 24-03-2020 14:40:17 14.4 C 20 %
1817 24-03-2020 14:50:18 13.4 C 20 %
1818 24-03-2020 15:00:18 13.5 C 20 %
1819 24-03-2020 15:10:18 14.1 C 20 %
1820 24-03-2020 15:20:18 15.3 C 20 %
1821 24-03-2020 15:30:18 14.1 C 20 %
1822 24-03-2020 15:40:18 15.4 C 20 %
1823 24-03-2020 15:50:18 14.9 C 20 %
1824 24-03-2020 16:00:18 14.8 C 20 %
1825 24-03-2020 16:10:18 14.8 C 20 %
Sensor: Nr:Datum:Temp:Feuchte:
Aussen-T/F 1826 24-03-2020 16:20:18 14.1 C 20 %
1827 24-03-2020 16:30:18 13.6 C 20 %
1828 24-03-2020 16:40:18 14.3 C 20 %
1829 24-03-2020 16:50:18 11.4 C 20 %
1830 24-03-2020 17:00:18 10.8 C 20 %
1831 24-03-2020 17:10:18 10.4 C 20 %
1832 24-03-2020 17:20:18 10.1 C 20 %
1833 24-03-2020 17:30:18 9.9 C 20 %
1834 24-03-2020 17:40:18 9.6 C 20 %
1835 24-03-2020 17:50:17 9.3 C 20 %
1836 24-03-2020 18:00:17 9 C 20 %
1837 24-03-2020 18:10:17 8.6 C 20 %
1838 24-03-2020 18:20:17 8.4 C 20 %
1839 24-03-2020 18:30:17 7.6 C 20 %
1840 24-03-2020 18:40:18 6.4 C 20 %
1841 24-03-2020 18:50:17 5.4 C 20 %
1842 24-03-2020 19:00:18 4.9 C 20 %
1843 24-03-2020 19:10:18 4.6 C 20 %
1844 24-03-2020 19:20:18 4.5 C 20 %
1845 24-03-2020 19:30:18 4.1 C 20 %
1846 24-03-2020 19:40:18 3.9 C 20 %
1847 24-03-2020 19:50:17 3.6 C 20 %
1848 24-03-2020 20:00:18 3.6 C 20 %
1849 24-03-2020 20:10:18 3.5 C 20 %
1850 24-03-2020 20:20:17 3.4 C 20 %
Sensor: Nr:Datum:Temp:Feuchte:
Aussen-T/F 1851 24-03-2020 20:30:18 3.4 C 20 %
1852 24-03-2020 20:40:18 2.9 C 20 %
1853 24-03-2020 20:50:18 2.7 C 20 %
1854 24-03-2020 21:00:18 2.7 C 20 %
1855 24-03-2020 21:10:18 2.6 C 20 %
1856 24-03-2020 21:20:17 2.3 C 20 %
1857 24-03-2020 21:30:17 2.3 C 20 %
1858 24-03-2020 21:40:17 2.2 C 20 %
1859 24-03-2020 21:50:17 2.2 C 20 %
1860 24-03-2020 22:00:18 1.7 C 20 %
1861 24-03-2020 22:10:18 1.6 C 20 %
1862 24-03-2020 22:20:17 1.6 C 20 %
1863 24-03-2020 22:30:18 0.3 C 25 %
1864 24-03-2020 22:40:18 -0.2 C 30 %
1865 24-03-2020 22:50:17 -0.7 C 30 %
1866 24-03-2020 23:00:18 -1.2 C 32 %
1867 24-03-2020 23:10:18 -1.1 C 31 %
1868 24-03-2020 23:20:17 -1.4 C 31 %
1869 24-03-2020 23:30:18 -1.7 C 30 %
1870 24-03-2020 23:40:18 -0.9 C 30 %
1871 24-03-2020 23:50:18 -1.2 C 30 %
1872 25-03-2020 00:00:17 -1.6 C 30 %
1873 25-03-2020 00:10:17 -1.6 C 31 %
1874 25-03-2020 00:20:17 -1.8 C 32 %
1875 25-03-2020 00:30:17 -1.8 C 30 %
Sensor: Nr:Datum:Temp:Feuchte:
Aussen-T/F 1876 25-03-2020 00:40:18 -1.9 C 31 %
1877 25-03-2020 00:50:17 -1.8 C 32 %
1878 25-03-2020 01:00:17 -1.6 C 32 %
1879 25-03-2020 01:10:18 -1.3 C 31 %
1880 25-03-2020 01:20:17 -1.1 C 30 %
1881 25-03-2020 01:30:18 -1.1 C 29 %
1882 25-03-2020 01:40:18 -0.9 C 28 %
1883 25-03-2020 01:50:17 -1.1 C 28 %
1884 25-03-2020 02:00:17 -1.1 C 28 %
1885 25-03-2020 02:10:18 -1.3 C 27 %
1886 25-03-2020 02:20:18 -1.4 C 29 %
1887 25-03-2020 02:30:18 -1.6 C 27 %
1888 25-03-2020 02:40:18 -1.5 C 27 %
1889 25-03-2020 02:50:18 -1.4 C 27 %
1890 25-03-2020 03:00:18 -1.4 C 26 %
1891 25-03-2020 03:10:18 -1.4 C 26 %
1892 25-03-2020 03:20:17 -1.5 C 27 %
1893 25-03-2020 03:30:17 -2.3 C 30 %
1894 25-03-2020 03:40:17 -2.6 C 31 %
1895 25-03-2020 03:50:17 -2.8 C 32 %
1896 25-03-2020 04:00:17 -3.1 C 33 %
1897 25-03-2020 04:10:17 -3.2 C 34 %
1898 25-03-2020 04:20:17 -3.3 C 34 %
1899 25-03-2020 04:30:18 -3.3 C 34 %
1900 25-03-2020 04:40:18 -3 C 33 %
Sensor: Nr:Datum:Temp:Feuchte:
Aussen-T/F 1901 25-03-2020 04:50:17 -3.2 C 33 %
1902 25-03-2020 05:00:18 -3 C 32 %
1903 25-03-2020 05:10:18 -2.6 C 32 %
1904 25-03-2020 05:20:17 -2.3 C 30 %
1905 25-03-2020 05:30:17 -2.5 C 30 %
1906 25-03-2020 05:40:17 -3.4 C 33 %
1907 25-03-2020 05:50:17 -4 C 35 %
1908 25-03-2020 06:00:17 -4.4 C 36 %
1909 25-03-2020 06:10:17 -4.2 C 36 %
1910 25-03-2020 06:20:17 -4.2 C 36 %
1911 25-03-2020 06:30:17 -4.4 C 36 %
1912 25-03-2020 06:40:17 -4.3 C 36 %
1913 25-03-2020 06:50:17 -4.3 C 36 %
1914 25-03-2020 07:00:17 -4.3 C 37 %
1915 25-03-2020 07:10:17 -4.3 C 37 %
1916 25-03-2020 07:20:17 -4.1 C 37 %
1917 25-03-2020 07:30:17 -4 C 37 %
1918 25-03-2020 07:40:17 -3.8 C 37 %
1919 25-03-2020 07:50:17 -3.2 C 36 %
1920 25-03-2020 08:00:17 -2.6 C 35 %
1921 25-03-2020 08:10:17 -2 C 32 %
1922 25-03-2020 08:20:17 -2.7 C 35 %
1923 25-03-2020 08:30:17 -2 C 34 %
1924 25-03-2020 08:40:17 -1.9 C 34 %
1925 25-03-2020 08:50:17 -1.6 C 34 %
Sensor: Nr:Datum:Temp:Feuchte:
Aussen-T/F 1926 25-03-2020 09:00:17 -1.5 C 34 %
1927 25-03-2020 09:10:17 -1.3 C 35 %
1928 25-03-2020 09:20:17 -1 C 35 %
1929 25-03-2020 09:30:17 -0.2 C 32 %
1930 25-03-2020 09:40:18 0.7 C 29 %
1931 25-03-2020 09:50:17 2.1 C 20 %
1932 25-03-2020 10:00:18 2.8 C 20 %
1933 25-03-2020 10:10:18 3.2 C 20 %
1934 25-03-2020 10:20:17 3.6 C 20 %
1935 25-03-2020 10:30:17 4.1 C 20 %
1936 25-03-2020 10:40:17 4.7 C 20 %
1937 25-03-2020 10:50:17 5.1 C 20 %
1938 25-03-2020 11:00:17 5.3 C 20 %
1939 25-03-2020 11:10:17 5.7 C 20 %
1940 25-03-2020 11:20:17 7.2 C 20 %
1941 25-03-2020 11:30:18 7.7 C 20 %
1942 25-03-2020 11:40:18 7.3 C 20 %
1943 25-03-2020 11:50:17 6.8 C 20 %
1944 25-03-2020 12:00:17 7.8 C 20 %
1945 25-03-2020 12:10:17 8.3 C 20 %
1946 25-03-2020 12:20:17 8.4 C 20 %
1947 25-03-2020 12:30:17 8.4 C 20 %
1948 25-03-2020 12:40:17 8.6 C 20 %
1949 25-03-2020 12:50:17 10.3 C 20 %
1950 25-03-2020 13:00:17 11.2 C 20 %
Sensor: Nr:Datum:Temp:Feuchte:
Aussen-T/F 1951 25-03-2020 13:10:17 12.2 C 20 %
1952 25-03-2020 13:20:18 13.8 C 20 %
1953 25-03-2020 13:30:18 14.5 C 20 %
1954 25-03-2020 13:40:18 12.4 C 20 %
1955 25-03-2020 13:50:18 12 C 20 %
1956 25-03-2020 14:00:18 11.3 C 20 %
1957 25-03-2020 14:10:18 11.1 C 20 %
1958 25-03-2020 14:20:17 13.2 C 20 %
1959 25-03-2020 14:30:17 13.5 C 20 %
1960 25-03-2020 14:40:17 12.7 C 20 %
1961 25-03-2020 14:50:17 13.5 C 20 %
1962 25-03-2020 15:00:17 13.8 C 20 %
1963 25-03-2020 15:10:17 14.1 C 20 %
1964 25-03-2020 15:20:18 14.9 C 20 %
1965 25-03-2020 15:30:18 14.4 C 20 %
1966 25-03-2020 15:40:18 14.4 C 20 %
1967 25-03-2020 15:50:17 15 C 20 %
1968 25-03-2020 16:00:18 15.3 C 20 %
1969 25-03-2020 16:10:18 14.5 C 20 %
1970 25-03-2020 16:20:17 15.7 C 20 %
1971 25-03-2020 16:30:17 13.8 C 20 %
1972 25-03-2020 16:40:17 12.9 C 20 %
1973 25-03-2020 16:50:18 12.2 C 20 %
1974 25-03-2020 17:00:18 11.9 C 20 %
1975 25-03-2020 17:10:18 11.5 C 20 %
Sensor: Nr:Datum:Temp:Feuchte:
Aussen-T/F 1976 25-03-2020 17:20:17 11.1 C 20 %
1977 25-03-2020 17:30:17 11 C 20 %
1978 25-03-2020 17:40:17 10.7 C 20 %
1979 25-03-2020 17:50:17 10.5 C 20 %
1980 25-03-2020 18:00:18 10.5 C 20 %
1981 25-03-2020 18:10:18 10.1 C 20 %
1982 25-03-2020 18:20:17 9.6 C 20 %
1983 25-03-2020 18:30:18 8.8 C 20 %
1984 25-03-2020 18:40:18 7.7 C 20 %
1985 25-03-2020 18:50:18 7 C 20 %
1986 25-03-2020 19:00:18 6.3 C 20 %
1987 25-03-2020 19:10:18 6.1 C 20 %
1988 25-03-2020 19:20:17 5.4 C 20 %
1989 25-03-2020 19:30:18 5.8 C 20 %
1990 25-03-2020 19:40:18 5.1 C 20 %
1991 25-03-2020 19:50:17 4.6 C 20 %
1992 25-03-2020 20:00:17 4.5 C 20 %
1993 25-03-2020 20:10:17 4.1 C 20 %
1994 25-03-2020 20:20:17 4 C 20 %
1995 25-03-2020 20:30:18 4.7 C 20 %
1996 25-03-2020 20:40:18 4.3 C 20 %
1997 25-03-2020 20:50:17 3.8 C 20 %
1998 25-03-2020 21:00:18 4.6 C 20 %
1999 25-03-2020 21:10:18 4.6 C 20 %
2000 25-03-2020 21:20:17 4.3 C 20 %
Sensor: Nr:Datum:Temp:Feuchte:
Aussen-T/F 2001 25-03-2020 21:30:17 4.3 C 20 %
2002 25-03-2020 21:40:17 4 C 20 %
2003 25-03-2020 21:50:17 3.6 C 20 %
2004 25-03-2020 22:00:17 2.8 C 20 %
2005 25-03-2020 22:10:17 2.6 C 20 %
2006 25-03-2020 22:20:17 2.6 C 20 %
2007 25-03-2020 22:30:18 2.1 C 20 %
2008 25-03-2020 22:40:18 2.3 C 20 %
2009 25-03-2020 22:50:18 2.1 C 20 %
2010 25-03-2020 23:00:18 1.7 C 20 %
2011 25-03-2020 23:10:18 1.7 C 23 %
2012 25-03-2020 23:20:17 1.6 C 23 %
2013 25-03-2020 23:30:18 1.5 C 21 %
2014 25-03-2020 23:40:18 1.8 C 20 %
2015 25-03-2020 23:50:18 1.8 C 20 %
Sensor: Nr:Datum:Temp:Feuchte:
G-T/H 1 12-03-2020 00:09:17 12.3 C 76 %
2 12-03-2020 00:19:17 12.4 C 76 %
3 12-03-2020 00:29:17 12.4 C 76 %
4 12-03-2020 00:39:18 12.4 C 76 %
5 12-03-2020 00:49:17 12.3 C 76 %
6 12-03-2020 00:59:17 12.4 C 76 %
7 12-03-2020 01:09:18 12.4 C 76 %
8 12-03-2020 01:19:17 12.4 C 76 %
9 12-03-2020 01:29:17 12.4 C 76 %
10 12-03-2020 01:39:18 12.4 C 76 %
11 12-03-2020 01:49:17 12.4 C 76 %
12 12-03-2020 01:59:17 12.4 C 76 %
13 12-03-2020 02:09:18 12.4 C 76 %
14 12-03-2020 02:19:17 12.4 C 76 %
15 12-03-2020 02:29:18 12.4 C 76 %
16 12-03-2020 02:39:18 12.4 C 76 %
17 12-03-2020 02:49:18 12.4 C 76 %
18 12-03-2020 02:59:18 12.4 C 76 %
19 12-03-2020 03:09:18 12.4 C 76 %
20 12-03-2020 03:19:18 12.4 C 76 %
21 12-03-2020 03:29:18 12.4 C 76 %
22 12-03-2020 03:39:17 12.4 C 76 %
23 12-03-2020 03:49:17 12.4 C 76 %
24 12-03-2020 03:59:17 12.4 C 76 %
25 12-03-2020 04:09:17 12.4 C 76 %
Sensor: Nr:Datum:Temp:Feuchte:
G-T/H 26 12-03-2020 04:19:17 12.4 C 76 %
27 12-03-2020 04:29:17 12.4 C 76 %
28 12-03-2020 04:39:17 12.4 C 76 %
29 12-03-2020 04:49:17 12.4 C 76 %
30 12-03-2020 04:59:17 12.4 C 76 %
31 12-03-2020 05:09:17 12.4 C 76 %
32 12-03-2020 05:19:17 12.4 C 76 %
33 12-03-2020 05:29:17 12.4 C 76 %
34 12-03-2020 05:39:18 12.4 C 76 %
35 12-03-2020 05:49:17 12.4 C 76 %
36 12-03-2020 05:59:17 12.4 C 76 %
37 12-03-2020 06:09:18 12.4 C 76 %
38 12-03-2020 06:19:18 12.4 C 76 %
39 12-03-2020 06:29:18 12.4 C 76 %
40 12-03-2020 06:39:18 12.4 C 76 %
41 12-03-2020 06:49:17 12.4 C 76 %
42 12-03-2020 06:59:17 12.4 C 76 %
43 12-03-2020 07:09:18 12.4 C 76 %
44 12-03-2020 07:19:18 12.4 C 76 %
45 12-03-2020 07:29:18 12.4 C 76 %
46 12-03-2020 07:39:18 12.4 C 76 %
47 12-03-2020 07:49:17 12.4 C 76 %
48 12-03-2020 07:59:17 12.4 C 76 %
49 12-03-2020 08:09:18 12.4 C 76 %
50 12-03-2020 08:19:18 12.4 C 76 %
Sensor: Nr:Datum:Temp:Feuchte:
G-T/H 51 12-03-2020 08:29:18 12.4 C 76 %
52 12-03-2020 08:39:18 12.4 C 76 %
53 12-03-2020 08:49:17 12.4 C 76 %
54 12-03-2020 08:59:17 12.4 C 76 %
55 12-03-2020 09:09:18 12.4 C 76 %
56 12-03-2020 09:19:17 12.4 C 76 %
57 12-03-2020 09:29:17 12.4 C 76 %
58 12-03-2020 09:39:17 12.4 C 76 %
59 12-03-2020 09:49:18 12.4 C 76 %
60 12-03-2020 09:59:18 12.4 C 76 %
61 12-03-2020 10:09:18 12.4 C 76 %
62 12-03-2020 10:19:17 12.4 C 76 %
63 12-03-2020 10:29:17 12.4 C 76 %
64 12-03-2020 10:39:17 12.4 C 76 %
65 12-03-2020 10:49:17 12.4 C 75 %
66 12-03-2020 10:59:17 12.4 C 75 %
67 12-03-2020 11:09:18 12.4 C 75 %
68 12-03-2020 11:19:17 12.4 C 75 %
69 12-03-2020 11:29:17 12.4 C 75 %
70 12-03-2020 11:39:17 12.4 C 74 %
71 12-03-2020 11:49:18 12.4 C 74 %
72 12-03-2020 11:59:18 12.4 C 73 %
73 12-03-2020 12:09:18 12.3 C 72 %
74 12-03-2020 12:19:18 12.4 C 71 %
75 12-03-2020 12:29:18 12.4 C 70 %
Sensor: Nr:Datum:Temp:Feuchte:
G-T/H 76 12-03-2020 12:39:17 12.4 C 69 %
77 12-03-2020 12:49:17 12.4 C 69 %
78 12-03-2020 12:59:18 12.3 C 68 %
79 12-03-2020 13:09:18 12.3 C 68 %
80 12-03-2020 13:19:17 12.3 C 67 %
81 12-03-2020 13:29:17 12.3 C 67 %
82 12-03-2020 13:39:17 12.3 C 67 %
83 12-03-2020 13:49:17 12.3 C 67 %
84 12-03-2020 13:59:17 12.3 C 66 %
85 12-03-2020 14:09:17 12.3 C 66 %
86 12-03-2020 14:19:17 12.3 C 66 %
87 12-03-2020 14:29:18 12.3 C 66 %
88 12-03-2020 14:39:18 12.3 C 65 %
89 12-03-2020 14:49:17 12.3 C 65 %
90 12-03-2020 14:59:17 12.3 C 65 %
91 12-03-2020 15:09:17 12.3 C 65 %
92 12-03-2020 15:19:17 12.3 C 65 %
93 12-03-2020 15:29:18 12.3 C 65 %
94 12-03-2020 15:39:18 12.3 C 66 %
95 12-03-2020 15:49:17 12.3 C 67 %
96 12-03-2020 15:59:18 12.3 C 67 %
97 12-03-2020 16:09:18 12.3 C 68 %
98 12-03-2020 16:19:18 12.3 C 68 %
99 12-03-2020 16:29:18 12.3 C 67 %
100 12-03-2020 16:39:18 12.3 C 67 %
Sensor: Nr:Datum:Temp:Feuchte:
G-T/H 101 12-03-2020 16:49:17 12.3 C 66 %
102 12-03-2020 16:59:17 12.3 C 66 %
103 12-03-2020 17:09:17 12.2 C 65 %
104 12-03-2020 17:19:17 12.3 C 65 %
105 12-03-2020 17:29:17 12.3 C 64 %
106 12-03-2020 17:39:18 12.3 C 64 %
107 12-03-2020 17:49:17 12.3 C 64 %
108 12-03-2020 17:59:18 12.3 C 64 %
109 12-03-2020 18:09:18 12.3 C 64 %
110 12-03-2020 18:19:18 12.2 C 64 %
111 12-03-2020 18:29:18 12.2 C 64 %
112 12-03-2020 18:39:17 12.2 C 65 %
113 12-03-2020 18:49:17 12.2 C 66 %
114 12-03-2020 18:59:17 12.2 C 66 %
115 12-03-2020 19:09:17 12.2 C 67 %
116 12-03-2020 19:19:17 12.2 C 67 %
117 12-03-2020 19:29:17 12.2 C 67 %
118 12-03-2020 19:39:17 12.2 C 68 %
119 12-03-2020 19:49:17 12.2 C 68 %
120 12-03-2020 19:59:17 12.1 C 67 %
121 12-03-2020 20:09:17 12.1 C 67 %
122 12-03-2020 20:19:17 12.1 C 67 %
123 12-03-2020 20:29:17 12.1 C 67 %
124 12-03-2020 20:39:17 12.1 C 67 %
125 12-03-2020 20:49:17 12.1 C 66 %
Sensor: Nr:Datum:Temp:Feuchte:
G-T/H 126 12-03-2020 20:59:17 12.1 C 66 %
127 12-03-2020 21:09:17 12.1 C 66 %
128 12-03-2020 21:19:17 12 C 66 %
129 12-03-2020 21:29:17 12 C 66 %
130 12-03-2020 21:39:18 12 C 67 %
131 12-03-2020 21:49:17 12 C 67 %
132 12-03-2020 21:59:17 12 C 67 %
133 12-03-2020 22:09:18 12.1 C 68 %
134 12-03-2020 22:19:18 12.1 C 68 %
135 12-03-2020 22:29:18 12 C 68 %
136 12-03-2020 22:39:18 12 C 68 %
137 12-03-2020 22:49:17 12 C 69 %
138 12-03-2020 22:59:17 12 C 69 %
139 12-03-2020 23:09:17 12 C 69 %
140 12-03-2020 23:19:17 12 C 69 %
141 12-03-2020 23:29:18 12 C 69 %
142 12-03-2020 23:39:18 11.9 C 69 %
143 12-03-2020 23:49:17 11.9 C 69 %
144 12-03-2020 23:59:17 11.9 C 68 %
145 13-03-2020 00:09:17 11.9 C 68 %
146 13-03-2020 00:19:17 11.8 C 68 %
147 13-03-2020 00:29:17 11.8 C 67 %
148 13-03-2020 00:39:17 11.8 C 67 %
149 13-03-2020 00:49:17 11.8 C 67 %
150 13-03-2020 00:59:17 11.8 C 67 %
Sensor: Nr:Datum:Temp:Feuchte:
G-T/H 151 13-03-2020 01:09:17 11.7 C 67 %
152 13-03-2020 01:19:17 11.7 C 66 %
153 13-03-2020 01:29:17 11.7 C 66 %
154 13-03-2020 01:39:17 11.7 C 66 %
155 13-03-2020 01:49:17 11.7 C 66 %
156 13-03-2020 01:59:17 11.7 C 66 %
157 13-03-2020 02:09:17 11.6 C 66 %
158 13-03-2020 02:19:17 11.6 C 66 %
159 13-03-2020 02:29:17 11.6 C 66 %
160 13-03-2020 02:39:18 11.5 C 66 %
161 13-03-2020 02:49:17 11.5 C 65 %
162 13-03-2020 02:59:17 11.5 C 65 %
163 13-03-2020 03:09:17 11.5 C 65 %
164 13-03-2020 03:19:17 11.5 C 65 %
165 13-03-2020 03:29:17 11.4 C 65 %
166 13-03-2020 03:39:18 11.4 C 65 %
167 13-03-2020 03:49:17 11.4 C 65 %
168 13-03-2020 03:59:17 11.4 C 65 %
169 13-03-2020 04:09:17 11.4 C 65 %
170 13-03-2020 04:19:17 11.4 C 65 %
171 13-03-2020 04:29:17 11.3 C 65 %
172 13-03-2020 04:39:17 11.3 C 65 %
173 13-03-2020 04:49:17 11.3 C 65 %
174 13-03-2020 04:59:17 11.3 C 65 %
175 13-03-2020 05:09:17 11.2 C 65 %
Sensor: Nr:Datum:Temp:Feuchte:
G-T/H 176 13-03-2020 05:19:17 11.2 C 65 %
177 13-03-2020 05:29:17 11.2 C 65 %
178 13-03-2020 05:39:17 11.2 C 65 %
179 13-03-2020 05:49:18 11.1 C 65 %
180 13-03-2020 05:59:18 11.1 C 65 %
181 13-03-2020 06:09:18 11.1 C 65 %
182 13-03-2020 06:19:17 11.1 C 65 %
183 13-03-2020 06:29:17 11.1 C 65 %
184 13-03-2020 06:39:17 11.1 C 65 %
185 13-03-2020 06:49:17 11 C 65 %
186 13-03-2020 06:59:17 11 C 65 %
187 13-03-2020 07:09:17 11 C 65 %
188 13-03-2020 07:19:17 11 C 65 %
189 13-03-2020 07:29:17 11 C 65 %
190 13-03-2020 07:39:17 11 C 65 %
191 13-03-2020 07:49:18 10.9 C 66 %
192 13-03-2020 07:59:18 10.9 C 66 %
193 13-03-2020 08:09:17 10.9 C 66 %
194 13-03-2020 08:19:17 11 C 66 %
195 13-03-2020 08:29:17 11 C 66 %
196 13-03-2020 08:39:18 10.9 C 67 %
197 13-03-2020 08:49:17 10.9 C 67 %
198 13-03-2020 08:59:17 10.9 C 67 %
199 13-03-2020 09:09:17 10.9 C 68 %
200 13-03-2020 09:19:17 10.9 C 68 %
Sensor: Nr:Datum:Temp:Feuchte:
G-T/H 201 13-03-2020 09:29:17 10.9 C 68 %
202 13-03-2020 09:39:18 10.9 C 68 %
203 13-03-2020 09:49:17 10.9 C 68 %
204 13-03-2020 09:59:17 10.9 C 68 %
205 13-03-2020 10:09:18 10.9 C 68 %
206 13-03-2020 10:19:17 10.8 C 69 %
207 13-03-2020 10:29:17 10.9 C 69 %
208 13-03-2020 10:39:18 10.8 C 69 %
209 13-03-2020 10:49:17 10.9 C 69 %
210 13-03-2020 10:59:17 10.8 C 69 %
211 13-03-2020 11:09:17 10.8 C 69 %
212 13-03-2020 11:19:17 10.8 C 69 %
213 13-03-2020 11:29:17 10.8 C 69 %
214 13-03-2020 11:39:17 10.9 C 69 %
215 13-03-2020 11:49:18 10.8 C 69 %
216 13-03-2020 11:59:18 10.9 C 69 %
217 13-03-2020 12:09:18 10.9 C 69 %
218 13-03-2020 12:19:18 10.9 C 69 %
219 13-03-2020 12:29:18 10.8 C 69 %
220 13-03-2020 12:39:18 10.9 C 70 %
221 13-03-2020 12:49:18 10.9 C 70 %
222 13-03-2020 12:59:18 10.8 C 70 %
223 13-03-2020 13:09:18 10.9 C 70 %
224 13-03-2020 13:19:18 10.9 C 70 %
225 13-03-2020 13:29:18 10.9 C 70 %
Sensor: Nr:Datum:Temp:Feuchte:
G-T/H 226 13-03-2020 13:39:18 10.9 C 70 %
227 13-03-2020 13:49:17 10.9 C 70 %
228 13-03-2020 13:59:17 10.9 C 70 %
229 13-03-2020 14:09:18 10.9 C 70 %
230 13-03-2020 14:19:18 10.9 C 70 %
231 13-03-2020 14:29:18 10.9 C 70 %
232 13-03-2020 14:39:18 10.9 C 70 %
233 13-03-2020 14:49:18 10.9 C 70 %
234 13-03-2020 14:59:18 10.9 C 70 %
235 13-03-2020 15:09:18 10.9 C 70 %
236 13-03-2020 15:19:17 10.9 C 70 %
237 13-03-2020 15:29:17 11 C 70 %
238 13-03-2020 15:39:18 10.9 C 70 %
239 13-03-2020 15:49:18 11 C 70 %
240 13-03-2020 15:59:18 11 C 70 %
241 13-03-2020 16:09:18 11 C 70 %
242 13-03-2020 16:19:17 11 C 70 %
243 13-03-2020 16:29:17 11 C 70 %
244 13-03-2020 16:39:17 11 C 69 %
245 13-03-2020 16:49:17 11 C 69 %
246 13-03-2020 16:59:17 11 C 69 %
247 13-03-2020 17:09:17 11 C 69 %
248 13-03-2020 17:19:18 11 C 69 %
249 13-03-2020 17:29:18 11 C 69 %
250 13-03-2020 17:39:17 11 C 69 %
Sensor: Nr:Datum:Temp:Feuchte:
G-T/H 251 13-03-2020 17:49:18 11 C 70 %
252 13-03-2020 17:59:18 11 C 70 %
253 13-03-2020 18:09:18 11 C 70 %
254 13-03-2020 18:19:17 11 C 70 %
255 13-03-2020 18:29:17 11 C 70 %
256 13-03-2020 18:39:17 11 C 70 %
257 13-03-2020 18:49:17 11 C 70 %
258 13-03-2020 18:59:17 11 C 70 %
259 13-03-2020 19:09:17 11 C 70 %
260 13-03-2020 19:19:17 11 C 70 %
261 13-03-2020 19:29:17 11 C 70 %
262 13-03-2020 19:39:18 11 C 70 %
263 13-03-2020 19:49:17 11 C 70 %
264 13-03-2020 19:59:18 11 C 70 %
265 13-03-2020 20:09:18 11 C 70 %
266 13-03-2020 20:19:17 11 C 70 %
267 13-03-2020 20:29:17 11 C 70 %
268 13-03-2020 20:39:17 11 C 70 %
269 13-03-2020 20:49:17 11 C 70 %
270 13-03-2020 20:59:17 11 C 70 %
271 13-03-2020 21:09:18 11 C 70 %
272 13-03-2020 21:19:18 11 C 70 %
273 13-03-2020 21:29:18 11 C 70 %
274 13-03-2020 21:39:18 11 C 70 %
275 13-03-2020 21:49:17 11 C 70 %
Sensor: Nr:Datum:Temp:Feuchte:
G-T/H 276 13-03-2020 21:59:17 10.9 C 71 %
277 13-03-2020 22:09:18 11 C 70 %
278 13-03-2020 22:19:17 11 C 70 %
279 13-03-2020 22:29:18 11 C 70 %
280 13-03-2020 22:39:18 10.9 C 71 %
281 13-03-2020 22:49:17 10.9 C 71 %
282 13-03-2020 22:59:17 10.9 C 71 %
283 13-03-2020 23:09:18 10.9 C 71 %
284 13-03-2020 23:19:17 10.9 C 71 %
285 13-03-2020 23:29:17 10.9 C 71 %
286 13-03-2020 23:39:17 10.9 C 71 %
287 13-03-2020 23:49:17 10.9 C 71 %
288 13-03-2020 23:59:17 10.9 C 71 %
289 14-03-2020 00:09:17 10.9 C 71 %
290 14-03-2020 00:19:18 10.9 C 71 %
291 14-03-2020 00:29:18 10.9 C 71 %
292 14-03-2020 00:39:18 10.8 C 71 %
293 14-03-2020 00:49:17 10.9 C 71 %
294 14-03-2020 00:59:17 10.8 C 71 %
295 14-03-2020 01:09:18 10.8 C 71 %
296 14-03-2020 01:19:17 10.8 C 71 %
297 14-03-2020 01:29:18 10.8 C 71 %
298 14-03-2020 01:39:18 10.8 C 71 %
299 14-03-2020 01:49:17 10.8 C 71 %
300 14-03-2020 01:59:18 10.7 C 71 %
Sensor: Nr:Datum:Temp:Feuchte:
G-T/H 301 14-03-2020 02:09:18 10.7 C 71 %
302 14-03-2020 02:19:18 10.8 C 71 %
303 14-03-2020 02:29:18 10.7 C 71 %
304 14-03-2020 02:39:18 10.7 C 71 %
305 14-03-2020 02:49:18 10.7 C 71 %
306 14-03-2020 02:59:18 10.7 C 71 %
307 14-03-2020 03:09:18 10.7 C 71 %
308 14-03-2020 03:19:17 10.7 C 71 %
309 14-03-2020 03:29:17 10.7 C 71 %
310 14-03-2020 03:39:17 10.7 C 71 %
311 14-03-2020 03:49:18 10.6 C 70 %
312 14-03-2020 03:59:18 10.6 C 70 %
313 14-03-2020 04:09:17 10.6 C 70 %
314 14-03-2020 04:19:17 10.6 C 70 %
315 14-03-2020 04:29:17 10.5 C 70 %
316 14-03-2020 04:39:17 10.5 C 70 %
317 14-03-2020 04:49:17 10.5 C 70 %
318 14-03-2020 04:59:17 10.4 C 69 %
319 14-03-2020 05:09:17 10.4 C 69 %
320 14-03-2020 05:19:17 10.4 C 69 %
321 14-03-2020 05:29:17 10.4 C 69 %
322 14-03-2020 05:39:18 10.3 C 69 %
323 14-03-2020 05:49:17 10.3 C 69 %
324 14-03-2020 05:59:17 10.3 C 68 %
325 14-03-2020 06:09:18 10.2 C 68 %
Sensor: Nr:Datum:Temp:Feuchte:
G-T/H 326 14-03-2020 06:19:18 10.2 C 68 %
327 14-03-2020 06:29:18 10.2 C 68 %
328 14-03-2020 06:39:18 10.2 C 68 %
329 14-03-2020 06:49:17 10.2 C 68 %
330 14-03-2020 06:59:17 10.2 C 68 %
331 14-03-2020 07:09:17 10.1 C 68 %
332 14-03-2020 07:19:17 10.1 C 68 %
333 14-03-2020 07:29:17 10.1 C 68 %
334 14-03-2020 07:39:18 10.1 C 68 %
335 14-03-2020 07:49:17 10.1 C 67 %
336 14-03-2020 07:59:17 10.1 C 67 %
337 14-03-2020 08:09:17 10 C 67 %
338 14-03-2020 08:19:17 10 C 67 %
339 14-03-2020 08:29:17 10 C 67 %
340 14-03-2020 08:39:18 10 C 67 %
341 14-03-2020 08:49:17 10 C 68 %
342 14-03-2020 08:59:17 10 C 68 %
343 14-03-2020 09:09:17 10 C 68 %
344 14-03-2020 09:19:17 10 C 68 %
345 14-03-2020 09:29:17 10 C 68 %
346 14-03-2020 09:39:18 10 C 68 %
347 14-03-2020 09:49:17 10 C 68 %
348 14-03-2020 09:59:17 10 C 69 %
349 14-03-2020 10:09:18 9.9 C 70 %
350 14-03-2020 10:19:18 10 C 69 %
Sensor: Nr:Datum:Temp:Feuchte:
G-T/H 351 14-03-2020 10:29:18 9.9 C 70 %
352 14-03-2020 10:39:18 10 C 69 %
353 14-03-2020 10:49:17 10 C 69 %
354 14-03-2020 10:59:17 10 C 69 %
355 14-03-2020 11:09:18 9.9 C 71 %
356 14-03-2020 11:19:18 10 C 70 %
357 14-03-2020 11:29:18 9.9 C 71 %
358 14-03-2020 11:39:18 10 C 70 %
359 14-03-2020 11:49:17 10 C 70 %
360 14-03-2020 11:59:17 10.1 C 70 %
361 14-03-2020 12:09:18 10.1 C 70 %
362 14-03-2020 12:19:17 10.1 C 70 %
363 14-03-2020 12:29:18 10.1 C 70 %
364 14-03-2020 12:39:18 10.1 C 70 %
365 14-03-2020 12:49:17 10.1 C 70 %
366 14-03-2020 12:59:17 10.1 C 70 %
367 14-03-2020 13:09:18 10.1 C 70 %
368 14-03-2020 13:19:17 10 C 70 %
369 14-03-2020 13:29:17 10.1 C 70 %
370 14-03-2020 13:39:17 10.1 C 70 %
371 14-03-2020 13:49:17 10.1 C 70 %
372 14-03-2020 13:59:17 10.1 C 70 %
373 14-03-2020 14:09:18 10.1 C 70 %
374 14-03-2020 14:19:17 10.2 C 71 %
375 14-03-2020 14:29:17 10.1 C 71 %
Sensor: Nr:Datum:Temp:Feuchte:
G-T/H 376 14-03-2020 14:39:17 10.2 C 71 %
377 14-03-2020 14:49:18 10.2 C 71 %
378 14-03-2020 14:59:18 10.2 C 71 %
379 14-03-2020 15:09:18 10.2 C 71 %
380 14-03-2020 15:19:17 10.2 C 71 %
381 14-03-2020 15:29:17 10.2 C 71 %
382 14-03-2020 15:39:18 10.2 C 71 %
383 14-03-2020 15:49:17 10.2 C 71 %
384 14-03-2020 15:59:17 10.2 C 71 %
385 14-03-2020 16:09:18 10.3 C 71 %
386 14-03-2020 16:19:17 10.3 C 71 %
387 14-03-2020 16:29:17 10.3 C 71 %
388 14-03-2020 16:39:18 10.3 C 71 %
389 14-03-2020 16:49:18 10.3 C 71 %
390 14-03-2020 16:59:18 10.3 C 71 %
391 14-03-2020 17:09:18 10.3 C 71 %
392 14-03-2020 17:19:17 10.3 C 71 %
393 14-03-2020 17:29:17 10.4 C 71 %
394 14-03-2020 17:39:17 10.4 C 71 %
395 14-03-2020 17:49:17 10.4 C 71 %
396 14-03-2020 17:59:17 10.4 C 71 %
397 14-03-2020 18:09:17 10.4 C 71 %
398 14-03-2020 18:19:17 10.4 C 71 %
399 14-03-2020 18:29:17 10.4 C 71 %
400 14-03-2020 18:39:17 10.4 C 71 %
Sensor: Nr:Datum:Temp:Feuchte:
G-T/H 401 14-03-2020 18:49:17 10.4 C 71 %
402 14-03-2020 18:59:17 10.4 C 71 %
403 14-03-2020 19:09:17 10.4 C 71 %
404 14-03-2020 19:19:17 10.4 C 71 %
405 14-03-2020 19:29:17 10.4 C 71 %
406 14-03-2020 19:39:17 10.4 C 71 %
407 14-03-2020 19:49:17 10.4 C 71 %
408 14-03-2020 19:59:17 10.4 C 71 %
409 14-03-2020 20:09:18 10.4 C 71 %
410 14-03-2020 20:19:18 10.4 C 71 %
411 14-03-2020 20:29:18 10.4 C 71 %
412 14-03-2020 20:39:18 10.4 C 71 %
413 14-03-2020 20:49:17 10.4 C 71 %
414 14-03-2020 20:59:18 10.4 C 71 %
415 14-03-2020 21:09:18 10.4 C 71 %
416 14-03-2020 21:19:18 10.4 C 71 %
417 14-03-2020 21:29:18 10.4 C 71 %
418 14-03-2020 21:39:17 10.4 C 71 %
419 14-03-2020 21:49:18 10.4 C 71 %
420 14-03-2020 21:59:18 10.4 C 71 %
421 14-03-2020 22:09:18 10.4 C 71 %
422 14-03-2020 22:19:17 10.4 C 71 %
423 14-03-2020 22:29:17 10.4 C 71 %
424 14-03-2020 22:39:18 10.4 C 71 %
425 14-03-2020 22:49:18 10.4 C 71 %
Sensor: Nr:Datum:Temp:Feuchte:
G-T/H 426 14-03-2020 22:59:18 10.4 C 71 %
427 14-03-2020 23:09:17 10.4 C 71 %
428 14-03-2020 23:19:17 10.4 C 71 %
429 14-03-2020 23:29:17 10.4 C 71 %
430 14-03-2020 23:39:17 10.4 C 71 %
431 14-03-2020 23:49:18 10.4 C 71 %
432 14-03-2020 23:59:18 10.4 C 71 %
433 15-03-2020 00:09:18 10.4 C 71 %
434 15-03-2020 00:19:17 10.4 C 71 %
435 15-03-2020 00:29:17 10.4 C 71 %
436 15-03-2020 00:39:18 10.4 C 71 %
437 15-03-2020 00:49:18 10.4 C 71 %
438 15-03-2020 00:59:18 10.4 C 71 %
439 15-03-2020 01:09:17 10.4 C 71 %
440 15-03-2020 01:19:18 10.4 C 71 %
441 15-03-2020 01:29:18 10.4 C 71 %
442 15-03-2020 01:39:17 10.3 C 71 %
443 15-03-2020 01:49:17 10.3 C 71 %
444 15-03-2020 01:59:17 10.3 C 71 %
445 15-03-2020 02:09:17 10.3 C 71 %
446 15-03-2020 02:19:17 10.3 C 71 %
447 15-03-2020 02:29:17 10.4 C 71 %
448 15-03-2020 02:39:18 10.3 C 71 %
449 15-03-2020 02:49:17 10.3 C 71 %
450 15-03-2020 02:59:17 10.3 C 71 %
Sensor: Nr:Datum:Temp:Feuchte:
G-T/H 451 15-03-2020 03:09:17 10.3 C 71 %
452 15-03-2020 03:19:17 10.3 C 71 %
453 15-03-2020 03:29:17 10.3 C 71 %
454 15-03-2020 03:39:18 10.2 C 71 %
455 15-03-2020 03:49:17 10.2 C 71 %
456 15-03-2020 03:59:17 10.2 C 71 %
457 15-03-2020 04:09:18 10.2 C 71 %
458 15-03-2020 04:19:18 10.2 C 71 %
459 15-03-2020 04:29:18 10.2 C 71 %
460 15-03-2020 04:39:18 10.2 C 70 %
461 15-03-2020 04:49:17 10.1 C 70 %
462 15-03-2020 04:59:18 10.1 C 70 %
463 15-03-2020 05:09:18 10.1 C 70 %
464 15-03-2020 05:19:17 10.1 C 70 %
465 15-03-2020 05:29:18 10.1 C 70 %
466 15-03-2020 05:39:18 10.1 C 69 %
467 15-03-2020 05:49:17 10.1 C 69 %
468 15-03-2020 05:59:17 10.1 C 69 %
469 15-03-2020 06:09:18 10 C 69 %
470 15-03-2020 06:19:17 10 C 69 %
471 15-03-2020 06:29:17 10 C 69 %
472 15-03-2020 06:39:18 10 C 69 %
473 15-03-2020 06:49:18 10 C 69 %
474 15-03-2020 06:59:18 10 C 69 %
475 15-03-2020 07:09:18 10 C 69 %
Sensor: Nr:Datum:Temp:Feuchte:
G-T/H 476 15-03-2020 07:19:18 10 C 69 %
477 15-03-2020 07:29:18 10 C 69 %
478 15-03-2020 07:39:18 10 C 69 %
479 15-03-2020 07:49:18 10 C 69 %
480 15-03-2020 07:59:18 10 C 69 %
481 15-03-2020 08:09:18 10 C 70 %
482 15-03-2020 08:19:18 10 C 70 %
483 15-03-2020 08:29:18 10 C 70 %
484 15-03-2020 08:39:18 10 C 70 %
485 15-03-2020 08:49:17 10 C 70 %
486 15-03-2020 08:59:17 10 C 70 %
487 15-03-2020 09:09:18 10 C 70 %
488 15-03-2020 09:19:18 9.9 C 71 %
489 15-03-2020 09:29:18 9.9 C 71 %
490 15-03-2020 09:39:18 10 C 70 %
491 15-03-2020 09:49:18 9.9 C 71 %
492 15-03-2020 09:59:18 9.9 C 72 %
493 15-03-2020 10:09:18 10 C 71 %
494 15-03-2020 10:19:18 9.9 C 72 %
495 15-03-2020 10:29:18 10 C 71 %
496 15-03-2020 10:39:18 9.9 C 72 %
497 15-03-2020 10:49:17 10 C 71 %
498 15-03-2020 10:59:17 10 C 71 %
499 15-03-2020 11:09:17 10 C 71 %
500 15-03-2020 11:19:17 10 C 71 %
Sensor: Nr:Datum:Temp:Feuchte:
G-T/H 501 15-03-2020 11:29:17 10 C 71 %
502 15-03-2020 11:39:18 10 C 71 %
503 15-03-2020 11:49:17 10.3 C 71 %
504 15-03-2020 11:59:18 10.5 C 69 %
505 15-03-2020 12:09:18 10.5 C 68 %
506 15-03-2020 12:19:18 10.7 C 66 %
507 15-03-2020 12:29:18 10.7 C 65 %
508 15-03-2020 12:39:18 10.8 C 64 %
509 15-03-2020 12:49:17 10.9 C 64 %
510 15-03-2020 12:59:17 11 C 62 %
511 15-03-2020 13:09:18 11 C 61 %
512 15-03-2020 13:19:17 11.1 C 61 %
513 15-03-2020 13:29:17 11.3 C 60 %
514 15-03-2020 13:39:18 11.3 C 60 %
515 15-03-2020 13:49:17 11.4 C 59 %
516 15-03-2020 13:59:17 11.5 C 58 %
517 15-03-2020 14:09:17 11.5 C 58 %
518 15-03-2020 14:19:17 11.6 C 57 %
519 15-03-2020 14:29:17 11.7 C 57 %
520 15-03-2020 14:39:18 11.7 C 56 %
521 15-03-2020 14:49:17 11.8 C 56 %
522 15-03-2020 14:59:17 11.9 C 55 %
523 15-03-2020 15:09:17 11.9 C 55 %
524 15-03-2020 15:19:17 12 C 53 %
525 15-03-2020 15:29:18 12.1 C 53 %
Sensor: Nr:Datum:Temp:Feuchte:
G-T/H 526 15-03-2020 15:39:18 12.2 C 53 %
527 15-03-2020 15:49:17 12.2 C 52 %
528 15-03-2020 15:59:17 12.2 C 52 %
529 15-03-2020 16:09:17 12.2 C 51 %
530 15-03-2020 16:19:17 12.3 C 51 %
531 15-03-2020 16:29:17 12.4 C 51 %
532 15-03-2020 16:39:17 12.4 C 51 %
533 15-03-2020 16:49:18 12.3 C 51 %
534 15-03-2020 16:59:18 12.1 C 52 %
535 15-03-2020 17:09:18 12.1 C 53 %
536 15-03-2020 17:19:18 12 C 54 %
537 15-03-2020 17:29:18 11.9 C 56 %
538 15-03-2020 17:39:18 11.9 C 56 %
539 15-03-2020 17:49:18 11.9 C 57 %
540 15-03-2020 17:59:18 11.8 C 58 %
541 15-03-2020 18:09:18 11.8 C 58 %
542 15-03-2020 18:19:18 11.8 C 59 %
543 15-03-2020 18:29:18 11.7 C 60 %
544 15-03-2020 18:39:18 11.7 C 60 %
545 15-03-2020 18:49:17 11.7 C 60 %
546 15-03-2020 18:59:17 11.7 C 61 %
547 15-03-2020 19:09:18 11.7 C 61 %
548 15-03-2020 19:19:18 11.7 C 61 %
549 15-03-2020 19:29:18 11.6 C 62 %
550 15-03-2020 19:39:18 11.6 C 62 %
Sensor: Nr:Datum:Temp:Feuchte:
G-T/H 551 15-03-2020 19:49:17 11.6 C 62 %
552 15-03-2020 19:59:17 11.6 C 62 %
553 15-03-2020 20:09:18 11.6 C 63 %
554 15-03-2020 20:19:17 11.5 C 63 %
555 15-03-2020 20:29:17 11.6 C 63 %
556 15-03-2020 20:39:18 11.6 C 63 %
557 15-03-2020 20:49:18 11.5 C 63 %
558 15-03-2020 20:59:18 11.5 C 64 %
559 15-03-2020 21:09:18 11.5 C 64 %
560 15-03-2020 21:19:17 11.5 C 64 %
561 15-03-2020 21:29:17 11.5 C 64 %
562 15-03-2020 21:39:17 11.5 C 64 %
563 15-03-2020 21:49:17 11.5 C 64 %
564 15-03-2020 21:59:17 11.5 C 64 %
565 15-03-2020 22:09:17 11.5 C 64 %
566 15-03-2020 22:19:17 11.5 C 64 %
567 15-03-2020 22:29:18 11.5 C 65 %
568 15-03-2020 22:39:17 11.4 C 65 %
569 15-03-2020 22:49:17 11.4 C 65 %
570 15-03-2020 22:59:17 11.4 C 65 %
571 15-03-2020 23:09:17 11.4 C 65 %
572 15-03-2020 23:19:17 11.4 C 65 %
573 15-03-2020 23:29:17 11.4 C 65 %
574 15-03-2020 23:39:17 11.4 C 65 %
575 15-03-2020 23:49:17 11.4 C 65 %
Sensor: Nr:Datum:Temp:Feuchte:
G-T/H 576 15-03-2020 23:59:17 11.3 C 65 %
577 16-03-2020 00:09:17 11.3 C 65 %
578 16-03-2020 00:19:17 11.3 C 65 %
579 16-03-2020 00:29:17 11.3 C 65 %
580 16-03-2020 00:39:17 11.2 C 64 %
581 16-03-2020 00:49:17 11.2 C 64 %
582 16-03-2020 00:59:17 11.2 C 64 %
583 16-03-2020 01:09:18 11.2 C 64 %
584 16-03-2020 01:19:17 11.2 C 64 %
585 16-03-2020 01:29:17 11.1 C 64 %
586 16-03-2020 01:39:17 11.1 C 64 %
587 16-03-2020 01:49:18 11.1 C 64 %
588 16-03-2020 01:59:18 11.1 C 64 %
589 16-03-2020 02:09:17 11.1 C 63 %
590 16-03-2020 02:19:17 11.1 C 63 %
591 16-03-2020 02:29:17 11 C 63 %
592 16-03-2020 02:39:17 11 C 63 %
593 16-03-2020 02:49:17 11 C 63 %
594 16-03-2020 02:59:17 11 C 63 %
595 16-03-2020 03:09:18 10.9 C 64 %
596 16-03-2020 03:19:17 10.9 C 64 %
597 16-03-2020 03:29:17 10.9 C 64 %
598 16-03-2020 03:39:17 10.9 C 64 %
599 16-03-2020 03:49:18 10.9 C 64 %
600 16-03-2020 03:59:18 10.8 C 64 %
Sensor: Nr:Datum:Temp:Feuchte:
G-T/H 601 16-03-2020 04:09:18 10.8 C 64 %
602 16-03-2020 04:19:18 10.8 C 64 %
603 16-03-2020 04:29:18 10.8 C 64 %
604 16-03-2020 04:39:18 10.7 C 64 %
605 16-03-2020 04:49:17 10.7 C 64 %
606 16-03-2020 04:59:18 10.7 C 63 %
607 16-03-2020 05:09:18 10.7 C 63 %
608 16-03-2020 05:19:18 10.7 C 63 %
609 16-03-2020 05:29:18 10.6 C 63 %
610 16-03-2020 05:39:18 10.6 C 63 %
611 16-03-2020 05:49:17 10.6 C 63 %
612 16-03-2020 05:59:17 10.6 C 63 %
613 16-03-2020 06:09:18 10.5 C 63 %
614 16-03-2020 06:19:17 10.5 C 63 %
615 16-03-2020 06:29:17 10.5 C 63 %
616 16-03-2020 06:39:17 10.5 C 63 %
617 16-03-2020 06:49:17 10.4 C 63 %
618 16-03-2020 06:59:17 10.4 C 63 %
619 16-03-2020 07:09:17 10.4 C 63 %
620 16-03-2020 07:19:17 10.4 C 63 %
621 16-03-2020 07:29:17 10.4 C 63 %
622 16-03-2020 07:39:17 10.3 C 63 %
623 16-03-2020 07:49:17 10.3 C 63 %
624 16-03-2020 07:59:17 10.3 C 63 %
625 16-03-2020 08:09:18 10.3 C 63 %
Sensor: Nr:Datum:Temp:Feuchte:
G-T/H 626 16-03-2020 08:19:17 10.2 C 63 %
627 16-03-2020 08:29:18 10.2 C 63 %
628 16-03-2020 08:39:18 10.2 C 63 %
629 16-03-2020 08:49:17 10.2 C 64 %
630 16-03-2020 08:59:17 10.2 C 64 %
631 16-03-2020 09:09:18 10.2 C 64 %
632 16-03-2020 09:19:18 10.2 C 64 %
633 16-03-2020 09:29:18 10.2 C 64 %
634 16-03-2020 09:39:18 10.2 C 65 %
635 16-03-2020 09:49:18 10.2 C 65 %
636 16-03-2020 09:59:18 10.2 C 65 %
637 16-03-2020 10:09:18 10.2 C 65 %
638 16-03-2020 10:19:18 10.1 C 65 %
639 16-03-2020 10:29:18 10.1 C 66 %
640 16-03-2020 10:39:17 10.2 C 66 %
641 16-03-2020 10:49:18 10.1 C 66 %
642 16-03-2020 10:59:18 10.2 C 66 %
643 16-03-2020 11:09:17 10.1 C 66 %
644 16-03-2020 11:19:17 10.2 C 66 %
645 16-03-2020 11:29:17 10.2 C 66 %
646 16-03-2020 11:39:18 10.2 C 67 %
647 16-03-2020 11:49:17 10.2 C 67 %
648 16-03-2020 11:59:17 10.2 C 67 %
649 16-03-2020 12:09:17 10.2 C 67 %
650 16-03-2020 12:19:17 10.3 C 67 %
Sensor: Nr:Datum:Temp:Feuchte:
G-T/H 651 16-03-2020 12:29:17 10.2 C 67 %
652 16-03-2020 12:39:17 10.3 C 67 %
653 16-03-2020 12:49:17 10.3 C 67 %
654 16-03-2020 12:59:17 10.3 C 67 %
655 16-03-2020 13:09:17 10.3 C 67 %
656 16-03-2020 13:19:17 10.4 C 67 %
657 16-03-2020 13:29:17 10.4 C 67 %
658 16-03-2020 13:39:17 10.4 C 68 %
659 16-03-2020 13:49:17 10.4 C 68 %
660 16-03-2020 13:59:17 10.4 C 68 %
661 16-03-2020 14:09:17 10.4 C 68 %
662 16-03-2020 14:19:17 10.5 C 68 %
663 16-03-2020 14:29:17 10.5 C 68 %
664 16-03-2020 14:39:17 10.5 C 68 %
665 16-03-2020 14:49:17 10.5 C 68 %
666 16-03-2020 14:59:17 10.5 C 68 %
667 16-03-2020 15:09:17 10.6 C 68 %
668 16-03-2020 15:19:17 10.5 C 68 %
669 16-03-2020 15:29:17 10.6 C 68 %
670 16-03-2020 15:39:18 10.7 C 68 %
671 16-03-2020 15:49:17 10.6 C 68 %
672 16-03-2020 15:59:17 10.7 C 68 %
673 16-03-2020 16:09:18 10.7 C 69 %
674 16-03-2020 16:19:18 10.7 C 69 %
675 16-03-2020 16:29:18 10.7 C 69 %
Sensor: Nr:Datum:Temp:Feuchte:
G-T/H 676 16-03-2020 16:39:17 10.8 C 69 %
677 16-03-2020 16:49:17 10.8 C 69 %
678 16-03-2020 16:59:17 10.8 C 69 %
679 16-03-2020 17:09:17 10.8 C 69 %
680 16-03-2020 17:19:17 10.8 C 69 %
681 16-03-2020 17:29:18 10.8 C 69 %
682 16-03-2020 17:39:18 10.9 C 69 %
683 16-03-2020 17:49:17 10.9 C 69 %
684 16-03-2020 17:59:18 10.9 C 69 %
685 16-03-2020 18:09:18 10.9 C 69 %
686 16-03-2020 18:19:18 10.9 C 69 %
687 16-03-2020 18:29:18 11 C 69 %
688 16-03-2020 18:39:18 11 C 69 %
689 16-03-2020 18:49:18 11 C 69 %
690 16-03-2020 18:59:18 11 C 69 %
691 16-03-2020 19:09:18 11 C 69 %
692 16-03-2020 19:19:18 11 C 69 %
693 16-03-2020 19:29:18 11 C 69 %
694 16-03-2020 19:39:18 11 C 69 %
695 16-03-2020 19:49:17 11 C 69 %
696 16-03-2020 19:59:18 11 C 69 %
697 16-03-2020 20:09:18 11.1 C 69 %
698 16-03-2020 20:19:18 11.1 C 69 %
699 16-03-2020 20:29:18 11.1 C 69 %
700 16-03-2020 20:39:18 11.1 C 69 %
Sensor: Nr:Datum:Temp:Feuchte:
G-T/H 701 16-03-2020 20:49:18 11.1 C 69 %
702 16-03-2020 20:59:18 11.1 C 69 %
703 16-03-2020 21:09:18 11.1 C 69 %
704 16-03-2020 21:19:17 11.1 C 69 %
705 16-03-2020 21:29:17 11.1 C 69 %
706 16-03-2020 21:39:17 11.2 C 69 %
707 16-03-2020 21:49:18 11.1 C 70 %
708 16-03-2020 21:59:18 11.2 C 70 %
709 16-03-2020 22:09:18 11.2 C 70 %
710 16-03-2020 22:19:18 11.2 C 70 %
711 16-03-2020 22:29:18 11.2 C 70 %
712 16-03-2020 22:39:18 11.2 C 70 %
713 16-03-2020 22:49:18 11.2 C 70 %
714 16-03-2020 22:59:18 11.2 C 70 %
715 16-03-2020 23:09:18 11.2 C 70 %
716 16-03-2020 23:19:17 11.2 C 70 %
717 16-03-2020 23:29:17 11.2 C 70 %
718 16-03-2020 23:39:17 11.2 C 70 %
719 16-03-2020 23:49:17 11.2 C 70 %
720 16-03-2020 23:59:17 11.2 C 70 %
721 17-03-2020 00:09:17 11.2 C 70 %
722 17-03-2020 00:19:17 11.3 C 70 %
723 17-03-2020 00:29:17 11.2 C 70 %
724 17-03-2020 00:39:18 11.2 C 70 %
725 17-03-2020 00:49:18 11.3 C 70 %
Sensor: Nr:Datum:Temp:Feuchte:
G-T/H 726 17-03-2020 00:59:18 11.3 C 70 %
727 17-03-2020 01:09:18 11.3 C 70 %
728 17-03-2020 01:19:17 11.3 C 70 %
729 17-03-2020 01:29:17 11.3 C 70 %
730 17-03-2020 01:39:17 11.2 C 70 %
731 17-03-2020 01:49:18 11.2 C 70 %
732 17-03-2020 01:59:18 11.3 C 70 %
733 17-03-2020 02:09:18 11.2 C 70 %
734 17-03-2020 02:19:17 11.2 C 70 %
735 17-03-2020 02:29:17 11.3 C 70 %
736 17-03-2020 02:39:17 11.3 C 70 %
737 17-03-2020 02:49:17 11.3 C 70 %
738 17-03-2020 02:59:17 11.3 C 70 %
739 17-03-2020 03:09:18 11.3 C 70 %
740 17-03-2020 03:19:18 11.3 C 70 %
741 17-03-2020 03:29:18 11.3 C 70 %
742 17-03-2020 03:39:17 11.2 C 70 %
743 17-03-2020 03:49:18 11.2 C 70 %
744 17-03-2020 03:59:18 11.2 C 70 %
745 17-03-2020 04:09:18 11.2 C 70 %
746 17-03-2020 04:19:18 11.2 C 70 %
747 17-03-2020 04:29:18 11.2 C 70 %
748 17-03-2020 04:39:17 11.3 C 70 %
749 17-03-2020 04:49:18 11.2 C 70 %
750 17-03-2020 04:59:18 11.2 C 70 %
Sensor: Nr:Datum:Temp:Feuchte:
G-T/H 751 17-03-2020 05:09:17 11.2 C 70 %
752 17-03-2020 05:19:17 11.2 C 70 %
753 17-03-2020 05:29:17 11.2 C 70 %
754 17-03-2020 05:39:17 11.2 C 70 %
755 17-03-2020 05:49:17 11.2 C 70 %
756 17-03-2020 05:59:18 11.2 C 70 %
757 17-03-2020 06:09:18 11.2 C 70 %
758 17-03-2020 06:19:18 11.2 C 70 %
759 17-03-2020 06:29:18 11.2 C 71 %
760 17-03-2020 06:39:18 11.2 C 70 %
761 17-03-2020 06:49:18 11.2 C 71 %
762 17-03-2020 06:59:18 11.2 C 71 %
763 17-03-2020 07:09:17 11.2 C 71 %
764 17-03-2020 07:19:17 11.2 C 71 %
765 17-03-2020 07:29:17 11.2 C 71 %
766 17-03-2020 07:39:17 11.2 C 71 %
767 17-03-2020 07:49:18 11.2 C 71 %
768 17-03-2020 07:59:18 11.2 C 71 %
769 17-03-2020 08:09:18 11.2 C 71 %
770 17-03-2020 08:19:17 11.2 C 71 %
771 17-03-2020 08:29:17 11.2 C 71 %
772 17-03-2020 08:39:17 11.2 C 71 %
773 17-03-2020 08:49:17 11.2 C 71 %
774 17-03-2020 08:59:17 11.2 C 71 %
775 17-03-2020 09:09:17 11.2 C 71 %
Sensor: Nr:Datum:Temp:Feuchte:
G-T/H 776 17-03-2020 09:19:18 11.2 C 71 %
777 17-03-2020 09:29:18 11.2 C 71 %
778 17-03-2020 09:39:18 11.2 C 71 %
779 17-03-2020 09:49:17 11.2 C 71 %
780 17-03-2020 09:59:17 11.2 C 71 %
781 17-03-2020 10:09:17 11.2 C 71 %
782 17-03-2020 10:19:17 11.3 C 71 %
783 17-03-2020 10:29:17 11.3 C 71 %
784 17-03-2020 10:39:17 11.3 C 71 %
785 17-03-2020 10:49:17 11.3 C 71 %
786 17-03-2020 10:59:17 11.3 C 71 %
787 17-03-2020 11:09:17 11.3 C 71 %
788 17-03-2020 11:19:17 11.3 C 71 %
789 17-03-2020 11:29:17 11.4 C 71 %
790 17-03-2020 11:39:17 11.3 C 71 %
791 17-03-2020 11:49:17 11.3 C 71 %
792 17-03-2020 11:59:17 11.4 C 71 %
793 17-03-2020 12:09:17 11.4 C 71 %
794 17-03-2020 12:19:18 11.4 C 71 %
795 17-03-2020 12:29:18 11.4 C 71 %
796 17-03-2020 12:39:18 11.4 C 71 %
797 17-03-2020 12:49:18 11.5 C 71 %
798 17-03-2020 12:59:18 11.4 C 71 %
799 17-03-2020 13:09:17 11.4 C 71 %
800 17-03-2020 13:19:17 11.5 C 71 %
Sensor: Nr:Datum:Temp:Feuchte:
G-T/H 801 17-03-2020 13:29:17 11.5 C 71 %
802 17-03-2020 13:39:17 11.5 C 71 %
803 17-03-2020 13:49:18 11.5 C 71 %
804 17-03-2020 13:59:18 11.5 C 71 %
805 17-03-2020 14:09:17 11.5 C 71 %
806 17-03-2020 14:19:17 11.5 C 71 %
807 17-03-2020 14:29:17 11.6 C 71 %
808 17-03-2020 14:39:18 11.6 C 71 %
809 17-03-2020 14:49:18 11.6 C 71 %
810 17-03-2020 14:59:18 11.6 C 71 %
811 17-03-2020 15:09:17 11.6 C 71 %
812 17-03-2020 15:19:17 11.6 C 71 %
813 17-03-2020 15:29:17 11.6 C 71 %
814 17-03-2020 15:39:18 11.7 C 71 %
815 17-03-2020 15:49:17 11.6 C 71 %
816 17-03-2020 15:59:17 11.7 C 71 %
817 17-03-2020 16:09:18 11.7 C 71 %
818 17-03-2020 16:19:18 11.7 C 71 %
819 17-03-2020 16:29:18 11.7 C 71 %
820 17-03-2020 16:39:17 11.7 C 71 %
821 17-03-2020 16:49:17 11.7 C 71 %
822 17-03-2020 16:59:17 11.8 C 71 %
823 17-03-2020 17:09:17 11.8 C 71 %
824 17-03-2020 17:19:18 11.7 C 71 %
825 17-03-2020 17:29:18 11.8 C 71 %
Sensor: Nr:Datum:Temp:Feuchte:
G-T/H 826 17-03-2020 17:39:18 11.8 C 71 %
827 17-03-2020 17:49:17 11.8 C 71 %
828 17-03-2020 17:59:18 11.8 C 71 %
829 17-03-2020 18:09:18 11.8 C 71 %
830 17-03-2020 18:19:17 11.8 C 71 %
831 17-03-2020 18:29:17 11.8 C 71 %
832 17-03-2020 18:39:18 11.8 C 71 %
833 17-03-2020 18:49:18 11.8 C 71 %
834 17-03-2020 18:59:18 11.8 C 71 %
835 17-03-2020 19:09:18 11.8 C 71 %
836 17-03-2020 19:19:17 11.8 C 71 %
837 17-03-2020 19:29:17 11.8 C 71 %
838 17-03-2020 19:39:17 11.8 C 71 %
839 17-03-2020 19:49:17 11.8 C 71 %
840 17-03-2020 19:59:17 11.8 C 71 %
841 17-03-2020 20:09:17 11.8 C 71 %
842 17-03-2020 20:19:17 11.8 C 71 %
843 17-03-2020 20:29:17 11.9 C 71 %
844 17-03-2020 20:39:18 11.8 C 71 %
845 17-03-2020 20:49:18 11.9 C 71 %
846 17-03-2020 20:59:18 11.9 C 71 %
847 17-03-2020 21:09:18 11.8 C 71 %
848 17-03-2020 21:19:17 11.8 C 71 %
849 17-03-2020 21:29:17 11.8 C 71 %
850 17-03-2020 21:39:17 11.8 C 71 %
Sensor: Nr:Datum:Temp:Feuchte:
G-T/H 851 17-03-2020 21:49:18 11.8 C 71 %
852 17-03-2020 21:59:18 11.8 C 71 %
853 17-03-2020 22:09:18 11.8 C 71 %
854 17-03-2020 22:19:18 11.8 C 71 %
855 17-03-2020 22:29:18 11.8 C 71 %
856 17-03-2020 22:39:17 11.8 C 71 %
857 17-03-2020 22:49:17 11.8 C 71 %
858 17-03-2020 22:59:17 11.8 C 71 %
859 17-03-2020 23:09:17 11.8 C 71 %
860 17-03-2020 23:19:17 11.8 C 71 %
861 17-03-2020 23:29:17 11.8 C 71 %
862 17-03-2020 23:39:18 11.8 C 71 %
863 17-03-2020 23:49:18 11.8 C 71 %
864 17-03-2020 23:59:18 11.8 C 71 %
865 18-03-2020 00:09:17 11.7 C 71 %
866 18-03-2020 00:19:17 11.7 C 71 %
867 18-03-2020 00:29:17 11.7 C 71 %
868 18-03-2020 00:39:17 11.8 C 71 %
869 18-03-2020 00:49:17 11.8 C 71 %
870 18-03-2020 00:59:17 11.7 C 71 %
871 18-03-2020 01:09:17 11.8 C 71 %
872 18-03-2020 01:19:17 11.7 C 71 %
873 18-03-2020 01:29:17 11.7 C 71 %
874 18-03-2020 01:39:17 11.7 C 71 %
875 18-03-2020 01:49:17 11.7 C 71 %
Sensor: Nr:Datum:Temp:Feuchte:
G-T/H 876 18-03-2020 01:59:17 11.7 C 70 %
877 18-03-2020 02:09:17 11.7 C 70 %
878 18-03-2020 02:19:17 11.6 C 70 %
879 18-03-2020 02:29:17 11.6 C 70 %
880 18-03-2020 02:39:17 11.7 C 70 %
881 18-03-2020 02:49:18 11.6 C 70 %
882 18-03-2020 02:59:18 11.6 C 70 %
883 18-03-2020 03:09:18 11.6 C 70 %
884 18-03-2020 03:19:17 11.6 C 70 %
885 18-03-2020 03:29:17 11.6 C 70 %
886 18-03-2020 03:39:17 11.6 C 70 %
887 18-03-2020 03:49:17 11.5 C 70 %
888 18-03-2020 03:59:17 11.5 C 70 %
889 18-03-2020 04:09:17 11.5 C 70 %
890 18-03-2020 04:19:18 11.5 C 70 %
891 18-03-2020 04:29:18 11.5 C 70 %
892 18-03-2020 04:39:18 11.5 C 69 %
893 18-03-2020 04:49:18 11.4 C 69 %
894 18-03-2020 04:59:18 11.4 C 69 %
895 18-03-2020 05:09:18 11.4 C 69 %
896 18-03-2020 05:19:18 11.4 C 69 %
897 18-03-2020 05:29:18 11.4 C 69 %
898 18-03-2020 05:39:18 11.3 C 69 %
899 18-03-2020 05:49:18 11.3 C 68 %
900 18-03-2020 05:59:18 11.3 C 68 %
Sensor: Nr:Datum:Temp:Feuchte:
G-T/H 901 18-03-2020 06:09:18 11.3 C 68 %
902 18-03-2020 06:19:17 11.2 C 68 %
903 18-03-2020 06:29:18 11.2 C 68 %
904 18-03-2020 06:39:18 11.2 C 68 %
905 18-03-2020 06:49:17 11.2 C 68 %
906 18-03-2020 06:59:18 11.2 C 68 %
907 18-03-2020 07:09:18 11.2 C 68 %
908 18-03-2020 07:19:17 11.1 C 68 %
909 18-03-2020 07:29:17 11.1 C 68 %
910 18-03-2020 07:39:17 11.1 C 68 %
911 18-03-2020 07:49:18 11.1 C 68 %
912 18-03-2020 07:59:18 11.1 C 68 %
913 18-03-2020 08:09:18 11.1 C 68 %
914 18-03-2020 08:19:18 11.1 C 68 %
915 18-03-2020 08:29:18 11 C 68 %
916 18-03-2020 08:39:17 11 C 68 %
917 18-03-2020 08:49:18 11 C 68 %
918 18-03-2020 08:59:18 11 C 69 %
919 18-03-2020 09:09:17 11 C 69 %
920 18-03-2020 09:19:17 11 C 69 %
921 18-03-2020 09:29:17 11 C 69 %
922 18-03-2020 09:39:17 11 C 69 %
923 18-03-2020 09:49:18 11 C 69 %
924 18-03-2020 09:59:18 11 C 69 %
925 18-03-2020 10:09:18 11 C 69 %
Sensor: Nr:Datum:Temp:Feuchte:
G-T/H 926 18-03-2020 10:19:18 11 C 69 %
927 18-03-2020 10:29:18 11 C 69 %
928 18-03-2020 10:39:18 11 C 70 %
929 18-03-2020 10:49:18 11 C 70 %
930 18-03-2020 10:59:18 11 C 70 %
931 18-03-2020 11:09:18 11 C 70 %
932 18-03-2020 11:19:18 11 C 70 %
933 18-03-2020 11:29:18 11 C 70 %
934 18-03-2020 11:39:18 11 C 70 %
935 18-03-2020 11:49:17 11 C 70 %
936 18-03-2020 11:59:17 11 C 70 %
937 18-03-2020 12:09:18 11 C 70 %
938 18-03-2020 12:19:17 11 C 70 %
939 18-03-2020 12:29:18 11.1 C 70 %
940 18-03-2020 12:39:18 11.1 C 70 %
941 18-03-2020 12:49:17 11.1 C 70 %
942 18-03-2020 12:59:17 11.1 C 70 %
943 18-03-2020 13:09:17 11.1 C 70 %
944 18-03-2020 13:19:17 11.1 C 70 %
945 18-03-2020 13:29:17 11.1 C 71 %
946 18-03-2020 13:39:18 11.2 C 71 %
947 18-03-2020 13:49:17 11.2 C 71 %
948 18-03-2020 13:59:17 11.2 C 71 %
949 18-03-2020 14:09:17 11.2 C 71 %
950 18-03-2020 14:19:17 11.2 C 71 %
Sensor: Nr:Datum:Temp:Feuchte:
G-T/H 951 18-03-2020 14:29:17 11.2 C 71 %
952 18-03-2020 14:39:18 11.3 C 71 %
953 18-03-2020 14:49:17 11.3 C 71 %
954 18-03-2020 14:59:17 11.3 C 71 %
955 18-03-2020 15:09:17 11.3 C 71 %
956 18-03-2020 15:19:18 11.3 C 71 %
957 18-03-2020 15:29:18 11.4 C 71 %
958 18-03-2020 15:39:18 11.4 C 71 %
959 18-03-2020 15:49:17 11.4 C 71 %
960 18-03-2020 15:59:17 11.4 C 71 %
961 18-03-2020 16:09:17 11.4 C 71 %
962 18-03-2020 16:19:17 11.4 C 71 %
963 18-03-2020 16:29:17 11.5 C 71 %
964 18-03-2020 16:39:17 11.5 C 71 %
965 18-03-2020 16:49:18 11.5 C 71 %
966 18-03-2020 16:59:18 11.5 C 71 %
967 18-03-2020 17:09:17 11.5 C 71 %
968 18-03-2020 17:19:17 11.5 C 71 %
969 18-03-2020 17:29:17 11.6 C 71 %
970 18-03-2020 17:39:18 11.6 C 71 %
971 18-03-2020 17:49:17 11.6 C 71 %
972 18-03-2020 17:59:17 11.7 C 71 %
973 18-03-2020 18:09:17 11.6 C 71 %
974 18-03-2020 18:19:17 11.7 C 72 %
975 18-03-2020 18:29:17 11.6 C 72 %
Sensor: Nr:Datum:Temp:Feuchte:
G-T/H 976 18-03-2020 18:39:17 11.7 C 72 %
977 18-03-2020 18:49:17 11.7 C 71 %
978 18-03-2020 18:59:17 11.7 C 71 %
979 18-03-2020 19:09:17 11.7 C 71 %
980 18-03-2020 19:19:18 11.7 C 71 %
981 18-03-2020 19:29:18 11.7 C 71 %
982 18-03-2020 19:39:18 11.7 C 72 %
983 18-03-2020 19:49:18 11.7 C 72 %
984 18-03-2020 19:59:18 11.7 C 72 %
985 18-03-2020 20:09:18 11.7 C 72 %
986 18-03-2020 20:19:17 11.8 C 72 %
987 18-03-2020 20:29:17 11.7 C 72 %
988 18-03-2020 20:39:18 11.7 C 72 %
989 18-03-2020 20:49:17 11.7 C 72 %
990 18-03-2020 20:59:17 11.8 C 72 %
991 18-03-2020 21:09:18 11.8 C 72 %
992 18-03-2020 21:19:17 11.8 C 72 %
993 18-03-2020 21:29:17 11.8 C 72 %
994 18-03-2020 21:39:17 11.8 C 72 %
995 18-03-2020 21:49:17 11.8 C 72 %
996 18-03-2020 21:59:17 11.8 C 72 %
997 18-03-2020 22:09:17 11.8 C 72 %
998 18-03-2020 22:19:17 11.8 C 72 %
999 18-03-2020 22:29:17 11.8 C 72 %
1000 18-03-2020 22:39:17 11.8 C 72 %
Sensor: Nr:Datum:Temp:Feuchte:
G-T/H 1001 18-03-2020 22:49:17 11.8 C 72 %
1002 18-03-2020 22:59:17 11.8 C 72 %
1003 18-03-2020 23:09:18 11.8 C 72 %
1004 18-03-2020 23:19:17 11.8 C 72 %
1005 18-03-2020 23:29:17 11.8 C 72 %
1006 18-03-2020 23:39:18 11.8 C 72 %
1007 18-03-2020 23:49:18 11.8 C 72 %
1008 18-03-2020 23:59:18 11.8 C 72 %
1009 19-03-2020 00:09:17 11.8 C 72 %
1010 19-03-2020 00:19:18 11.8 C 72 %
1011 19-03-2020 00:29:18 11.8 C 72 %
1012 19-03-2020 00:39:18 11.9 C 72 %
1013 19-03-2020 00:49:17 11.9 C 72 %
1014 19-03-2020 00:59:17 11.8 C 72 %
1015 19-03-2020 01:09:18 11.8 C 72 %
1016 19-03-2020 01:19:17 11.8 C 72 %
1017 19-03-2020 01:29:17 11.8 C 72 %
1018 19-03-2020 01:39:17 11.8 C 72 %
1019 19-03-2020 01:49:17 11.8 C 72 %
1020 19-03-2020 01:59:17 11.8 C 72 %
1021 19-03-2020 02:09:18 11.8 C 72 %
1022 19-03-2020 02:19:17 11.8 C 72 %
1023 19-03-2020 02:29:17 11.8 C 72 %
1024 19-03-2020 02:39:17 11.8 C 72 %
1025 19-03-2020 02:49:18 11.8 C 72 %
Sensor: Nr:Datum:Temp:Feuchte:
G-T/H 1026 19-03-2020 02:59:18 11.8 C 72 %
1027 19-03-2020 03:09:18 11.8 C 72 %
1028 19-03-2020 03:19:18 11.8 C 72 %
1029 19-03-2020 03:29:18 11.8 C 72 %
1030 19-03-2020 03:39:17 11.8 C 72 %
1031 19-03-2020 03:49:18 11.8 C 72 %
1032 19-03-2020 03:59:18 11.8 C 72 %
1033 19-03-2020 04:09:18 11.8 C 71 %
1034 19-03-2020 04:19:17 11.8 C 71 %
1035 19-03-2020 04:29:17 11.8 C 71 %
1036 19-03-2020 04:39:17 11.8 C 71 %
1037 19-03-2020 04:49:18 11.8 C 71 %
1038 19-03-2020 04:59:18 11.8 C 71 %
1039 19-03-2020 05:09:18 11.8 C 71 %
1040 19-03-2020 05:19:18 11.8 C 71 %
1041 19-03-2020 05:29:18 11.8 C 71 %
1042 19-03-2020 05:39:18 11.8 C 71 %
1043 19-03-2020 05:49:17 11.8 C 71 %
1044 19-03-2020 05:59:18 11.8 C 71 %
1045 19-03-2020 06:09:18 11.8 C 71 %
1046 19-03-2020 06:19:17 11.8 C 71 %
1047 19-03-2020 06:29:17 11.8 C 71 %
1048 19-03-2020 06:39:17 11.8 C 71 %
1049 19-03-2020 06:49:17 11.8 C 71 %
1050 19-03-2020 06:59:17 11.8 C 71 %
Sensor: Nr:Datum:Temp:Feuchte:
G-T/H 1051 19-03-2020 07:09:17 11.8 C 71 %
1052 19-03-2020 07:19:17 11.8 C 71 %
1053 19-03-2020 07:29:17 11.8 C 71 %
1054 19-03-2020 07:39:18 11.8 C 71 %
1055 19-03-2020 07:49:18 11.8 C 71 %
1056 19-03-2020 07:59:18 11.8 C 71 %
1057 19-03-2020 08:09:18 11.8 C 71 %
1058 19-03-2020 08:19:17 11.8 C 71 %
1059 19-03-2020 08:29:17 11.8 C 71 %
1060 19-03-2020 08:39:17 11.8 C 71 %
1061 19-03-2020 08:49:18 11.8 C 71 %
1062 19-03-2020 08:59:18 11.8 C 71 %
1063 19-03-2020 09:09:17 11.8 C 72 %
1064 19-03-2020 09:19:17 11.8 C 72 %
1065 19-03-2020 09:29:17 11.8 C 72 %
1066 19-03-2020 09:39:18 11.8 C 72 %
1067 19-03-2020 09:49:17 11.8 C 72 %
1068 19-03-2020 09:59:17 11.8 C 72 %
1069 19-03-2020 10:09:18 11.8 C 72 %
1070 19-03-2020 10:19:18 11.8 C 72 %
1071 19-03-2020 10:29:18 11.8 C 72 %
1072 19-03-2020 10:39:17 11.8 C 72 %
1073 19-03-2020 10:49:17 11.8 C 72 %
1074 19-03-2020 10:59:17 11.8 C 72 %
1075 19-03-2020 11:09:17 11.8 C 72 %
Sensor: Nr:Datum:Temp:Feuchte:
G-T/H 1076 19-03-2020 11:19:17 11.9 C 72 %
1077 19-03-2020 11:29:17 11.9 C 72 %
1078 19-03-2020 11:39:17 11.9 C 72 %
1079 19-03-2020 11:49:17 11.9 C 72 %
1080 19-03-2020 11:59:17 11.9 C 72 %
1081 19-03-2020 12:09:17 11.9 C 72 %
1082 19-03-2020 12:19:17 11.9 C 72 %
1083 19-03-2020 12:29:17 11.9 C 72 %
1084 19-03-2020 12:39:18 11.9 C 72 %
1085 19-03-2020 12:49:17 11.9 C 72 %
1086 19-03-2020 12:59:17 11.9 C 72 %
1087 19-03-2020 13:09:18 12 C 71 %
1088 19-03-2020 13:19:18 12 C 71 %
1089 19-03-2020 13:29:18 12 C 71 %
1090 19-03-2020 13:39:18 12 C 71 %
1091 19-03-2020 13:49:17 12 C 71 %
1092 19-03-2020 13:59:17 12.1 C 71 %
1093 19-03-2020 14:09:17 12.1 C 71 %
1094 19-03-2020 14:19:17 12.1 C 71 %
1095 19-03-2020 14:29:17 12.2 C 71 %
1096 19-03-2020 14:39:17 12.6 C 69 %
1097 19-03-2020 14:49:17 12.8 C 67 %
1098 19-03-2020 14:59:17 13 C 64 %
1099 19-03-2020 15:09:18 13.2 C 63 %
1100 19-03-2020 15:19:18 13.2 C 62 %
Sensor: Nr:Datum:Temp:Feuchte:
G-T/H 1101 19-03-2020 15:29:18 13.3 C 61 %
1102 19-03-2020 15:39:18 13.4 C 61 %
1103 19-03-2020 15:49:17 13.4 C 60 %
1104 19-03-2020 15:59:18 13.5 C 60 %
1105 19-03-2020 16:09:18 13.5 C 60 %
1106 19-03-2020 16:20:17 13.6 C 59 %
1107 19-03-2020 16:29:17 13.7 C 58 %
1108 19-03-2020 16:39:17 13.8 C 57 %
1109 19-03-2020 16:49:17 13.8 C 57 %
1110 19-03-2020 16:59:17 13.9 C 56 %
1111 19-03-2020 17:09:18 13.8 C 56 %
1112 19-03-2020 17:19:18 13.8 C 56 %
1113 19-03-2020 17:29:18 13.8 C 56 %
1114 19-03-2020 17:39:18 13.8 C 56 %
1115 19-03-2020 17:49:18 13.8 C 56 %
1116 19-03-2020 17:59:18 13.9 C 57 %
1117 19-03-2020 18:09:18 13.9 C 57 %
1118 19-03-2020 18:20:17 13.9 C 58 %
1119 19-03-2020 18:30:17 13.8 C 58 %
1120 19-03-2020 18:40:17 13.7 C 59 %
1121 19-03-2020 18:50:17 13.6 C 59 %
1122 19-03-2020 18:59:18 13.5 C 60 %
1123 19-03-2020 19:09:18 13.4 C 60 %
1124 19-03-2020 19:20:17 13.2 C 60 %
1125 19-03-2020 19:30:17 13.1 C 60 %
Sensor: Nr:Datum:Temp:Feuchte:
G-T/H 1126 19-03-2020 19:40:17 12.9 C 61 %
1127 19-03-2020 19:50:17 12.8 C 61 %
1128 19-03-2020 19:59:17 12.8 C 61 %
1129 19-03-2020 20:09:17 12.7 C 61 %
1130 19-03-2020 20:29:17 12.7 C 61 %
1131 19-03-2020 20:29:17 12.7 C 62 %
1132 19-03-2020 20:39:17 12.7 C 62 %
1133 19-03-2020 20:49:17 12.7 C 62 %
1134 19-03-2020 20:59:17 12.7 C 62 %
1135 19-03-2020 21:09:18 12.7 C 63 %
1136 19-03-2020 21:20:17 12.8 C 63 %
1137 19-03-2020 21:30:17 12.8 C 63 %
1138 19-03-2020 21:40:17 12.8 C 63 %
1139 19-03-2020 21:50:17 12.8 C 63 %
1140 19-03-2020 21:59:18 12.8 C 64 %
1141 19-03-2020 22:09:18 12.8 C 64 %
1142 19-03-2020 22:19:18 12.8 C 64 %
1143 19-03-2020 22:29:18 12.8 C 64 %
1144 19-03-2020 22:39:18 12.8 C 64 %
1145 19-03-2020 22:49:18 12.8 C 64 %
1146 19-03-2020 22:59:18 12.8 C 65 %
1147 19-03-2020 23:09:18 12.8 C 65 %
1148 19-03-2020 23:20:17 12.8 C 65 %
1149 19-03-2020 23:30:17 12.8 C 65 %
1150 19-03-2020 23:40:17 12.8 C 65 %
Sensor: Nr:Datum:Temp:Feuchte:
G-T/H 1151 19-03-2020 23:50:17 12.8 C 65 %
1152 19-03-2020 23:59:18 12.8 C 65 %
1153 20-03-2020 00:09:18 12.8 C 66 %
1154 20-03-2020 00:19:18 12.8 C 66 %
1155 20-03-2020 00:29:18 12.8 C 66 %
1156 20-03-2020 00:39:18 12.8 C 66 %
1157 20-03-2020 00:59:17 12.8 C 66 %
1158 20-03-2020 01:00:18 12.8 C 66 %
1159 20-03-2020 01:10:18 12.8 C 66 %
1160 20-03-2020 01:20:17 12.8 C 66 %
1161 20-03-2020 01:30:18 12.8 C 66 %
1162 20-03-2020 01:40:18 12.8 C 66 %
1163 20-03-2020 01:50:17 12.8 C 66 %
1164 20-03-2020 02:00:18 12.8 C 66 %
1165 20-03-2020 02:10:18 12.8 C 66 %
1166 20-03-2020 02:20:17 12.8 C 67 %
1167 20-03-2020 02:30:17 12.8 C 67 %
1168 20-03-2020 02:40:17 12.7 C 67 %
1169 20-03-2020 02:50:17 12.8 C 67 %
1170 20-03-2020 03:00:17 12.7 C 67 %
1171 20-03-2020 03:10:17 12.7 C 67 %
1172 20-03-2020 03:20:17 12.7 C 67 %
1173 20-03-2020 03:30:18 12.7 C 67 %
1174 20-03-2020 03:40:18 12.7 C 67 %
1175 20-03-2020 03:50:17 12.7 C 67 %
Sensor: Nr:Datum:Temp:Feuchte:
G-T/H 1176 20-03-2020 04:00:18 12.7 C 67 %
1177 20-03-2020 04:10:18 12.7 C 67 %
1178 20-03-2020 04:20:18 12.7 C 67 %
1179 20-03-2020 04:30:18 12.7 C 67 %
1180 20-03-2020 04:40:18 12.7 C 67 %
1181 20-03-2020 04:50:17 12.6 C 67 %
1182 20-03-2020 05:00:18 12.6 C 67 %
1183 20-03-2020 05:10:18 12.7 C 67 %
1184 20-03-2020 05:20:17 12.6 C 67 %
1185 20-03-2020 05:30:17 12.6 C 67 %
1186 20-03-2020 05:40:17 12.6 C 67 %
1187 20-03-2020 05:50:17 12.5 C 67 %
1188 20-03-2020 06:00:17 12.5 C 67 %
1189 20-03-2020 06:10:17 12.5 C 67 %
1190 20-03-2020 06:20:17 12.5 C 67 %
1191 20-03-2020 06:30:17 12.5 C 67 %
1192 20-03-2020 06:40:17 12.5 C 67 %
1193 20-03-2020 06:50:17 12.5 C 67 %
1194 20-03-2020 07:00:17 12.5 C 67 %
1195 20-03-2020 07:10:17 12.5 C 67 %
1196 20-03-2020 07:20:17 12.4 C 67 %
1197 20-03-2020 07:30:17 12.5 C 67 %
1198 20-03-2020 07:40:17 12.4 C 67 %
1199 20-03-2020 07:50:18 12.4 C 67 %
1200 20-03-2020 08:00:17 12.4 C 67 %
Sensor: Nr:Datum:Temp:Feuchte:
G-T/H 1201 20-03-2020 08:10:17 12.4 C 67 %
1202 20-03-2020 08:20:17 12.4 C 67 %
1203 20-03-2020 08:30:17 12.4 C 67 %
1204 20-03-2020 08:40:17 12.4 C 67 %
1205 20-03-2020 08:50:17 12.4 C 67 %
1206 20-03-2020 09:00:17 12.4 C 67 %
1207 20-03-2020 09:10:17 12.3 C 67 %
1208 20-03-2020 09:20:17 12.4 C 67 %
1209 20-03-2020 09:30:17 12.4 C 67 %
1210 20-03-2020 09:40:17 12.4 C 68 %
1211 20-03-2020 09:50:17 12.4 C 68 %
1212 20-03-2020 10:00:18 12.3 C 68 %
1213 20-03-2020 10:10:18 12.3 C 68 %
1214 20-03-2020 10:20:18 12.3 C 68 %
1215 20-03-2020 10:30:18 12.3 C 68 %
1216 20-03-2020 10:40:18 12.3 C 68 %
1217 20-03-2020 10:50:18 12.3 C 68 %
1218 20-03-2020 11:00:17 12.3 C 68 %
1219 20-03-2020 11:10:18 12.3 C 68 %
1220 20-03-2020 11:20:18 12.3 C 68 %
1221 20-03-2020 11:30:18 12.3 C 68 %
1222 20-03-2020 11:40:18 12.3 C 68 %
1223 20-03-2020 11:50:18 12.3 C 68 %
1224 20-03-2020 12:00:17 12.3 C 68 %
1225 20-03-2020 12:10:17 12.3 C 68 %
Sensor: Nr:Datum:Temp:Feuchte:
G-T/H 1226 20-03-2020 12:20:17 12.3 C 68 %
1227 20-03-2020 12:30:18 12.3 C 68 %
1228 20-03-2020 12:40:18 12.3 C 68 %
1229 20-03-2020 12:50:18 12.3 C 68 %
1230 20-03-2020 13:00:18 12.3 C 68 %
1231 20-03-2020 13:10:18 12.4 C 68 %
1232 20-03-2020 13:20:18 12.4 C 69 %
1233 20-03-2020 13:30:18 12.4 C 69 %
1234 20-03-2020 13:40:18 12.4 C 69 %
1235 20-03-2020 13:50:17 12.4 C 69 %
1236 20-03-2020 14:00:17 12.4 C 69 %
1237 20-03-2020 14:10:17 12.4 C 69 %
1238 20-03-2020 14:20:17 12.4 C 69 %
1239 20-03-2020 14:30:18 12.4 C 69 %
1240 20-03-2020 14:40:18 12.4 C 69 %
1241 20-03-2020 14:50:18 12.4 C 69 %
1242 20-03-2020 15:00:17 12.4 C 69 %
1243 20-03-2020 15:10:17 12.4 C 69 %
1244 20-03-2020 15:20:17 12.5 C 69 %
1245 20-03-2020 15:30:18 12.5 C 69 %
1246 20-03-2020 15:40:18 12.5 C 69 %
1247 20-03-2020 15:50:18 12.4 C 69 %
1248 20-03-2020 16:00:17 12.5 C 69 %
1249 20-03-2020 16:10:17 12.5 C 69 %
1250 20-03-2020 16:20:17 12.5 C 69 %
Sensor: Nr:Datum:Temp:Feuchte:
G-T/H 1251 20-03-2020 16:30:18 12.5 C 69 %
1252 20-03-2020 16:40:18 12.5 C 69 %
1253 20-03-2020 16:50:18 12.5 C 69 %
1254 20-03-2020 17:00:18 12.6 C 69 %
1255 20-03-2020 17:10:18 12.7 C 69 %
1256 20-03-2020 17:20:18 12.8 C 69 %
1257 20-03-2020 17:30:18 12.8 C 68 %
1258 20-03-2020 17:40:18 12.7 C 68 %
1259 20-03-2020 17:50:17 12.7 C 68 %
1260 20-03-2020 18:00:17 12.6 C 68 %
1261 20-03-2020 18:10:17 12.7 C 68 %
1262 20-03-2020 18:20:17 12.6 C 68 %
1263 20-03-2020 18:30:17 12.6 C 68 %
1264 20-03-2020 18:40:17 12.6 C 68 %
1265 20-03-2020 18:50:18 12.6 C 68 %
1266 20-03-2020 19:00:17 12.6 C 68 %
1267 20-03-2020 19:10:17 12.6 C 68 %
1268 20-03-2020 19:20:17 12.6 C 68 %
1269 20-03-2020 19:30:17 12.6 C 68 %
1270 20-03-2020 19:40:17 12.6 C 68 %
1271 20-03-2020 19:50:17 12.6 C 68 %
1272 20-03-2020 20:00:17 12.6 C 68 %
1273 20-03-2020 20:10:17 12.6 C 68 %
1274 20-03-2020 20:20:17 12.6 C 68 %
1275 20-03-2020 20:30:17 12.6 C 68 %
Sensor: Nr:Datum:Temp:Feuchte:
G-T/H 1276 20-03-2020 20:40:17 12.6 C 68 %
1277 20-03-2020 20:50:18 12.6 C 68 %
1278 20-03-2020 21:00:18 12.6 C 68 %
1279 20-03-2020 21:10:18 12.6 C 68 %
1280 20-03-2020 21:20:17 12.6 C 68 %
1281 20-03-2020 21:30:17 12.6 C 68 %
1282 20-03-2020 21:40:17 12.5 C 68 %
1283 20-03-2020 21:50:17 12.5 C 68 %
1284 20-03-2020 22:00:17 12.5 C 67 %
1285 20-03-2020 22:10:17 12.5 C 67 %
1286 20-03-2020 22:20:18 12.5 C 67 %
1287 20-03-2020 22:30:17 12.5 C 67 %
1288 20-03-2020 22:40:18 12.5 C 67 %
1289 20-03-2020 22:50:17 12.5 C 67 %
1290 20-03-2020 23:00:18 12.5 C 67 %
1291 20-03-2020 23:10:18 12.5 C 67 %
1292 20-03-2020 23:20:17 12.5 C 67 %
1293 20-03-2020 23:30:18 12.5 C 67 %
1294 20-03-2020 23:40:18 12.5 C 67 %
1295 20-03-2020 23:50:18 12.4 C 66 %
1296 21-03-2020 00:00:17 12.5 C 66 %
1297 21-03-2020 00:10:17 12.4 C 66 %
1298 21-03-2020 00:20:17 12.5 C 66 %
1299 21-03-2020 00:30:17 12.4 C 66 %
1300 21-03-2020 00:40:17 12.4 C 66 %
Sensor: Nr:Datum:Temp:Feuchte:
G-T/H 1301 21-03-2020 00:50:17 12.4 C 66 %
1302 21-03-2020 01:00:17 12.4 C 66 %
1303 21-03-2020 01:10:17 12.4 C 66 %
1304 21-03-2020 01:20:17 12.4 C 66 %
1305 21-03-2020 01:30:18 12.4 C 66 %
1306 21-03-2020 01:40:18 12.4 C 66 %
1307 21-03-2020 01:50:17 12.4 C 66 %
1308 21-03-2020 02:00:18 12.3 C 66 %
1309 21-03-2020 02:10:18 12.3 C 66 %
1310 21-03-2020 02:20:17 12.3 C 66 %
1311 21-03-2020 02:30:18 12.3 C 66 %
1312 21-03-2020 02:40:18 12.3 C 66 %
1313 21-03-2020 02:50:18 12.3 C 66 %
1314 21-03-2020 03:00:17 12.3 C 66 %
1315 21-03-2020 03:10:17 12.3 C 66 %
1316 21-03-2020 03:20:17 12.2 C 66 %
1317 21-03-2020 03:30:18 12.2 C 66 %
1318 21-03-2020 03:40:18 12.2 C 66 %
1319 21-03-2020 03:50:17 12.2 C 66 %
1320 21-03-2020 04:00:18 12.2 C 66 %
1321 21-03-2020 04:10:18 12.2 C 66 %
1322 21-03-2020 04:20:17 12.2 C 66 %
1323 21-03-2020 04:30:18 12.1 C 66 %
1324 21-03-2020 04:40:18 12.1 C 66 %
1325 21-03-2020 04:50:18 12.1 C 66 %
Sensor: Nr:Datum:Temp:Feuchte:
G-T/H 1326 21-03-2020 05:00:18 12.1 C 65 %
1327 21-03-2020 05:10:18 12 C 65 %
1328 21-03-2020 05:20:18 12 C 65 %
1329 21-03-2020 05:30:18 12 C 65 %
1330 21-03-2020 05:40:18 12 C 65 %
1331 21-03-2020 05:50:17 11.9 C 66 %
1332 21-03-2020 06:00:18 11.9 C 66 %
1333 21-03-2020 06:10:18 12 C 65 %
1334 21-03-2020 06:20:17 11.9 C 66 %
1335 21-03-2020 06:30:18 11.9 C 66 %
1336 21-03-2020 06:40:18 11.9 C 67 %
1337 21-03-2020 06:50:17 11.9 C 67 %
1338 21-03-2020 07:00:17 11.9 C 67 %
1339 21-03-2020 07:10:18 11.9 C 67 %
1340 21-03-2020 07:20:18 11.8 C 67 %
1341 21-03-2020 07:30:18 11.8 C 66 %
1342 21-03-2020 07:40:18 11.8 C 66 %
1343 21-03-2020 07:50:17 11.8 C 66 %
1344 21-03-2020 08:00:18 11.7 C 66 %
1345 21-03-2020 08:10:18 11.7 C 66 %
1346 21-03-2020 08:20:17 11.7 C 67 %
1347 21-03-2020 08:30:17 11.7 C 67 %
1348 21-03-2020 08:40:17 11.7 C 67 %
1349 21-03-2020 08:50:18 11.7 C 67 %
1350 21-03-2020 09:00:18 11.7 C 67 %
Sensor: Nr:Datum:Temp:Feuchte:
G-T/H 1351 21-03-2020 09:10:18 11.7 C 67 %
1352 21-03-2020 09:20:18 11.7 C 67 %
1353 21-03-2020 09:30:18 11.7 C 67 %
1354 21-03-2020 09:40:18 11.6 C 67 %
1355 21-03-2020 09:50:17 11.6 C 67 %
1356 21-03-2020 10:00:17 11.6 C 67 %
1357 21-03-2020 10:10:18 11.6 C 67 %
1358 21-03-2020 10:20:18 11.6 C 67 %
1359 21-03-2020 10:30:18 11.5 C 67 %
1360 21-03-2020 10:40:18 11.5 C 67 %
1361 21-03-2020 10:50:17 11.5 C 67 %
1362 21-03-2020 11:00:17 11.6 C 67 %
1363 21-03-2020 11:10:18 11.5 C 67 %
1364 21-03-2020 11:20:18 11.5 C 67 %
1365 21-03-2020 11:30:18 11.5 C 67 %
1366 21-03-2020 11:40:18 11.5 C 67 %
1367 21-03-2020 11:50:18 11.5 C 67 %
1368 21-03-2020 12:00:18 11.6 C 67 %
1369 21-03-2020 12:10:18 11.5 C 67 %
1370 21-03-2020 12:20:17 11.5 C 66 %
1371 21-03-2020 12:30:17 11.5 C 66 %
1372 21-03-2020 12:40:17 11.5 C 66 %
1373 21-03-2020 12:50:17 11.4 C 65 %
1374 21-03-2020 13:00:17 11.4 C 65 %
1375 21-03-2020 13:10:17 11.4 C 65 %
Sensor: Nr:Datum:Temp:Feuchte:
G-T/H 1376 21-03-2020 13:20:18 11.4 C 64 %
1377 21-03-2020 13:30:18 11.4 C 64 %
1378 21-03-2020 13:40:18 11.4 C 64 %
1379 21-03-2020 13:50:17 11.3 C 63 %
1380 21-03-2020 14:00:18 11.3 C 63 %
1381 21-03-2020 14:10:18 11.3 C 63 %
1382 21-03-2020 14:20:18 11.3 C 63 %
1383 21-03-2020 14:30:18 11.3 C 62 %
1384 21-03-2020 14:40:18 11.3 C 62 %
1385 21-03-2020 14:50:17 11.3 C 62 %
1386 21-03-2020 15:00:18 11.3 C 62 %
1387 21-03-2020 15:10:18 11.3 C 62 %
1388 21-03-2020 15:20:17 11.2 C 61 %
1389 21-03-2020 15:30:17 11.3 C 61 %
1390 21-03-2020 15:40:17 11.3 C 61 %
1391 21-03-2020 15:50:17 11.2 C 61 %
1392 21-03-2020 16:00:18 11.2 C 60 %
1393 21-03-2020 16:10:18 11.2 C 60 %
1394 21-03-2020 16:20:17 11.2 C 60 %
1395 21-03-2020 16:30:17 11.2 C 60 %
1396 21-03-2020 16:40:17 11.2 C 60 %
1397 21-03-2020 16:50:17 11.2 C 61 %
1398 21-03-2020 17:00:17 11.2 C 61 %
1399 21-03-2020 17:10:17 11.2 C 61 %
1400 21-03-2020 17:20:17 11.2 C 61 %
Sensor: Nr:Datum:Temp:Feuchte:
G-T/H 1401 21-03-2020 17:30:18 11.2 C 61 %
1402 21-03-2020 17:40:18 11.2 C 60 %
1403 21-03-2020 17:50:17 11.2 C 60 %
1404 21-03-2020 18:00:17 11.2 C 60 %
1405 21-03-2020 18:10:17 11.2 C 60 %
1406 21-03-2020 18:20:17 11.1 C 60 %
1407 21-03-2020 18:30:17 11.1 C 60 %
1408 21-03-2020 18:40:17 11.1 C 60 %
1409 21-03-2020 18:50:17 11.1 C 61 %
1410 21-03-2020 19:00:17 11.2 C 61 %
1411 21-03-2020 19:10:17 11.1 C 61 %
1412 21-03-2020 19:20:17 11.1 C 61 %
1413 21-03-2020 19:30:18 11.1 C 61 %
1414 21-03-2020 19:40:18 11.1 C 61 %
1415 21-03-2020 19:50:17 11.1 C 61 %
1416 21-03-2020 20:00:18 11.1 C 61 %
1417 21-03-2020 20:10:18 11 C 60 %
1418 21-03-2020 20:20:18 11.1 C 60 %
1419 21-03-2020 20:30:18 11 C 60 %
1420 21-03-2020 20:40:18 11 C 60 %
1421 21-03-2020 20:50:17 11 C 60 %
1422 21-03-2020 21:00:18 11 C 60 %
1423 21-03-2020 21:10:18 11 C 60 %
1424 21-03-2020 21:20:18 11 C 60 %
1425 21-03-2020 21:30:18 11 C 61 %
Sensor: Nr:Datum:Temp:Feuchte:
G-T/H 1426 21-03-2020 21:40:18 11 C 61 %
1427 21-03-2020 21:50:17 11 C 61 %
1428 21-03-2020 22:00:17 10.9 C 62 %
1429 21-03-2020 22:10:17 10.9 C 61 %
1430 21-03-2020 22:20:17 10.8 C 61 %
1431 21-03-2020 22:30:18 10.8 C 61 %
1432 21-03-2020 22:40:18 10.8 C 61 %
1433 21-03-2020 22:50:18 10.8 C 61 %
1434 21-03-2020 23:00:18 10.8 C 61 %
1435 21-03-2020 23:10:18 10.8 C 60 %
1436 21-03-2020 23:20:18 10.8 C 61 %
1437 21-03-2020 23:30:18 10.7 C 60 %
1438 21-03-2020 23:40:18 10.7 C 60 %
1439 21-03-2020 23:50:17 10.7 C 60 %
1440 22-03-2020 00:00:18 10.7 C 60 %
1441 22-03-2020 00:10:18 10.6 C 60 %
1442 22-03-2020 00:20:17 10.6 C 60 %
1443 22-03-2020 00:30:17 10.6 C 60 %
1444 22-03-2020 00:40:17 10.5 C 60 %
1445 22-03-2020 00:50:17 10.5 C 60 %
1446 22-03-2020 01:00:18 10.5 C 59 %
1447 22-03-2020 01:10:18 10.5 C 59 %
1448 22-03-2020 01:20:18 10.4 C 59 %
1449 22-03-2020 01:30:18 10.4 C 59 %
1450 22-03-2020 01:40:18 10.4 C 59 %
Sensor: Nr:Datum:Temp:Feuchte:
G-T/H 1451 22-03-2020 01:50:18 10.4 C 59 %
1452 22-03-2020 02:00:18 10.4 C 59 %
1453 22-03-2020 02:10:18 10.3 C 59 %
1454 22-03-2020 02:20:17 10.3 C 58 %
1455 22-03-2020 02:30:18 10.3 C 58 %
1456 22-03-2020 02:40:18 10.2 C 58 %
1457 22-03-2020 02:50:18 10.2 C 58 %
1458 22-03-2020 03:00:18 10.2 C 58 %
1459 22-03-2020 03:10:18 10.2 C 58 %
1460 22-03-2020 03:20:18 10.1 C 58 %
1461 22-03-2020 03:30:18 10.1 C 58 %
1462 22-03-2020 03:40:18 10.1 C 58 %
1463 22-03-2020 03:50:17 10.1 C 58 %
1464 22-03-2020 04:00:17 10.1 C 58 %
1465 22-03-2020 04:10:17 10 C 58 %
1466 22-03-2020 04:20:17 10 C 58 %
1467 22-03-2020 04:30:17 10 C 58 %
1468 22-03-2020 04:40:17 10 C 59 %
1469 22-03-2020 04:50:17 10 C 59 %
1470 22-03-2020 05:00:18 10 C 59 %
1471 22-03-2020 05:10:18 10 C 59 %
1472 22-03-2020 05:20:17 9.9 C 60 %
1473 22-03-2020 05:30:18 9.9 C 60 %
1474 22-03-2020 05:40:18 9.9 C 61 %
1475 22-03-2020 05:50:17 9.8 C 61 %
Sensor: Nr:Datum:Temp:Feuchte:
G-T/H 1476 22-03-2020 06:00:17 9.9 C 61 %
1477 22-03-2020 06:10:17 9.8 C 61 %
1478 22-03-2020 06:20:17 9.8 C 61 %
1479 22-03-2020 06:30:17 9.8 C 61 %
1480 22-03-2020 06:40:17 9.8 C 61 %
1481 22-03-2020 06:50:18 9.8 C 61 %
1482 22-03-2020 07:00:18 9.8 C 61 %
1483 22-03-2020 07:10:18 9.7 C 61 %
1484 22-03-2020 07:20:18 9.7 C 61 %
1485 22-03-2020 07:30:18 9.7 C 61 %
1486 22-03-2020 07:40:18 9.7 C 61 %
1487 22-03-2020 07:50:17 9.7 C 61 %
1488 22-03-2020 08:00:18 9.7 C 61 %
1489 22-03-2020 08:10:18 9.6 C 61 %
1490 22-03-2020 08:20:18 9.6 C 61 %
1491 22-03-2020 08:30:18 9.6 C 61 %
1492 22-03-2020 08:40:18 9.6 C 61 %
1493 22-03-2020 08:50:18 9.5 C 61 %
1494 22-03-2020 09:00:18 9.5 C 61 %
1495 22-03-2020 09:10:18 9.5 C 62 %
1496 22-03-2020 09:20:18 9.5 C 62 %
1497 22-03-2020 09:30:18 9.5 C 61 %
1498 22-03-2020 09:40:18 9.5 C 61 %
1499 22-03-2020 09:50:17 9.5 C 61 %
1500 22-03-2020 10:00:18 9.4 C 61 %
Sensor: Nr:Datum:Temp:Feuchte:
G-T/H 1501 22-03-2020 10:10:18 9.4 C 62 %
1502 22-03-2020 10:20:18 9.4 C 62 %
1503 22-03-2020 10:30:18 9.4 C 61 %
1504 22-03-2020 10:40:18 9.4 C 61 %
1505 22-03-2020 10:50:17 9.4 C 61 %
1506 22-03-2020 11:00:18 9.4 C 61 %
1507 22-03-2020 11:10:18 9.4 C 61 %
1508 22-03-2020 11:20:17 9.3 C 61 %
1509 22-03-2020 11:30:18 9.3 C 61 %
1510 22-03-2020 11:40:18 9.3 C 61 %
1511 22-03-2020 11:50:17 9.3 C 61 %
1512 22-03-2020 12:00:18 9.4 C 61 %
1513 22-03-2020 12:10:18 9.3 C 61 %
1514 22-03-2020 12:20:18 9.3 C 61 %
1515 22-03-2020 12:30:17 9.3 C 61 %
1516 22-03-2020 12:40:17 9.3 C 61 %
1517 22-03-2020 12:50:18 9.3 C 61 %
1518 22-03-2020 13:00:18 9.3 C 61 %
1519 22-03-2020 13:10:18 9.3 C 61 %
1520 22-03-2020 13:20:17 9.3 C 61 %
1521 22-03-2020 13:30:18 9.3 C 61 %
1522 22-03-2020 13:40:18 9.3 C 61 %
1523 22-03-2020 13:50:18 9.3 C 61 %
1524 22-03-2020 14:00:17 9.3 C 61 %
1525 22-03-2020 14:10:17 9.3 C 61 %
Sensor: Nr:Datum:Temp:Feuchte:
G-T/H 1526 22-03-2020 14:20:17 9.3 C 61 %
1527 22-03-2020 14:30:17 9.3 C 61 %
1528 22-03-2020 14:40:17 9.3 C 61 %
1529 22-03-2020 14:50:17 9.3 C 61 %
1530 22-03-2020 15:00:18 9.3 C 61 %
1531 22-03-2020 15:10:18 9.4 C 61 %
1532 22-03-2020 15:20:17 9.4 C 61 %
1533 22-03-2020 15:30:17 9.4 C 61 %
1534 22-03-2020 15:40:17 9.4 C 61 %
1535 22-03-2020 15:50:18 9.4 C 62 %
1536 22-03-2020 16:00:18 9.4 C 62 %
1537 22-03-2020 16:10:18 9.4 C 62 %
1538 22-03-2020 16:20:18 9.4 C 62 %
1539 22-03-2020 16:30:18 9.5 C 62 %
1540 22-03-2020 16:40:18 9.5 C 62 %
1541 22-03-2020 16:50:17 9.4 C 62 %
1542 22-03-2020 17:00:17 9.5 C 62 %
1543 22-03-2020 17:10:17 9.4 C 62 %
1544 22-03-2020 17:20:17 9.5 C 62 %
1545 22-03-2020 17:30:17 9.5 C 62 %
1546 22-03-2020 17:40:17 9.5 C 62 %
1547 22-03-2020 17:50:17 9.5 C 62 %
1548 22-03-2020 18:00:18 9.5 C 62 %
1549 22-03-2020 18:10:18 9.5 C 62 %
1550 22-03-2020 18:20:17 9.5 C 62 %
Sensor: Nr:Datum:Temp:Feuchte:
G-T/H 1551 22-03-2020 18:30:17 9.5 C 62 %
1552 22-03-2020 18:40:17 9.5 C 63 %
1553 22-03-2020 18:50:17 9.5 C 63 %
1554 22-03-2020 19:00:17 9.5 C 63 %
1555 22-03-2020 19:10:17 9.5 C 63 %
1556 22-03-2020 19:20:17 9.5 C 63 %
1557 22-03-2020 19:30:17 9.5 C 63 %
1558 22-03-2020 19:40:17 9.5 C 63 %
1559 22-03-2020 19:50:18 9.5 C 63 %
1560 22-03-2020 20:00:18 9.5 C 63 %
1561 22-03-2020 20:10:18 9.5 C 64 %
1562 22-03-2020 20:20:17 9.5 C 64 %
1563 22-03-2020 20:30:17 9.5 C 64 %
1564 22-03-2020 20:40:17 9.5 C 64 %
1565 22-03-2020 20:50:17 9.5 C 64 %
1566 22-03-2020 21:00:17 9.5 C 64 %
1567 22-03-2020 21:10:17 9.5 C 64 %
1568 22-03-2020 21:20:17 9.5 C 64 %
1569 22-03-2020 21:30:17 9.5 C 64 %
1570 22-03-2020 21:40:17 9.5 C 64 %
1571 22-03-2020 21:50:18 9.5 C 64 %
1572 22-03-2020 22:00:18 9.5 C 64 %
1573 22-03-2020 22:10:18 9.5 C 64 %
1574 22-03-2020 22:20:17 9.5 C 64 %
1575 22-03-2020 22:30:17 9.5 C 64 %
Sensor: Nr:Datum:Temp:Feuchte:
G-T/H 1576 22-03-2020 22:40:17 9.5 C 64 %
1577 22-03-2020 22:50:17 9.5 C 64 %
1578 22-03-2020 23:00:17 9.5 C 64 %
1579 22-03-2020 23:10:17 9.4 C 64 %
1580 22-03-2020 23:20:17 9.4 C 64 %
1581 22-03-2020 23:30:18 9.4 C 64 %
1582 22-03-2020 23:40:18 9.4 C 64 %
1583 22-03-2020 23:50:18 9.4 C 63 %
1584 23-03-2020 00:00:18 9.4 C 63 %
1585 23-03-2020 00:10:18 9.4 C 63 %
1586 23-03-2020 00:20:17 9.4 C 63 %
1587 23-03-2020 00:30:17 9.4 C 63 %
1588 23-03-2020 00:40:17 9.3 C 63 %
1589 23-03-2020 00:50:18 9.3 C 63 %
1590 23-03-2020 01:00:17 9.3 C 63 %
1591 23-03-2020 01:10:17 9.3 C 63 %
1592 23-03-2020 01:20:17 9.3 C 63 %
1593 23-03-2020 01:30:18 9.3 C 63 %
1594 23-03-2020 01:40:18 9.2 C 63 %
1595 23-03-2020 01:50:18 9.2 C 63 %
1596 23-03-2020 02:00:18 9.2 C 63 %
1597 23-03-2020 02:10:18 9.2 C 63 %
1598 23-03-2020 02:20:17 9.2 C 63 %
1599 23-03-2020 02:30:17 9.2 C 63 %
1600 23-03-2020 02:40:17 9.1 C 63 %
Sensor: Nr:Datum:Temp:Feuchte:
G-T/H 1601 23-03-2020 02:50:17 9.1 C 63 %
1602 23-03-2020 03:00:17 9.1 C 63 %
1603 23-03-2020 03:10:18 9.1 C 63 %
1604 23-03-2020 03:20:18 9.1 C 63 %
1605 23-03-2020 03:30:18 9.1 C 63 %
1606 23-03-2020 03:40:18 9.1 C 63 %
1607 23-03-2020 03:50:18 9 C 62 %
1608 23-03-2020 04:00:18 9 C 62 %
1609 23-03-2020 04:10:18 9 C 62 %
1610 23-03-2020 04:20:17 9 C 62 %
1611 23-03-2020 04:30:17 9 C 62 %
1612 23-03-2020 04:40:17 9 C 62 %
1613 23-03-2020 04:50:17 8.9 C 63 %
1614 23-03-2020 05:00:18 8.9 C 63 %
1615 23-03-2020 05:10:18 8.9 C 63 %
1616 23-03-2020 05:20:17 8.9 C 63 %
1617 23-03-2020 05:30:18 8.9 C 63 %
1618 23-03-2020 05:40:18 8.8 C 63 %
1619 23-03-2020 05:50:17 8.8 C 63 %
1620 23-03-2020 06:00:18 8.8 C 63 %
1621 23-03-2020 06:10:18 8.8 C 63 %
1622 23-03-2020 06:20:17 8.8 C 63 %
1623 23-03-2020 06:30:18 8.7 C 63 %
1624 23-03-2020 06:40:18 8.7 C 63 %
1625 23-03-2020 06:50:18 8.7 C 63 %
Sensor: Nr:Datum:Temp:Feuchte:
G-T/H 1626 23-03-2020 07:00:18 8.7 C 62 %
1627 23-03-2020 07:10:18 8.6 C 62 %
1628 23-03-2020 07:20:18 8.6 C 62 %
1629 23-03-2020 07:30:18 8.6 C 62 %
1630 23-03-2020 07:40:18 8.6 C 62 %
1631 23-03-2020 07:50:18 8.6 C 62 %
1632 23-03-2020 08:00:18 8.6 C 62 %
1633 23-03-2020 08:10:18 8.5 C 62 %
1634 23-03-2020 08:20:17 8.5 C 62 %
1635 23-03-2020 08:30:18 8.5 C 62 %
1636 23-03-2020 08:40:18 8.5 C 62 %
1637 23-03-2020 08:50:18 8.5 C 62 %
1638 23-03-2020 09:00:18 8.5 C 62 %
1639 23-03-2020 09:10:18 8.5 C 62 %
1640 23-03-2020 09:20:18 8.5 C 62 %
1641 23-03-2020 09:30:17 8.4 C 62 %
1642 23-03-2020 09:40:17 8.4 C 62 %
1643 23-03-2020 09:50:18 8.4 C 62 %
1644 23-03-2020 10:00:18 8.4 C 62 %
1645 23-03-2020 10:10:18 8.4 C 62 %
1646 23-03-2020 10:20:18 8.4 C 62 %
1647 23-03-2020 10:30:17 8.4 C 62 %
1648 23-03-2020 10:40:17 8.4 C 62 %
1649 23-03-2020 10:50:17 8.4 C 62 %
1650 23-03-2020 11:00:17 8.4 C 62 %
Sensor: Nr:Datum:Temp:Feuchte:
G-T/H 1651 23-03-2020 11:10:17 8.4 C 62 %
1652 23-03-2020 11:20:17 8.4 C 62 %
1653 23-03-2020 11:30:18 8.4 C 62 %
1654 23-03-2020 11:40:18 8.4 C 62 %
1655 23-03-2020 11:50:17 8.4 C 62 %
1656 23-03-2020 12:00:18 8.4 C 62 %
1657 23-03-2020 12:10:18 8.4 C 62 %
1658 23-03-2020 12:20:18 8.4 C 62 %
1659 23-03-2020 12:30:18 8.4 C 62 %
1660 23-03-2020 12:40:18 8.4 C 62 %
1661 23-03-2020 12:50:18 8.4 C 62 %
1662 23-03-2020 13:00:17 8.4 C 62 %
1663 23-03-2020 13:10:17 8.4 C 62 %
1664 23-03-2020 13:20:17 8.4 C 62 %
1665 23-03-2020 13:30:17 8.4 C 62 %
1666 23-03-2020 13:40:17 8.4 C 62 %
1667 23-03-2020 13:50:17 8.4 C 62 %
1668 23-03-2020 14:00:18 8.4 C 62 %
1669 23-03-2020 14:10:18 8.4 C 62 %
1670 23-03-2020 14:20:18 8.4 C 62 %
1671 23-03-2020 14:30:18 8.4 C 62 %
1672 23-03-2020 14:40:18 8.4 C 63 %
1673 23-03-2020 14:50:18 8.4 C 63 %
1674 23-03-2020 15:00:18 8.4 C 63 %
1675 23-03-2020 15:10:18 8.4 C 63 %
Sensor: Nr:Datum:Temp:Feuchte:
G-T/H 1676 23-03-2020 15:20:17 8.4 C 63 %
1677 23-03-2020 15:30:17 8.5 C 63 %
1678 23-03-2020 15:40:17 8.5 C 63 %
1679 23-03-2020 15:50:17 8.5 C 63 %
1680 23-03-2020 16:00:17 8.5 C 63 %
1681 23-03-2020 16:10:17 8.5 C 63 %
1682 23-03-2020 16:20:17 8.5 C 63 %
1683 23-03-2020 16:30:18 8.5 C 63 %
1684 23-03-2020 16:40:18 8.6 C 63 %
1685 23-03-2020 16:50:17 8.5 C 63 %
1686 23-03-2020 17:00:18 8.5 C 63 %
1687 23-03-2020 17:10:18 8.5 C 63 %
1688 23-03-2020 17:20:18 8.6 C 63 %
1689 23-03-2020 17:30:18 8.6 C 63 %
1690 23-03-2020 17:40:18 8.6 C 63 %
1691 23-03-2020 17:50:17 8.6 C 63 %
1692 23-03-2020 18:00:18 8.6 C 63 %
1693 23-03-2020 18:10:18 8.6 C 64 %
1694 23-03-2020 18:20:17 8.6 C 64 %
1695 23-03-2020 18:30:18 8.6 C 64 %
1696 23-03-2020 18:40:18 8.6 C 64 %
1697 23-03-2020 18:50:18 8.6 C 64 %
1698 23-03-2020 19:00:18 8.6 C 64 %
1699 23-03-2020 19:10:18 8.6 C 64 %
1700 23-03-2020 19:20:17 8.6 C 64 %
Sensor: Nr:Datum:Temp:Feuchte:
G-T/H 1701 23-03-2020 19:30:18 8.6 C 64 %
1702 23-03-2020 19:40:18 8.6 C 64 %
1703 23-03-2020 19:50:18 8.6 C 64 %
1704 23-03-2020 20:00:17 8.6 C 64 %
1705 23-03-2020 20:10:17 8.6 C 64 %
1706 23-03-2020 20:20:17 8.6 C 64 %
1707 23-03-2020 20:30:18 8.6 C 64 %
1708 23-03-2020 20:40:18 8.6 C 64 %
1709 23-03-2020 20:50:18 8.6 C 64 %
1710 23-03-2020 21:00:18 8.6 C 64 %
1711 23-03-2020 21:10:18 8.6 C 64 %
1712 23-03-2020 21:20:17 8.6 C 64 %
1713 23-03-2020 21:30:18 8.6 C 64 %
1714 23-03-2020 21:40:18 8.6 C 64 %
1715 23-03-2020 21:50:18 8.6 C 64 %
1716 23-03-2020 22:00:17 8.6 C 64 %
1717 23-03-2020 22:10:18 8.6 C 64 %
1718 23-03-2020 22:20:18 8.6 C 64 %
1719 23-03-2020 22:30:18 8.6 C 64 %
1720 23-03-2020 22:40:18 8.6 C 64 %
1721 23-03-2020 22:50:18 8.6 C 64 %
1722 23-03-2020 23:00:18 8.6 C 64 %
1723 23-03-2020 23:10:18 8.6 C 64 %
1724 23-03-2020 23:20:17 8.6 C 64 %
1725 23-03-2020 23:30:17 8.6 C 64 %
Sensor: Nr:Datum:Temp:Feuchte:
G-T/H 1726 23-03-2020 23:40:17 8.6 C 64 %
1727 23-03-2020 23:50:18 8.5 C 64 %
1728 24-03-2020 00:00:18 8.5 C 64 %
1729 24-03-2020 00:10:18 8.5 C 64 %
1730 24-03-2020 00:20:17 8.5 C 64 %
1731 24-03-2020 00:30:18 8.5 C 64 %
1732 24-03-2020 00:40:18 8.5 C 64 %
1733 24-03-2020 00:50:18 8.5 C 64 %
1734 24-03-2020 01:00:18 8.5 C 64 %
1735 24-03-2020 01:10:18 8.5 C 64 %
1736 24-03-2020 01:20:18 8.4 C 64 %
1737 24-03-2020 01:30:18 8.4 C 64 %
1738 24-03-2020 01:40:18 8.4 C 64 %
1739 24-03-2020 01:50:18 8.4 C 64 %
1740 24-03-2020 02:00:18 8.4 C 64 %
1741 24-03-2020 02:10:18 8.4 C 63 %
1742 24-03-2020 02:20:17 8.4 C 63 %
1743 24-03-2020 02:30:17 8.4 C 63 %
1744 24-03-2020 02:40:17 8.3 C 63 %
1745 24-03-2020 02:50:17 8.3 C 63 %
1746 24-03-2020 03:00:17 8.3 C 63 %
1747 24-03-2020 03:10:17 8.2 C 63 %
1748 24-03-2020 03:20:17 8.3 C 63 %
1749 24-03-2020 03:30:17 8.3 C 63 %
1750 24-03-2020 03:40:17 8.3 C 63 %
Sensor: Nr:Datum:Temp:Feuchte:
G-T/H 1751 24-03-2020 03:50:17 8.2 C 63 %
1752 24-03-2020 04:00:18 8.2 C 63 %
1753 24-03-2020 04:10:18 8.2 C 63 %
1754 24-03-2020 04:20:18 8.2 C 63 %
1755 24-03-2020 04:30:18 8.1 C 63 %
1756 24-03-2020 04:40:18 8.1 C 63 %
1757 24-03-2020 04:50:17 8.1 C 63 %
1758 24-03-2020 05:00:17 8.1 C 63 %
1759 24-03-2020 05:10:17 8.1 C 63 %
1760 24-03-2020 05:20:17 8.1 C 63 %
1761 24-03-2020 05:30:18 8.1 C 63 %
1762 24-03-2020 05:40:18 8 C 63 %
1763 24-03-2020 05:50:18 8 C 63 %
1764 24-03-2020 06:00:17 8 C 63 %
1765 24-03-2020 06:10:18 8 C 63 %
1766 24-03-2020 06:20:17 8 C 62 %
1767 24-03-2020 06:30:18 7.9 C 63 %
1768 24-03-2020 06:40:18 7.9 C 63 %
1769 24-03-2020 06:50:18 8 C 62 %
1770 24-03-2020 07:00:18 7.9 C 63 %
1771 24-03-2020 07:10:18 7.9 C 63 %
1772 24-03-2020 07:20:18 7.9 C 63 %
1773 24-03-2020 07:30:18 7.9 C 63 %
1774 24-03-2020 07:40:18 7.9 C 63 %
1775 24-03-2020 07:50:17 7.8 C 63 %
Sensor: Nr:Datum:Temp:Feuchte:
G-T/H 1776 24-03-2020 08:00:17 7.8 C 63 %
1777 24-03-2020 08:10:17 7.8 C 63 %
1778 24-03-2020 08:20:17 7.8 C 63 %
1779 24-03-2020 08:30:17 7.8 C 63 %
1780 24-03-2020 08:40:17 7.8 C 63 %
1781 24-03-2020 08:50:17 7.8 C 63 %
1782 24-03-2020 09:00:17 7.8 C 63 %
1783 24-03-2020 09:10:17 7.8 C 63 %
1784 24-03-2020 09:20:17 7.8 C 63 %
1785 24-03-2020 09:30:17 7.8 C 63 %
1786 24-03-2020 09:40:17 7.8 C 63 %
1787 24-03-2020 09:50:18 7.8 C 63 %
1788 24-03-2020 10:00:18 7.8 C 64 %
1789 24-03-2020 10:10:18 7.8 C 64 %
1790 24-03-2020 10:20:17 7.8 C 64 %
1791 24-03-2020 10:30:17 7.7 C 64 %
1792 24-03-2020 10:40:17 7.7 C 64 %
1793 24-03-2020 10:50:17 7.7 C 64 %
1794 24-03-2020 11:00:18 7.7 C 64 %
1795 24-03-2020 11:10:18 7.8 C 64 %
1796 24-03-2020 11:20:17 7.7 C 64 %
1797 24-03-2020 11:30:17 7.7 C 64 %
1798 24-03-2020 11:40:17 7.7 C 64 %
1799 24-03-2020 11:50:18 7.7 C 64 %
1800 24-03-2020 12:00:18 7.7 C 64 %
Sensor: Nr:Datum:Temp:Feuchte:
G-T/H 1801 24-03-2020 12:10:18 7.7 C 64 %
1802 24-03-2020 12:20:17 7.7 C 64 %
1803 24-03-2020 12:30:17 7.8 C 64 %
1804 24-03-2020 12:40:17 7.8 C 64 %
1805 24-03-2020 12:50:17 7.8 C 64 %
1806 24-03-2020 13:00:18 7.8 C 65 %
1807 24-03-2020 13:10:18 7.8 C 65 %
1808 24-03-2020 13:20:17 7.8 C 64 %
1809 24-03-2020 13:30:17 7.8 C 64 %
1810 24-03-2020 13:40:17 7.8 C 64 %
1811 24-03-2020 13:50:18 7.8 C 64 %
1812 24-03-2020 14:00:17 7.8 C 64 %
1813 24-03-2020 14:10:17 7.8 C 65 %
1814 24-03-2020 14:20:17 7.8 C 65 %
1815 24-03-2020 14:30:17 7.8 C 65 %
1816 24-03-2020 14:40:17 7.9 C 64 %
1817 24-03-2020 14:50:18 7.9 C 64 %
1818 24-03-2020 15:00:18 7.8 C 64 %
1819 24-03-2020 15:10:18 7.9 C 64 %
1820 24-03-2020 15:20:18 7.9 C 64 %
1821 24-03-2020 15:30:18 7.9 C 64 %
1822 24-03-2020 15:40:18 7.9 C 64 %
1823 24-03-2020 15:50:18 7.9 C 64 %
1824 24-03-2020 16:00:18 7.9 C 64 %
1825 24-03-2020 16:10:18 7.9 C 64 %
Sensor: Nr:Datum:Temp:Feuchte:
G-T/H 1826 24-03-2020 16:20:18 7.9 C 64 %
1827 24-03-2020 16:30:18 7.9 C 64 %
1828 24-03-2020 16:40:18 7.9 C 64 %
1829 24-03-2020 16:50:18 7.9 C 64 %
1830 24-03-2020 17:00:18 8 C 63 %
1831 24-03-2020 17:10:18 8 C 63 %
1832 24-03-2020 17:20:18 8 C 63 %
1833 24-03-2020 17:30:18 8 C 64 %
1834 24-03-2020 17:40:18 8 C 64 %
1835 24-03-2020 17:50:17 8.1 C 64 %
1836 24-03-2020 18:00:17 8.1 C 64 %
1837 24-03-2020 18:10:17 8.1 C 64 %
1838 24-03-2020 18:20:17 8.1 C 64 %
1839 24-03-2020 18:30:17 8.1 C 64 %
1840 24-03-2020 18:40:18 8.2 C 65 %
1841 24-03-2020 18:50:17 8.1 C 65 %
1842 24-03-2020 19:00:18 8.2 C 65 %
1843 24-03-2020 19:10:18 8.2 C 65 %
1844 24-03-2020 19:20:18 8.1 C 65 %
1845 24-03-2020 19:30:18 8.1 C 65 %
1846 24-03-2020 19:40:18 8.2 C 65 %
1847 24-03-2020 19:50:17 8.2 C 65 %
1848 24-03-2020 20:00:18 8.2 C 65 %
1849 24-03-2020 20:10:18 8.2 C 65 %
1850 24-03-2020 20:20:17 8.2 C 65 %
Sensor: Nr:Datum:Temp:Feuchte:
G-T/H 1851 24-03-2020 20:30:18 8.2 C 65 %
1852 24-03-2020 20:40:18 8.2 C 65 %
1853 24-03-2020 20:50:18 8.2 C 65 %
1854 24-03-2020 21:00:18 8.2 C 65 %
1855 24-03-2020 21:10:18 8.2 C 65 %
1856 24-03-2020 21:20:17 8.2 C 65 %
1857 24-03-2020 21:30:17 8.2 C 65 %
1858 24-03-2020 21:40:17 8.2 C 65 %
1859 24-03-2020 21:50:17 8.2 C 65 %
1860 24-03-2020 22:00:18 8.2 C 65 %
1861 24-03-2020 22:10:18 8.2 C 65 %
1862 24-03-2020 22:20:17 8.2 C 65 %
1863 24-03-2020 22:30:18 8.2 C 65 %
1864 24-03-2020 22:40:18 8.2 C 65 %
1865 24-03-2020 22:50:17 8.2 C 65 %
1866 24-03-2020 23:00:18 8.2 C 65 %
1867 24-03-2020 23:10:18 8.2 C 64 %
1868 24-03-2020 23:20:17 8.2 C 64 %
1869 24-03-2020 23:30:18 8.2 C 64 %
1870 24-03-2020 23:40:18 8.2 C 64 %
1871 24-03-2020 23:50:18 8.2 C 64 %
1872 25-03-2020 00:00:17 8.2 C 64 %
1873 25-03-2020 00:10:17 8.2 C 64 %
1874 25-03-2020 00:20:17 8.1 C 64 %
1875 25-03-2020 00:30:17 8.1 C 64 %
Sensor: Nr:Datum:Temp:Feuchte:
G-T/H 1876 25-03-2020 00:40:18 8.1 C 64 %
1877 25-03-2020 00:50:17 8.1 C 64 %
1878 25-03-2020 01:00:17 8.1 C 64 %
1879 25-03-2020 01:10:18 8.1 C 64 %
1880 25-03-2020 01:20:17 8.1 C 64 %
1881 25-03-2020 01:30:18 8.1 C 64 %
1882 25-03-2020 01:40:18 8.1 C 64 %
1883 25-03-2020 01:50:17 8.1 C 64 %
1884 25-03-2020 02:00:17 8.1 C 64 %
1885 25-03-2020 02:10:18 8 C 64 %
1886 25-03-2020 02:20:18 8 C 64 %
1887 25-03-2020 02:30:18 8 C 64 %
1888 25-03-2020 02:40:18 8 C 64 %
1889 25-03-2020 02:50:18 8 C 63 %
1890 25-03-2020 03:00:18 8 C 63 %
1891 25-03-2020 03:10:18 8 C 63 %
1892 25-03-2020 03:20:17 8 C 63 %
1893 25-03-2020 03:30:17 7.9 C 64 %
1894 25-03-2020 03:40:17 7.9 C 64 %
1895 25-03-2020 03:50:17 7.9 C 64 %
1896 25-03-2020 04:00:17 7.9 C 64 %
1897 25-03-2020 04:10:17 7.9 C 64 %
1898 25-03-2020 04:20:17 7.9 C 64 %
1899 25-03-2020 04:30:18 7.9 C 64 %
1900 25-03-2020 04:40:18 7.8 C 64 %
Sensor: Nr:Datum:Temp:Feuchte:
G-T/H 1901 25-03-2020 04:50:17 7.8 C 64 %
1902 25-03-2020 05:00:18 7.8 C 64 %
1903 25-03-2020 05:10:18 7.8 C 64 %
1904 25-03-2020 05:20:17 7.8 C 64 %
1905 25-03-2020 05:30:17 7.8 C 64 %
1906 25-03-2020 05:40:17 7.7 C 64 %
1907 25-03-2020 05:50:17 7.8 C 64 %
1908 25-03-2020 06:00:17 7.7 C 64 %
1909 25-03-2020 06:10:17 7.7 C 64 %
1910 25-03-2020 06:20:17 7.7 C 64 %
1911 25-03-2020 06:30:17 7.7 C 64 %
1912 25-03-2020 06:40:17 7.7 C 64 %
1913 25-03-2020 06:50:17 7.6 C 63 %
1914 25-03-2020 07:00:17 7.6 C 63 %
1915 25-03-2020 07:10:17 7.6 C 63 %
1916 25-03-2020 07:20:17 7.6 C 63 %
1917 25-03-2020 07:30:17 7.6 C 63 %
1918 25-03-2020 07:40:17 7.6 C 63 %
1919 25-03-2020 07:50:17 7.6 C 63 %
1920 25-03-2020 08:00:17 7.5 C 63 %
1921 25-03-2020 08:10:17 7.6 C 63 %
1922 25-03-2020 08:20:17 7.6 C 63 %
1923 25-03-2020 08:30:17 7.5 C 63 %
1924 25-03-2020 08:40:17 7.5 C 63 %
1925 25-03-2020 08:50:17 7.5 C 63 %
Sensor: Nr:Datum:Temp:Feuchte:
G-T/H 1926 25-03-2020 09:00:17 7.5 C 63 %
1927 25-03-2020 09:10:17 7.5 C 63 %
1928 25-03-2020 09:20:17 7.5 C 64 %
1929 25-03-2020 09:30:17 7.5 C 64 %
1930 25-03-2020 09:40:18 7.5 C 64 %
1931 25-03-2020 09:50:17 7.5 C 64 %
1932 25-03-2020 10:00:18 7.4 C 64 %
1933 25-03-2020 10:10:18 7.4 C 64 %
1934 25-03-2020 10:20:17 7.5 C 64 %
1935 25-03-2020 10:30:17 7.5 C 64 %
1936 25-03-2020 10:40:17 7.4 C 64 %
1937 25-03-2020 10:50:17 7.4 C 64 %
1938 25-03-2020 11:00:17 7.4 C 64 %
1939 25-03-2020 11:10:17 7.4 C 64 %
1940 25-03-2020 11:20:17 7.5 C 64 %
1941 25-03-2020 11:30:18 7.5 C 64 %
1942 25-03-2020 11:40:18 7.4 C 64 %
1943 25-03-2020 11:50:17 7.4 C 64 %
1944 25-03-2020 12:00:17 7.5 C 64 %
1945 25-03-2020 12:10:17 7.4 C 64 %
1946 25-03-2020 12:20:17 7.4 C 64 %
1947 25-03-2020 12:30:17 7.5 C 64 %
1948 25-03-2020 12:40:17 7.5 C 64 %
1949 25-03-2020 12:50:17 7.5 C 64 %
1950 25-03-2020 13:00:17 7.5 C 64 %
Sensor: Nr:Datum:Temp:Feuchte:
G-T/H 1951 25-03-2020 13:10:17 7.5 C 64 %
1952 25-03-2020 13:20:18 7.5 C 64 %
1953 25-03-2020 13:30:18 7.5 C 64 %
1954 25-03-2020 13:40:18 7.5 C 64 %
1955 25-03-2020 13:50:18 7.5 C 64 %
1956 25-03-2020 14:00:18 7.5 C 64 %
1957 25-03-2020 14:10:18 7.6 C 64 %
1958 25-03-2020 14:20:17 7.6 C 64 %
1959 25-03-2020 14:30:17 7.6 C 64 %
1960 25-03-2020 14:40:17 7.6 C 64 %
1961 25-03-2020 14:50:17 7.7 C 63 %
1962 25-03-2020 15:00:17 7.6 C 62 %
1963 25-03-2020 15:10:17 7.7 C 62 %
1964 25-03-2020 15:20:18 7.6 C 62 %
1965 25-03-2020 15:30:18 7.7 C 62 %
1966 25-03-2020 15:40:18 7.7 C 62 %
1967 25-03-2020 15:50:17 7.7 C 62 %
1968 25-03-2020 16:00:18 7.7 C 62 %
1969 25-03-2020 16:10:18 7.8 C 62 %
1970 25-03-2020 16:20:17 7.7 C 62 %
1971 25-03-2020 16:30:17 7.8 C 62 %
1972 25-03-2020 16:40:17 7.8 C 62 %
1973 25-03-2020 16:50:18 7.8 C 62 %
1974 25-03-2020 17:00:18 7.8 C 62 %
1975 25-03-2020 17:10:18 7.8 C 62 %
Sensor: Nr:Datum:Temp:Feuchte:
G-T/H 1976 25-03-2020 17:20:17 7.9 C 62 %
1977 25-03-2020 17:30:17 7.9 C 62 %
1978 25-03-2020 17:40:17 7.9 C 62 %
1979 25-03-2020 17:50:17 7.9 C 62 %
1980 25-03-2020 18:00:18 7.9 C 62 %
1981 25-03-2020 18:10:18 7.9 C 62 %
1982 25-03-2020 18:20:17 8 C 62 %
1983 25-03-2020 18:30:18 8 C 62 %
1984 25-03-2020 18:40:18 8 C 62 %
1985 25-03-2020 18:50:18 8 C 62 %
1986 25-03-2020 19:00:18 8 C 62 %
1987 25-03-2020 19:10:18 8 C 63 %
1988 25-03-2020 19:20:17 8 C 63 %
1989 25-03-2020 19:30:18 8 C 63 %
1990 25-03-2020 19:40:18 8 C 63 %
1991 25-03-2020 19:50:17 8 C 63 %
1992 25-03-2020 20:00:17 8.1 C 63 %
1993 25-03-2020 20:10:17 8.1 C 64 %
1994 25-03-2020 20:20:17 8.1 C 64 %
1995 25-03-2020 20:30:18 8.1 C 64 %
1996 25-03-2020 20:40:18 8.1 C 64 %
1997 25-03-2020 20:50:17 8.1 C 64 %
1998 25-03-2020 21:00:18 8.1 C 64 %
1999 25-03-2020 21:10:18 8.1 C 64 %
2000 25-03-2020 21:20:17 8.1 C 64 %
Sensor: Nr:Datum:Temp:Feuchte:
G-T/H 2001 25-03-2020 21:30:17 8.1 C 64 %
2002 25-03-2020 21:40:17 8.1 C 64 %
2003 25-03-2020 21:50:17 8.1 C 64 %
2004 25-03-2020 22:00:17 8.1 C 64 %
2005 25-03-2020 22:10:17 8.1 C 64 %
2006 25-03-2020 22:20:17 8.1 C 64 %
2007 25-03-2020 22:30:18 8.1 C 64 %
2008 25-03-2020 22:40:18 8.2 C 64 %
2009 25-03-2020 22:50:18 8.2 C 64 %
2010 25-03-2020 23:00:18 8.2 C 64 %
2011 25-03-2020 23:10:18 8.2 C 64 %
2012 25-03-2020 23:20:17 8.2 C 64 %
2013 25-03-2020 23:30:18 8.2 C 64 %
2014 25-03-2020 23:40:18 8.2 C 64 %
2015 25-03-2020 23:50:18 8.2 C 64 %

Legende:
   Min
   Max


Maximal/Minimal-Werte vom 12.03.2020 - 25.03.2020

Sensor Min Max Avg
Temp
(Aussen-T/F)
-4.7 °C
24-03-2020  06:00:17
25.8 °C
19-03-2020  13:19:18
7.67 °C
Feuchte
(Aussen-T/F)
20 %
12-03-2020  11:49:18
50 %
14-03-2020  05:39:18
32.23 %
Temp
(G-T/H)
7.4 °C
25-03-2020  10:00:18
13.9 °C
19-03-2020  16:59:17
10.63 °C
Feuchte
(G-T/H)
51 %
15-03-2020  16:09:17
76 %
12-03-2020  00:09:17
66.62 %

Die Daten stammen von einer Davis Vantage Pro 2 Wetter-Station und werden unter Linux mit der Software wview2wettercgi und aufbereitet. Alle Angaben erfolgen ohne Gewähr für ihre Vollständigkeit oder Richtigkeit.
Kontakt: Rainer Krienke krienke@uni-koblenz.de . Meine Webseiten an der Uni Koblenz oder privat.
Version: $Revision: 0.78 $